<?xml version="1.0" encoding="UTF-8" standalone="no" ?>
<gpx xmlns="http://www.topografix.com/GPX/1/1" creator="www.cicloide.com" version="1.1" xmlns:xsi="http://www.w3.org/2001/XMLSchema-instance" xsi:schemaLocation="http://www.topografix.com/GPX/1/1 http://www.topografix.com/GPX/1/1/gpx.xsd">
  <trk>
    <name>www.cicloide.com 19517</name>
    <desc>www.cicloide.com 19517</desc>
    <trkseg>
      <trkpt lat="41.605767927" lon="2.540349130">
        <ele>113.57</ele>
        <time>2014-09-21T07:36:42Z</time>
      </trkpt>
      <trkpt lat="41.605770358" lon="2.540363882">
        <ele>113.57</ele>
        <time>2014-09-21T07:36:53Z</time>
      </trkpt>
      <trkpt lat="41.605658376" lon="2.540317027">
        <ele>113.57</ele>
        <time>2014-09-21T07:37:00Z</time>
      </trkpt>
      <trkpt lat="41.605516219" lon="2.540262712">
        <ele>113.57</ele>
        <time>2014-09-21T07:37:05Z</time>
      </trkpt>
      <trkpt lat="41.605274904" lon="2.540247541">
        <ele>113.57</ele>
        <time>2014-09-21T07:37:12Z</time>
      </trkpt>
      <trkpt lat="41.604959157" lon="2.540213762">
        <ele>111.65</ele>
        <time>2014-09-21T07:37:19Z</time>
      </trkpt>
      <trkpt lat="41.604798979" lon="2.540244188">
        <ele>110.21</ele>
        <time>2014-09-21T07:37:24Z</time>
      </trkpt>
      <trkpt lat="41.604763188" lon="2.540324571">
        <ele>109.73</ele>
        <time>2014-09-21T07:37:28Z</time>
      </trkpt>
      <trkpt lat="41.604643160" lon="2.540633947">
        <ele>109.73</ele>
        <time>2014-09-21T07:37:38Z</time>
      </trkpt>
      <trkpt lat="41.604635532" lon="2.540659511">
        <ele>109.73</ele>
        <time>2014-09-21T07:37:40Z</time>
      </trkpt>
      <trkpt lat="41.604560933" lon="2.540600922">
        <ele>109.25</ele>
        <time>2014-09-21T07:37:45Z</time>
      </trkpt>
      <trkpt lat="41.604534446" lon="2.540615926">
        <ele>109.25</ele>
        <time>2014-09-21T07:37:50Z</time>
      </trkpt>
      <trkpt lat="41.604504355" lon="2.540606286">
        <ele>109.25</ele>
        <time>2014-09-21T07:37:56Z</time>
      </trkpt>
      <trkpt lat="41.604341327" lon="2.540701170">
        <ele>108.29</ele>
        <time>2014-09-21T07:38:01Z</time>
      </trkpt>
      <trkpt lat="41.604108646" lon="2.540837711">
        <ele>107.81</ele>
        <time>2014-09-21T07:38:08Z</time>
      </trkpt>
      <trkpt lat="41.603868839" lon="2.541005936">
        <ele>106.84</ele>
        <time>2014-09-21T07:38:13Z</time>
      </trkpt>
      <trkpt lat="41.603709918" lon="2.541074667">
        <ele>106.36</ele>
        <time>2014-09-21T07:38:18Z</time>
      </trkpt>
      <trkpt lat="41.603447481" lon="2.541221099">
        <ele>105.40</ele>
        <time>2014-09-21T07:38:24Z</time>
      </trkpt>
      <trkpt lat="41.603295266" lon="2.541260159">
        <ele>104.92</ele>
        <time>2014-09-21T07:38:27Z</time>
      </trkpt>
      <trkpt lat="41.602958732" lon="2.541395107">
        <ele>103.96</ele>
        <time>2014-09-21T07:38:34Z</time>
      </trkpt>
      <trkpt lat="41.602788747" lon="2.541541204">
        <ele>103.48</ele>
        <time>2014-09-21T07:38:39Z</time>
      </trkpt>
      <trkpt lat="41.602556317" lon="2.541671207">
        <ele>102.52</ele>
        <time>2014-09-21T07:38:46Z</time>
      </trkpt>
      <trkpt lat="41.602553635" lon="2.541773886">
        <ele>102.52</ele>
        <time>2014-09-21T07:38:51Z</time>
      </trkpt>
      <trkpt lat="41.602611721" lon="2.542020062">
        <ele>102.52</ele>
        <time>2014-09-21T07:39:02Z</time>
      </trkpt>
      <trkpt lat="41.602617086" lon="2.542112179">
        <ele>103.96</ele>
        <time>2014-09-21T07:39:11Z</time>
      </trkpt>
      <trkpt lat="41.602618846" lon="2.542129530">
        <ele>103.96</ele>
        <time>2014-09-21T07:39:23Z</time>
      </trkpt>
      <trkpt lat="41.602628401" lon="2.542146880">
        <ele>103.96</ele>
        <time>2014-09-21T07:39:42Z</time>
      </trkpt>
      <trkpt lat="41.602640304" lon="2.542173367">
        <ele>103.96</ele>
        <time>2014-09-21T07:40:01Z</time>
      </trkpt>
      <trkpt lat="41.602635861" lon="2.542156268">
        <ele>103.96</ele>
        <time>2014-09-21T07:40:22Z</time>
      </trkpt>
      <trkpt lat="41.602630665" lon="2.542165572">
        <ele>104.44</ele>
        <time>2014-09-21T07:40:34Z</time>
      </trkpt>
      <trkpt lat="41.602608620" lon="2.542313680">
        <ele>104.44</ele>
        <time>2014-09-21T07:40:39Z</time>
      </trkpt>
      <trkpt lat="41.602481886" lon="2.542639149">
        <ele>103.00</ele>
        <time>2014-09-21T07:40:46Z</time>
      </trkpt>
      <trkpt lat="41.602278792" lon="2.542896139">
        <ele>102.52</ele>
        <time>2014-09-21T07:40:53Z</time>
      </trkpt>
      <trkpt lat="41.602031275" lon="2.543175507">
        <ele>102.52</ele>
        <time>2014-09-21T07:41:02Z</time>
      </trkpt>
      <trkpt lat="41.601912252" lon="2.543293357">
        <ele>102.52</ele>
        <time>2014-09-21T07:41:09Z</time>
      </trkpt>
      <trkpt lat="41.601776632" lon="2.543419169">
        <ele>104.44</ele>
        <time>2014-09-21T07:41:16Z</time>
      </trkpt>
      <trkpt lat="41.601629362" lon="2.543491924">
        <ele>105.40</ele>
        <time>2014-09-21T07:41:23Z</time>
      </trkpt>
      <trkpt lat="41.601499359" lon="2.543597285">
        <ele>106.84</ele>
        <time>2014-09-21T07:41:30Z</time>
      </trkpt>
      <trkpt lat="41.601364997" lon="2.543784788">
        <ele>107.32</ele>
        <time>2014-09-21T07:41:40Z</time>
      </trkpt>
      <trkpt lat="41.601228707" lon="2.544029707">
        <ele>107.32</ele>
        <time>2014-09-21T07:41:49Z</time>
      </trkpt>
      <trkpt lat="41.601135333" lon="2.544133307">
        <ele>105.88</ele>
        <time>2014-09-21T07:41:54Z</time>
      </trkpt>
      <trkpt lat="41.601174309" lon="2.544280242">
        <ele>105.88</ele>
        <time>2014-09-21T07:42:00Z</time>
      </trkpt>
      <trkpt lat="41.601258966" lon="2.544417203">
        <ele>107.32</ele>
        <time>2014-09-21T07:42:05Z</time>
      </trkpt>
      <trkpt lat="41.601373463" lon="2.544587942">
        <ele>108.77</ele>
        <time>2014-09-21T07:42:15Z</time>
      </trkpt>
      <trkpt lat="41.601402800" lon="2.544633037">
        <ele>109.25</ele>
        <time>2014-09-21T07:42:24Z</time>
      </trkpt>
      <trkpt lat="41.601406236" lon="2.544647621">
        <ele>109.25</ele>
        <time>2014-09-21T07:42:29Z</time>
      </trkpt>
      <trkpt lat="41.601471615" lon="2.544739906">
        <ele>109.73</ele>
        <time>2014-09-21T07:42:36Z</time>
      </trkpt>
      <trkpt lat="41.601607402" lon="2.544921374">
        <ele>111.65</ele>
        <time>2014-09-21T07:42:45Z</time>
      </trkpt>
      <trkpt lat="41.601749810" lon="2.545121785">
        <ele>113.09</ele>
        <time>2014-09-21T07:42:55Z</time>
      </trkpt>
      <trkpt lat="41.601858943" lon="2.545267798">
        <ele>114.53</ele>
        <time>2014-09-21T07:43:02Z</time>
      </trkpt>
      <trkpt lat="41.602022138" lon="2.545461420">
        <ele>116.94</ele>
        <time>2014-09-21T07:43:13Z</time>
      </trkpt>
      <trkpt lat="41.602121129" lon="2.545625621">
        <ele>118.38</ele>
        <time>2014-09-21T07:43:23Z</time>
      </trkpt>
      <trkpt lat="41.602133450" lon="2.545762666">
        <ele>118.86</ele>
        <time>2014-09-21T07:43:30Z</time>
      </trkpt>
      <trkpt lat="41.601992634" lon="2.545831565">
        <ele>120.30</ele>
        <time>2014-09-21T07:43:39Z</time>
      </trkpt>
      <trkpt lat="41.601866151" lon="2.545863835">
        <ele>122.22</ele>
        <time>2014-09-21T07:43:46Z</time>
      </trkpt>
      <trkpt lat="41.601697004" lon="2.545906667">
        <ele>123.67</ele>
        <time>2014-09-21T07:43:56Z</time>
      </trkpt>
      <trkpt lat="41.601494330" lon="2.545962658">
        <ele>125.11</ele>
        <time>2014-09-21T07:44:07Z</time>
      </trkpt>
      <trkpt lat="41.601331050" lon="2.546013787">
        <ele>126.55</ele>
        <time>2014-09-21T07:44:15Z</time>
      </trkpt>
      <trkpt lat="41.601214793" lon="2.546095260">
        <ele>128.95</ele>
        <time>2014-09-21T07:44:24Z</time>
      </trkpt>
      <trkpt lat="41.601117563" lon="2.546174636">
        <ele>129.92</ele>
        <time>2014-09-21T07:44:31Z</time>
      </trkpt>
      <trkpt lat="41.601000720" lon="2.546264993">
        <ele>132.32</ele>
        <time>2014-09-21T07:44:38Z</time>
      </trkpt>
      <trkpt lat="41.600874488" lon="2.546379741">
        <ele>134.24</ele>
        <time>2014-09-21T07:44:47Z</time>
      </trkpt>
      <trkpt lat="41.600761081" lon="2.546456436">
        <ele>135.68</ele>
        <time>2014-09-21T07:44:55Z</time>
      </trkpt>
      <trkpt lat="41.600609620" lon="2.546468422">
        <ele>137.61</ele>
        <time>2014-09-21T07:45:04Z</time>
      </trkpt>
      <trkpt lat="41.600478276" lon="2.546403797">
        <ele>138.57</ele>
        <time>2014-09-21T07:45:11Z</time>
      </trkpt>
      <trkpt lat="41.600354223" lon="2.546320146">
        <ele>139.53</ele>
        <time>2014-09-21T07:45:16Z</time>
      </trkpt>
      <trkpt lat="41.600222208" lon="2.546205482">
        <ele>140.97</ele>
        <time>2014-09-21T07:45:23Z</time>
      </trkpt>
      <trkpt lat="41.600098575" lon="2.546177235">
        <ele>141.45</ele>
        <time>2014-09-21T07:45:30Z</time>
      </trkpt>
      <trkpt lat="41.600111819" lon="2.546288043">
        <ele>142.89</ele>
        <time>2014-09-21T07:45:35Z</time>
      </trkpt>
      <trkpt lat="41.600253808" lon="2.546487533">
        <ele>144.34</ele>
        <time>2014-09-21T07:45:46Z</time>
      </trkpt>
      <trkpt lat="41.600409712" lon="2.546684843">
        <ele>146.26</ele>
        <time>2014-09-21T07:45:58Z</time>
      </trkpt>
      <trkpt lat="41.600560670" lon="2.546772433">
        <ele>146.74</ele>
        <time>2014-09-21T07:46:07Z</time>
      </trkpt>
      <trkpt lat="41.600745072" lon="2.546777966">
        <ele>148.66</ele>
        <time>2014-09-21T07:46:17Z</time>
      </trkpt>
      <trkpt lat="41.600900221" lon="2.546812918">
        <ele>150.10</ele>
        <time>2014-09-21T07:46:26Z</time>
      </trkpt>
      <trkpt lat="41.601065344" lon="2.546927750">
        <ele>151.54</ele>
        <time>2014-09-21T07:46:35Z</time>
      </trkpt>
      <trkpt lat="41.601224014" lon="2.546971336">
        <ele>153.47</ele>
        <time>2014-09-21T07:46:45Z</time>
      </trkpt>
      <trkpt lat="41.601357621" lon="2.546964882">
        <ele>154.43</ele>
        <time>2014-09-21T07:46:52Z</time>
      </trkpt>
      <trkpt lat="41.601538000" lon="2.546995057">
        <ele>155.87</ele>
        <time>2014-09-21T07:47:01Z</time>
      </trkpt>
      <trkpt lat="41.601681330" lon="2.546986004">
        <ele>156.35</ele>
        <time>2014-09-21T07:47:10Z</time>
      </trkpt>
      <trkpt lat="41.601813513" lon="2.546971755">
        <ele>157.79</ele>
        <time>2014-09-21T07:47:18Z</time>
      </trkpt>
      <trkpt lat="41.601942175" lon="2.546924146">
        <ele>159.24</ele>
        <time>2014-09-21T07:47:25Z</time>
      </trkpt>
      <trkpt lat="41.601981821" lon="2.546920709">
        <ele>159.24</ele>
        <time>2014-09-21T07:47:27Z</time>
      </trkpt>
      <trkpt lat="41.602088439" lon="2.547058759">
        <ele>160.68</ele>
        <time>2014-09-21T07:47:36Z</time>
      </trkpt>
      <trkpt lat="41.602119620" lon="2.547119780">
        <ele>161.16</ele>
        <time>2014-09-21T07:47:39Z</time>
      </trkpt>
      <trkpt lat="41.602237302" lon="2.547263362">
        <ele>163.56</ele>
        <time>2014-09-21T07:47:51Z</time>
      </trkpt>
      <trkpt lat="41.602362611" lon="2.547411973">
        <ele>165.00</ele>
        <time>2014-09-21T07:48:00Z</time>
      </trkpt>
      <trkpt lat="41.602539637" lon="2.547596877">
        <ele>165.48</ele>
        <time>2014-09-21T07:48:11Z</time>
      </trkpt>
      <trkpt lat="41.602722446" lon="2.547775747">
        <ele>165.96</ele>
        <time>2014-09-21T07:48:21Z</time>
      </trkpt>
      <trkpt lat="41.602911542" lon="2.547931315">
        <ele>166.93</ele>
        <time>2014-09-21T07:48:33Z</time>
      </trkpt>
      <trkpt lat="41.603072307" lon="2.548045561">
        <ele>167.89</ele>
        <time>2014-09-21T07:48:44Z</time>
      </trkpt>
      <trkpt lat="41.603177081" lon="2.548107252">
        <ele>168.85</ele>
        <time>2014-09-21T07:48:51Z</time>
      </trkpt>
      <trkpt lat="41.603332481" lon="2.548200877">
        <ele>170.29</ele>
        <time>2014-09-21T07:48:59Z</time>
      </trkpt>
      <trkpt lat="41.603343881" lon="2.548238512">
        <ele>170.77</ele>
        <time>2014-09-21T07:49:01Z</time>
      </trkpt>
      <trkpt lat="41.603284118" lon="2.548301460">
        <ele>171.25</ele>
        <time>2014-09-21T07:49:08Z</time>
      </trkpt>
      <trkpt lat="41.603270455" lon="2.548296766">
        <ele>171.25</ele>
        <time>2014-09-21T07:49:08Z</time>
      </trkpt>
      <trkpt lat="41.603164927" lon="2.548251839">
        <ele>171.73</ele>
        <time>2014-09-21T07:49:15Z</time>
      </trkpt>
      <trkpt lat="41.603084461" lon="2.548210098">
        <ele>172.21</ele>
        <time>2014-09-21T07:49:22Z</time>
      </trkpt>
      <trkpt lat="41.602901987" lon="2.548138600">
        <ele>174.14</ele>
        <time>2014-09-21T07:49:31Z</time>
      </trkpt>
      <trkpt lat="41.602846499" lon="2.548152598">
        <ele>174.14</ele>
        <time>2014-09-21T07:49:36Z</time>
      </trkpt>
      <trkpt lat="41.602828980" lon="2.548234824">
        <ele>174.62</ele>
        <time>2014-09-21T07:49:39Z</time>
      </trkpt>
      <trkpt lat="41.602864687" lon="2.548447892">
        <ele>177.02</ele>
        <time>2014-09-21T07:49:48Z</time>
      </trkpt>
      <trkpt lat="41.602893521" lon="2.548633887">
        <ele>177.98</ele>
        <time>2014-09-21T07:49:57Z</time>
      </trkpt>
      <trkpt lat="41.602891090" lon="2.548822228">
        <ele>178.94</ele>
        <time>2014-09-21T07:50:04Z</time>
      </trkpt>
      <trkpt lat="41.602899891" lon="2.549054574">
        <ele>179.90</ele>
        <time>2014-09-21T07:50:14Z</time>
      </trkpt>
      <trkpt lat="41.602941968" lon="2.549201509">
        <ele>180.38</ele>
        <time>2014-09-21T07:50:21Z</time>
      </trkpt>
      <trkpt lat="41.602994607" lon="2.549384821">
        <ele>180.87</ele>
        <time>2014-09-21T07:50:28Z</time>
      </trkpt>
      <trkpt lat="41.603023441" lon="2.549597051">
        <ele>181.83</ele>
        <time>2014-09-21T07:50:37Z</time>
      </trkpt>
      <trkpt lat="41.603026207" lon="2.549748261">
        <ele>182.79</ele>
        <time>2014-09-21T07:50:44Z</time>
      </trkpt>
      <trkpt lat="41.603089406" lon="2.549947666">
        <ele>183.75</ele>
        <time>2014-09-21T07:50:54Z</time>
      </trkpt>
      <trkpt lat="41.603141039" lon="2.550097618">
        <ele>184.23</ele>
        <time>2014-09-21T07:51:00Z</time>
      </trkpt>
      <trkpt lat="41.603162412" lon="2.550257210">
        <ele>185.19</ele>
        <time>2014-09-21T07:51:06Z</time>
      </trkpt>
      <trkpt lat="41.603182026" lon="2.550392242">
        <ele>186.15</ele>
        <time>2014-09-21T07:51:13Z</time>
      </trkpt>
      <trkpt lat="41.603234581" lon="2.550598688">
        <ele>186.63</ele>
        <time>2014-09-21T07:51:22Z</time>
      </trkpt>
      <trkpt lat="41.603286716" lon="2.550828269">
        <ele>188.08</ele>
        <time>2014-09-21T07:51:31Z</time>
      </trkpt>
      <trkpt lat="41.603338768" lon="2.551038738">
        <ele>189.04</ele>
        <time>2014-09-21T07:51:38Z</time>
      </trkpt>
      <trkpt lat="41.603399704" lon="2.551217524">
        <ele>190.00</ele>
        <time>2014-09-21T07:51:47Z</time>
      </trkpt>
      <trkpt lat="41.603475225" lon="2.551393963">
        <ele>190.96</ele>
        <time>2014-09-21T07:51:55Z</time>
      </trkpt>
      <trkpt lat="41.603481176" lon="2.551499995">
        <ele>191.44</ele>
        <time>2014-09-21T07:51:59Z</time>
      </trkpt>
      <trkpt lat="41.603423928" lon="2.551696550">
        <ele>191.92</ele>
        <time>2014-09-21T07:52:06Z</time>
      </trkpt>
      <trkpt lat="41.603354526" lon="2.551761510">
        <ele>191.92</ele>
        <time>2014-09-21T07:52:11Z</time>
      </trkpt>
      <trkpt lat="41.603162077" lon="2.551920179">
        <ele>192.88</ele>
        <time>2014-09-21T07:52:21Z</time>
      </trkpt>
      <trkpt lat="41.603014137" lon="2.552001819">
        <ele>193.84</ele>
        <time>2014-09-21T07:52:30Z</time>
      </trkpt>
      <trkpt lat="41.602902573" lon="2.551926550">
        <ele>194.80</ele>
        <time>2014-09-21T07:52:39Z</time>
      </trkpt>
      <trkpt lat="41.602764188" lon="2.551844491">
        <ele>196.73</ele>
        <time>2014-09-21T07:52:48Z</time>
      </trkpt>
      <trkpt lat="41.602702581" lon="2.551888747">
        <ele>197.69</ele>
        <time>2014-09-21T07:52:53Z</time>
      </trkpt>
      <trkpt lat="41.602606273" lon="2.551992599">
        <ele>198.65</ele>
        <time>2014-09-21T07:53:00Z</time>
      </trkpt>
      <trkpt lat="41.602552545" lon="2.552101061">
        <ele>200.09</ele>
        <time>2014-09-21T07:53:07Z</time>
      </trkpt>
      <trkpt lat="41.602466128" lon="2.552183371">
        <ele>202.01</ele>
        <time>2014-09-21T07:53:17Z</time>
      </trkpt>
      <trkpt lat="41.602342746" lon="2.552199632">
        <ele>204.42</ele>
        <time>2014-09-21T07:53:26Z</time>
      </trkpt>
      <trkpt lat="41.602205954" lon="2.552232573">
        <ele>206.82</ele>
        <time>2014-09-21T07:53:36Z</time>
      </trkpt>
      <trkpt lat="41.602089864" lon="2.552322175">
        <ele>208.74</ele>
        <time>2014-09-21T07:53:45Z</time>
      </trkpt>
      <trkpt lat="41.602030353" lon="2.552407587">
        <ele>209.70</ele>
        <time>2014-09-21T07:53:52Z</time>
      </trkpt>
      <trkpt lat="41.601987353" lon="2.552501297">
        <ele>210.19</ele>
        <time>2014-09-21T07:53:59Z</time>
      </trkpt>
      <trkpt lat="41.601916359" lon="2.552638508">
        <ele>212.11</ele>
        <time>2014-09-21T07:54:08Z</time>
      </trkpt>
      <trkpt lat="41.601859697" lon="2.552761136">
        <ele>214.03</ele>
        <time>2014-09-21T07:54:16Z</time>
      </trkpt>
      <trkpt lat="41.601770597" lon="2.552914022">
        <ele>215.47</ele>
        <time>2014-09-21T07:54:27Z</time>
      </trkpt>
      <trkpt lat="41.601710415" lon="2.553011922">
        <ele>217.40</ele>
        <time>2014-09-21T07:54:35Z</time>
      </trkpt>
      <trkpt lat="41.601653083" lon="2.553148128">
        <ele>219.32</ele>
        <time>2014-09-21T07:54:44Z</time>
      </trkpt>
      <trkpt lat="41.601607653" lon="2.553344265">
        <ele>220.76</ele>
        <time>2014-09-21T07:54:53Z</time>
      </trkpt>
      <trkpt lat="41.601565911" lon="2.553566553">
        <ele>222.20</ele>
        <time>2014-09-21T07:55:05Z</time>
      </trkpt>
      <trkpt lat="41.601537748" lon="2.553738298">
        <ele>223.16</ele>
        <time>2014-09-21T07:55:14Z</time>
      </trkpt>
      <trkpt lat="41.601548812" lon="2.553771323">
        <ele>223.16</ele>
        <time>2014-09-21T07:55:16Z</time>
      </trkpt>
      <trkpt lat="41.601659705" lon="2.553808622">
        <ele>225.57</ele>
        <time>2014-09-21T07:55:26Z</time>
      </trkpt>
      <trkpt lat="41.601710667" lon="2.553813903">
        <ele>226.53</ele>
        <time>2014-09-21T07:55:29Z</time>
      </trkpt>
      <trkpt lat="41.601784260" lon="2.553831337">
        <ele>228.45</ele>
        <time>2014-09-21T07:55:35Z</time>
      </trkpt>
      <trkpt lat="41.601915269" lon="2.553815411">
        <ele>230.37</ele>
        <time>2014-09-21T07:55:42Z</time>
      </trkpt>
      <trkpt lat="41.602028341" lon="2.553792613">
        <ele>231.81</ele>
        <time>2014-09-21T07:55:50Z</time>
      </trkpt>
      <trkpt lat="41.602162871" lon="2.553789428">
        <ele>233.26</ele>
        <time>2014-09-21T07:55:59Z</time>
      </trkpt>
      <trkpt lat="41.602279044" lon="2.553877018">
        <ele>233.74</ele>
        <time>2014-09-21T07:56:08Z</time>
      </trkpt>
      <trkpt lat="41.602330844" lon="2.553919096">
        <ele>235.66</ele>
        <time>2014-09-21T07:56:11Z</time>
      </trkpt>
      <trkpt lat="41.602427822" lon="2.553944409">
        <ele>236.14</ele>
        <time>2014-09-21T07:56:18Z</time>
      </trkpt>
      <trkpt lat="41.602580457" lon="2.553922616">
        <ele>236.62</ele>
        <time>2014-09-21T07:56:27Z</time>
      </trkpt>
      <trkpt lat="41.602728817" lon="2.553901158">
        <ele>237.10</ele>
        <time>2014-09-21T07:56:34Z</time>
      </trkpt>
      <trkpt lat="41.602886313" lon="2.553898811">
        <ele>237.58</ele>
        <time>2014-09-21T07:56:43Z</time>
      </trkpt>
      <trkpt lat="41.603053448" lon="2.553845251">
        <ele>239.02</ele>
        <time>2014-09-21T07:56:53Z</time>
      </trkpt>
      <trkpt lat="41.603155875" lon="2.553790014">
        <ele>239.51</ele>
        <time>2014-09-21T07:57:00Z</time>
      </trkpt>
      <trkpt lat="41.603269533" lon="2.553720277">
        <ele>240.95</ele>
        <time>2014-09-21T07:57:07Z</time>
      </trkpt>
      <trkpt lat="41.603410684" lon="2.553606367">
        <ele>241.43</ele>
        <time>2014-09-21T07:57:17Z</time>
      </trkpt>
      <trkpt lat="41.603557871" lon="2.553537803">
        <ele>243.83</ele>
        <time>2014-09-21T07:57:28Z</time>
      </trkpt>
      <trkpt lat="41.603708410" lon="2.553465467">
        <ele>245.75</ele>
        <time>2014-09-21T07:57:37Z</time>
      </trkpt>
      <trkpt lat="41.603805724" lon="2.553383743">
        <ele>247.68</ele>
        <time>2014-09-21T07:57:45Z</time>
      </trkpt>
      <trkpt lat="41.603921981" lon="2.553297829">
        <ele>249.12</ele>
        <time>2014-09-21T07:57:54Z</time>
      </trkpt>
      <trkpt lat="41.604017702" lon="2.553293722">
        <ele>250.08</ele>
        <time>2014-09-21T07:58:01Z</time>
      </trkpt>
      <trkpt lat="41.604139742" lon="2.553314677">
        <ele>251.04</ele>
        <time>2014-09-21T07:58:08Z</time>
      </trkpt>
      <trkpt lat="41.604283743" lon="2.553334625">
        <ele>252.48</ele>
        <time>2014-09-21T07:58:17Z</time>
      </trkpt>
      <trkpt lat="41.604417100" lon="2.553356921">
        <ele>253.44</ele>
        <time>2014-09-21T07:58:25Z</time>
      </trkpt>
      <trkpt lat="41.604544756" lon="2.553344768">
        <ele>255.37</ele>
        <time>2014-09-21T07:58:34Z</time>
      </trkpt>
      <trkpt lat="41.604650116" lon="2.553324316">
        <ele>256.33</ele>
        <time>2014-09-21T07:58:41Z</time>
      </trkpt>
      <trkpt lat="41.604683812" lon="2.553315599">
        <ele>257.29</ele>
        <time>2014-09-21T07:58:45Z</time>
      </trkpt>
      <trkpt lat="41.604817252" lon="2.553343175">
        <ele>257.77</ele>
        <time>2014-09-21T07:58:53Z</time>
      </trkpt>
      <trkpt lat="41.604938873" lon="2.553418109">
        <ele>257.77</ele>
        <time>2014-09-21T07:59:00Z</time>
      </trkpt>
      <trkpt lat="41.605060327" lon="2.553545598">
        <ele>257.77</ele>
        <time>2014-09-21T07:59:07Z</time>
      </trkpt>
      <trkpt lat="41.605176165" lon="2.553669985">
        <ele>257.77</ele>
        <time>2014-09-21T07:59:14Z</time>
      </trkpt>
      <trkpt lat="41.605358974" lon="2.553718852">
        <ele>257.77</ele>
        <time>2014-09-21T07:59:21Z</time>
      </trkpt>
      <trkpt lat="41.605502137" lon="2.553719942">
        <ele>258.25</ele>
        <time>2014-09-21T07:59:26Z</time>
      </trkpt>
      <trkpt lat="41.605697268" lon="2.553713907">
        <ele>258.25</ele>
        <time>2014-09-21T07:59:35Z</time>
      </trkpt>
      <trkpt lat="41.605841939" lon="2.553709129">
        <ele>258.73</ele>
        <time>2014-09-21T07:59:42Z</time>
      </trkpt>
      <trkpt lat="41.605990802" lon="2.553631261">
        <ele>260.17</ele>
        <time>2014-09-21T07:59:49Z</time>
      </trkpt>
      <trkpt lat="41.606128097" lon="2.553479129">
        <ele>261.62</ele>
        <time>2014-09-21T08:00:00Z</time>
      </trkpt>
      <trkpt lat="41.606236559" lon="2.553419869">
        <ele>262.58</ele>
        <time>2014-09-21T08:00:06Z</time>
      </trkpt>
      <trkpt lat="41.606361282" lon="2.553380223">
        <ele>263.54</ele>
        <time>2014-09-21T08:00:15Z</time>
      </trkpt>
      <trkpt lat="41.606473851" lon="2.553314593">
        <ele>264.50</ele>
        <time>2014-09-21T08:00:22Z</time>
      </trkpt>
      <trkpt lat="41.606621289" lon="2.553149302">
        <ele>266.42</ele>
        <time>2014-09-21T08:00:34Z</time>
      </trkpt>
      <trkpt lat="41.606710221" lon="2.553057184">
        <ele>267.38</ele>
        <time>2014-09-21T08:00:43Z</time>
      </trkpt>
      <trkpt lat="41.606826897" lon="2.552998427">
        <ele>267.38</ele>
        <time>2014-09-21T08:00:48Z</time>
      </trkpt>
      <trkpt lat="41.606953463" lon="2.552970264">
        <ele>265.94</ele>
        <time>2014-09-21T08:00:50Z</time>
      </trkpt>
      <trkpt lat="41.607199137" lon="2.552929025">
        <ele>264.02</ele>
        <time>2014-09-21T08:00:55Z</time>
      </trkpt>
      <trkpt lat="41.607459311" lon="2.553057436">
        <ele>262.58</ele>
        <time>2014-09-21T08:01:00Z</time>
      </trkpt>
      <trkpt lat="41.607607336" lon="2.553176627">
        <ele>261.62</ele>
        <time>2014-09-21T08:01:04Z</time>
      </trkpt>
      <trkpt lat="41.607983180" lon="2.553409224">
        <ele>261.14</ele>
        <time>2014-09-21T08:01:11Z</time>
      </trkpt>
      <trkpt lat="41.608111842" lon="2.553504191">
        <ele>261.14</ele>
        <time>2014-09-21T08:01:18Z</time>
      </trkpt>
      <trkpt lat="41.608157272" lon="2.553530008">
        <ele>262.58</ele>
        <time>2014-09-21T08:01:21Z</time>
      </trkpt>
      <trkpt lat="41.608302447" lon="2.553638302">
        <ele>263.54</ele>
        <time>2014-09-21T08:01:30Z</time>
      </trkpt>
      <trkpt lat="41.608434043" lon="2.553752212">
        <ele>265.46</ele>
        <time>2014-09-21T08:01:39Z</time>
      </trkpt>
      <trkpt lat="41.608567567" lon="2.553817255">
        <ele>267.86</ele>
        <time>2014-09-21T08:01:48Z</time>
      </trkpt>
      <trkpt lat="41.608663958" lon="2.553872744">
        <ele>269.31</ele>
        <time>2014-09-21T08:01:56Z</time>
      </trkpt>
      <trkpt lat="41.608678962" lon="2.553876096">
        <ele>269.31</ele>
        <time>2014-09-21T08:01:56Z</time>
      </trkpt>
      <trkpt lat="41.608822041" lon="2.553971650">
        <ele>271.71</ele>
        <time>2014-09-21T08:02:07Z</time>
      </trkpt>
      <trkpt lat="41.608947183" lon="2.554006686">
        <ele>274.11</ele>
        <time>2014-09-21T08:02:15Z</time>
      </trkpt>
      <trkpt lat="41.609029242" lon="2.554030072">
        <ele>275.56</ele>
        <time>2014-09-21T08:02:22Z</time>
      </trkpt>
      <trkpt lat="41.609151450" lon="2.554071562">
        <ele>277.00</ele>
        <time>2014-09-21T08:02:31Z</time>
      </trkpt>
      <trkpt lat="41.609182798" lon="2.554078436">
        <ele>277.48</ele>
        <time>2014-09-21T08:02:33Z</time>
      </trkpt>
      <trkpt lat="41.609315819" lon="2.554022361">
        <ele>279.40</ele>
        <time>2014-09-21T08:02:42Z</time>
      </trkpt>
      <trkpt lat="41.609353370" lon="2.553988749">
        <ele>279.40</ele>
        <time>2014-09-21T08:02:45Z</time>
      </trkpt>
      <trkpt lat="41.609475410" lon="2.553885400">
        <ele>279.88</ele>
        <time>2014-09-21T08:02:54Z</time>
      </trkpt>
      <trkpt lat="41.609663836" lon="2.553766629">
        <ele>279.88</ele>
        <time>2014-09-21T08:03:01Z</time>
      </trkpt>
      <trkpt lat="41.609889896" lon="2.553780543">
        <ele>279.88</ele>
        <time>2014-09-21T08:03:08Z</time>
      </trkpt>
      <trkpt lat="41.610140347" lon="2.553787584">
        <ele>278.44</ele>
        <time>2014-09-21T08:03:16Z</time>
      </trkpt>
      <trkpt lat="41.610370598" lon="2.553762773">
        <ele>277.96</ele>
        <time>2014-09-21T08:03:22Z</time>
      </trkpt>
      <trkpt lat="41.610566315" lon="2.553796888">
        <ele>277.96</ele>
        <time>2014-09-21T08:03:29Z</time>
      </trkpt>
      <trkpt lat="41.610798242" lon="2.553818010">
        <ele>278.44</ele>
        <time>2014-09-21T08:03:39Z</time>
      </trkpt>
      <trkpt lat="41.610963114" lon="2.553813400">
        <ele>279.88</ele>
        <time>2014-09-21T08:03:46Z</time>
      </trkpt>
      <trkpt lat="41.611130753" lon="2.553850448">
        <ele>280.84</ele>
        <time>2014-09-21T08:03:55Z</time>
      </trkpt>
      <trkpt lat="41.611319094" lon="2.553946169">
        <ele>281.80</ele>
        <time>2014-09-21T08:04:03Z</time>
      </trkpt>
      <trkpt lat="41.611407942" lon="2.554129398">
        <ele>282.28</ele>
        <time>2014-09-21T08:04:10Z</time>
      </trkpt>
      <trkpt lat="41.611435351" lon="2.554193603">
        <ele>282.77</ele>
        <time>2014-09-21T08:04:14Z</time>
      </trkpt>
      <trkpt lat="41.611472064" lon="2.554286726">
        <ele>283.25</ele>
        <time>2014-09-21T08:04:17Z</time>
      </trkpt>
      <trkpt lat="41.611515817" lon="2.554454113">
        <ele>283.73</ele>
        <time>2014-09-21T08:04:24Z</time>
      </trkpt>
      <trkpt lat="41.611474411" lon="2.554606998">
        <ele>284.21</ele>
        <time>2014-09-21T08:04:31Z</time>
      </trkpt>
      <trkpt lat="41.611424706" lon="2.554817552">
        <ele>284.69</ele>
        <time>2014-09-21T08:04:40Z</time>
      </trkpt>
      <trkpt lat="41.611425628" lon="2.554966163">
        <ele>285.65</ele>
        <time>2014-09-21T08:04:47Z</time>
      </trkpt>
      <trkpt lat="41.611451612" lon="2.555153750">
        <ele>288.05</ele>
        <time>2014-09-21T08:04:56Z</time>
      </trkpt>
      <trkpt lat="41.611472231" lon="2.555315856">
        <ele>289.49</ele>
        <time>2014-09-21T08:05:03Z</time>
      </trkpt>
      <trkpt lat="41.611453791" lon="2.555501767">
        <ele>290.46</ele>
        <time>2014-09-21T08:05:10Z</time>
      </trkpt>
      <trkpt lat="41.611450606" lon="2.555765461">
        <ele>291.42</ele>
        <time>2014-09-21T08:05:20Z</time>
      </trkpt>
      <trkpt lat="41.611442392" lon="2.555988336">
        <ele>292.86</ele>
        <time>2014-09-21T08:05:29Z</time>
      </trkpt>
      <trkpt lat="41.611468627" lon="2.556143820">
        <ele>294.30</ele>
        <time>2014-09-21T08:05:36Z</time>
      </trkpt>
      <trkpt lat="41.611499221" lon="2.556330904">
        <ele>296.22</ele>
        <time>2014-09-21T08:05:43Z</time>
      </trkpt>
      <trkpt lat="41.611500478" lon="2.556352027">
        <ele>296.22</ele>
        <time>2014-09-21T08:05:44Z</time>
      </trkpt>
      <trkpt lat="41.611514141" lon="2.556478426">
        <ele>297.18</ele>
        <time>2014-09-21T08:05:51Z</time>
      </trkpt>
      <trkpt lat="41.611539789" lon="2.556624271">
        <ele>298.15</ele>
        <time>2014-09-21T08:05:58Z</time>
      </trkpt>
      <trkpt lat="41.611623189" lon="2.556886876">
        <ele>298.15</ele>
        <time>2014-09-21T08:06:07Z</time>
      </trkpt>
      <trkpt lat="41.611653364" lon="2.557075217">
        <ele>298.15</ele>
        <time>2014-09-21T08:06:11Z</time>
      </trkpt>
      <trkpt lat="41.611766185" lon="2.557450056">
        <ele>293.34</ele>
        <time>2014-09-21T08:06:16Z</time>
      </trkpt>
      <trkpt lat="41.611828127" lon="2.557673769">
        <ele>291.42</ele>
        <time>2014-09-21T08:06:21Z</time>
      </trkpt>
      <trkpt lat="41.611995346" lon="2.557817603">
        <ele>289.97</ele>
        <time>2014-09-21T08:06:26Z</time>
      </trkpt>
      <trkpt lat="41.612346548" lon="2.557781477">
        <ele>286.13</ele>
        <time>2014-09-21T08:06:30Z</time>
      </trkpt>
      <trkpt lat="41.612709819" lon="2.557718529">
        <ele>283.25</ele>
        <time>2014-09-21T08:06:35Z</time>
      </trkpt>
      <trkpt lat="41.612895814" lon="2.557699250">
        <ele>282.28</ele>
        <time>2014-09-21T08:06:37Z</time>
      </trkpt>
      <trkpt lat="41.613205860" lon="2.557613168">
        <ele>278.92</ele>
        <time>2014-09-21T08:06:42Z</time>
      </trkpt>
      <trkpt lat="41.613259672" lon="2.557717020">
        <ele>278.44</ele>
        <time>2014-09-21T08:06:44Z</time>
      </trkpt>
      <trkpt lat="41.613399063" lon="2.558025558">
        <ele>277.96</ele>
        <time>2014-09-21T08:06:51Z</time>
      </trkpt>
      <trkpt lat="41.613519511" lon="2.558257317">
        <ele>277.96</ele>
        <time>2014-09-21T08:06:59Z</time>
      </trkpt>
      <trkpt lat="41.613562762" lon="2.558339711">
        <ele>279.40</ele>
        <time>2014-09-21T08:07:01Z</time>
      </trkpt>
      <trkpt lat="41.613724365" lon="2.558648165">
        <ele>281.32</ele>
        <time>2014-09-21T08:07:13Z</time>
      </trkpt>
      <trkpt lat="41.613820841" lon="2.558797196">
        <ele>282.77</ele>
        <time>2014-09-21T08:07:20Z</time>
      </trkpt>
      <trkpt lat="41.613937684" lon="2.558979502">
        <ele>285.17</ele>
        <time>2014-09-21T08:07:29Z</time>
      </trkpt>
      <trkpt lat="41.614046398" lon="2.559111182">
        <ele>287.57</ele>
        <time>2014-09-21T08:07:38Z</time>
      </trkpt>
      <trkpt lat="41.614152261" lon="2.559233725">
        <ele>288.05</ele>
        <time>2014-09-21T08:07:45Z</time>
      </trkpt>
      <trkpt lat="41.614249407" lon="2.559356101">
        <ele>290.46</ele>
        <time>2014-09-21T08:07:53Z</time>
      </trkpt>
      <trkpt lat="41.614394079" lon="2.559482919">
        <ele>290.46</ele>
        <time>2014-09-21T08:08:00Z</time>
      </trkpt>
      <trkpt lat="41.614528860" lon="2.559594985">
        <ele>290.94</ele>
        <time>2014-09-21T08:08:07Z</time>
      </trkpt>
      <trkpt lat="41.614661629" lon="2.559715098">
        <ele>291.90</ele>
        <time>2014-09-21T08:08:16Z</time>
      </trkpt>
      <trkpt lat="41.614702701" lon="2.559854657">
        <ele>292.86</ele>
        <time>2014-09-21T08:08:21Z</time>
      </trkpt>
      <trkpt lat="41.614712424" lon="2.559990611">
        <ele>293.82</ele>
        <time>2014-09-21T08:08:28Z</time>
      </trkpt>
      <trkpt lat="41.614719967" lon="2.560208457">
        <ele>295.26</ele>
        <time>2014-09-21T08:08:37Z</time>
      </trkpt>
      <trkpt lat="41.614721895" lon="2.560437869">
        <ele>297.67</ele>
        <time>2014-09-21T08:08:46Z</time>
      </trkpt>
      <trkpt lat="41.614688535" lon="2.560652698">
        <ele>299.11</ele>
        <time>2014-09-21T08:08:54Z</time>
      </trkpt>
      <trkpt lat="41.614639417" lon="2.560914464">
        <ele>299.11</ele>
        <time>2014-09-21T08:09:03Z</time>
      </trkpt>
      <trkpt lat="41.614631287" lon="2.560983280">
        <ele>299.11</ele>
        <time>2014-09-21T08:09:05Z</time>
      </trkpt>
      <trkpt lat="41.614585689" lon="2.561270444">
        <ele>299.11</ele>
        <time>2014-09-21T08:09:12Z</time>
      </trkpt>
      <trkpt lat="41.614528273" lon="2.561513519">
        <ele>296.70</ele>
        <time>2014-09-21T08:09:17Z</time>
      </trkpt>
      <trkpt lat="41.614502373" lon="2.561795989">
        <ele>294.30</ele>
        <time>2014-09-21T08:09:24Z</time>
      </trkpt>
      <trkpt lat="41.614433474" lon="2.562074520">
        <ele>290.94</ele>
        <time>2014-09-21T08:09:29Z</time>
      </trkpt>
      <trkpt lat="41.614433725" lon="2.562109389">
        <ele>290.94</ele>
        <time>2014-09-21T08:09:29Z</time>
      </trkpt>
      <trkpt lat="41.614492566" lon="2.562223466">
        <ele>289.97</ele>
        <time>2014-09-21T08:09:33Z</time>
      </trkpt>
      <trkpt lat="41.614519556" lon="2.562408036">
        <ele>287.57</ele>
        <time>2014-09-21T08:09:38Z</time>
      </trkpt>
      <trkpt lat="41.614530955" lon="2.562593024">
        <ele>284.21</ele>
        <time>2014-09-21T08:09:43Z</time>
      </trkpt>
      <trkpt lat="41.614535985" lon="2.562735349">
        <ele>282.28</ele>
        <time>2014-09-21T08:09:50Z</time>
      </trkpt>
      <trkpt lat="41.614575799" lon="2.562975910">
        <ele>281.32</ele>
        <time>2014-09-21T08:09:55Z</time>
      </trkpt>
      <trkpt lat="41.614666323" lon="2.563351587">
        <ele>280.36</ele>
        <time>2014-09-21T08:10:02Z</time>
      </trkpt>
      <trkpt lat="41.614640675" lon="2.563515201">
        <ele>277.96</ele>
        <time>2014-09-21T08:10:07Z</time>
      </trkpt>
      <trkpt lat="41.614629107" lon="2.563541604">
        <ele>277.48</ele>
        <time>2014-09-21T08:10:09Z</time>
      </trkpt>
      <trkpt lat="41.614603626" lon="2.563696250">
        <ele>275.56</ele>
        <time>2014-09-21T08:10:14Z</time>
      </trkpt>
      <trkpt lat="41.614582169" lon="2.563813010">
        <ele>275.07</ele>
        <time>2014-09-21T08:10:18Z</time>
      </trkpt>
      <trkpt lat="41.614565992" lon="2.564113669">
        <ele>273.15</ele>
        <time>2014-09-21T08:10:25Z</time>
      </trkpt>
      <trkpt lat="41.614542942" lon="2.564172259">
        <ele>272.67</ele>
        <time>2014-09-21T08:10:30Z</time>
      </trkpt>
      <trkpt lat="41.614535901" lon="2.564238140">
        <ele>272.67</ele>
        <time>2014-09-21T08:10:35Z</time>
      </trkpt>
      <trkpt lat="41.614535146" lon="2.564310225">
        <ele>272.67</ele>
        <time>2014-09-21T08:10:42Z</time>
      </trkpt>
      <trkpt lat="41.614510420" lon="2.564400247">
        <ele>272.67</ele>
        <time>2014-09-21T08:10:51Z</time>
      </trkpt>
      <trkpt lat="41.614441353" lon="2.564654637">
        <ele>272.67</ele>
        <time>2014-09-21T08:10:58Z</time>
      </trkpt>
      <trkpt lat="41.614427774" lon="2.564714903">
        <ele>272.67</ele>
        <time>2014-09-21T08:11:00Z</time>
      </trkpt>
      <trkpt lat="41.614309589" lon="2.564828059">
        <ele>273.63</ele>
        <time>2014-09-21T08:11:07Z</time>
      </trkpt>
      <trkpt lat="41.614185789" lon="2.564926630">
        <ele>274.11</ele>
        <time>2014-09-21T08:11:14Z</time>
      </trkpt>
      <trkpt lat="41.614169947" lon="2.564939873">
        <ele>274.59</ele>
        <time>2014-09-21T08:11:15Z</time>
      </trkpt>
      <trkpt lat="41.614064167" lon="2.565027464">
        <ele>276.04</ele>
        <time>2014-09-21T08:11:22Z</time>
      </trkpt>
      <trkpt lat="41.614009852" lon="2.565053783">
        <ele>276.04</ele>
        <time>2014-09-21T08:11:24Z</time>
      </trkpt>
      <trkpt lat="41.613875826" lon="2.565141039">
        <ele>277.48</ele>
        <time>2014-09-21T08:11:33Z</time>
      </trkpt>
      <trkpt lat="41.613720342" lon="2.565237766">
        <ele>278.92</ele>
        <time>2014-09-21T08:11:40Z</time>
      </trkpt>
      <trkpt lat="41.613684467" lon="2.565275485">
        <ele>280.36</ele>
        <time>2014-09-21T08:11:42Z</time>
      </trkpt>
      <trkpt lat="41.613599139" lon="2.565354023">
        <ele>281.80</ele>
        <time>2014-09-21T08:11:48Z</time>
      </trkpt>
      <trkpt lat="41.613482966" lon="2.565439519">
        <ele>283.25</ele>
        <time>2014-09-21T08:11:57Z</time>
      </trkpt>
      <trkpt lat="41.613385568" lon="2.565545131">
        <ele>281.80</ele>
        <time>2014-09-21T08:12:01Z</time>
      </trkpt>
      <trkpt lat="41.613256236" lon="2.565649401">
        <ele>283.25</ele>
        <time>2014-09-21T08:12:06Z</time>
      </trkpt>
      <trkpt lat="41.613230084" lon="2.565663902">
        <ele>283.25</ele>
        <time>2014-09-21T08:12:08Z</time>
      </trkpt>
      <trkpt lat="41.613104858" lon="2.565770101">
        <ele>284.69</ele>
        <time>2014-09-21T08:12:15Z</time>
      </trkpt>
      <trkpt lat="41.613009389" lon="2.565898847">
        <ele>285.65</ele>
        <time>2014-09-21T08:12:22Z</time>
      </trkpt>
      <trkpt lat="41.612970999" lon="2.565952910">
        <ele>285.65</ele>
        <time>2014-09-21T08:12:25Z</time>
      </trkpt>
      <trkpt lat="41.612900256" lon="2.566115268">
        <ele>288.05</ele>
        <time>2014-09-21T08:12:34Z</time>
      </trkpt>
      <trkpt lat="41.612885672" lon="2.566156255">
        <ele>288.05</ele>
        <time>2014-09-21T08:12:36Z</time>
      </trkpt>
      <trkpt lat="41.612862370" lon="2.566298915">
        <ele>288.53</ele>
        <time>2014-09-21T08:12:41Z</time>
      </trkpt>
      <trkpt lat="41.612833201" lon="2.566476444">
        <ele>289.49</ele>
        <time>2014-09-21T08:12:51Z</time>
      </trkpt>
      <trkpt lat="41.612791878" lon="2.566660091">
        <ele>289.49</ele>
        <time>2014-09-21T08:12:58Z</time>
      </trkpt>
      <trkpt lat="41.612776539" lon="2.566892941">
        <ele>285.65</ele>
        <time>2014-09-21T08:13:03Z</time>
      </trkpt>
      <trkpt lat="41.612827753" lon="2.567092765">
        <ele>282.77</ele>
        <time>2014-09-21T08:13:10Z</time>
      </trkpt>
      <trkpt lat="41.612894892" lon="2.567301642">
        <ele>281.32</ele>
        <time>2014-09-21T08:13:16Z</time>
      </trkpt>
      <trkpt lat="41.612916601" lon="2.567353945">
        <ele>281.32</ele>
        <time>2014-09-21T08:13:17Z</time>
      </trkpt>
      <trkpt lat="41.612938813" lon="2.567527115">
        <ele>279.88</ele>
        <time>2014-09-21T08:13:19Z</time>
      </trkpt>
      <trkpt lat="41.612961276" lon="2.567721073">
        <ele>278.44</ele>
        <time>2014-09-21T08:13:23Z</time>
      </trkpt>
      <trkpt lat="41.612953146" lon="2.567893656">
        <ele>277.00</ele>
        <time>2014-09-21T08:13:26Z</time>
      </trkpt>
      <trkpt lat="41.612858263" lon="2.568167493">
        <ele>275.07</ele>
        <time>2014-09-21T08:13:31Z</time>
      </trkpt>
      <trkpt lat="41.612841164" lon="2.568357594">
        <ele>275.07</ele>
        <time>2014-09-21T08:13:35Z</time>
      </trkpt>
      <trkpt lat="41.612838733" lon="2.568431355">
        <ele>275.07</ele>
        <time>2014-09-21T08:13:38Z</time>
      </trkpt>
      <trkpt lat="41.612882151" lon="2.568741402">
        <ele>275.56</ele>
        <time>2014-09-21T08:13:47Z</time>
      </trkpt>
      <trkpt lat="41.612895814" lon="2.568795800">
        <ele>275.56</ele>
        <time>2014-09-21T08:13:52Z</time>
      </trkpt>
      <trkpt lat="41.612916685" lon="2.568856401">
        <ele>275.56</ele>
        <time>2014-09-21T08:14:08Z</time>
      </trkpt>
      <trkpt lat="41.613012155" lon="2.568955559">
        <ele>275.07</ele>
        <time>2014-09-21T08:14:13Z</time>
      </trkpt>
      <trkpt lat="41.613148612" lon="2.569168627">
        <ele>273.15</ele>
        <time>2014-09-21T08:14:20Z</time>
      </trkpt>
      <trkpt lat="41.613108882" lon="2.569315227">
        <ele>273.15</ele>
        <time>2014-09-21T08:14:24Z</time>
      </trkpt>
      <trkpt lat="41.612995726" lon="2.569570959">
        <ele>273.15</ele>
        <time>2014-09-21T08:14:30Z</time>
      </trkpt>
      <trkpt lat="41.612969910" lon="2.569611108">
        <ele>272.67</ele>
        <time>2014-09-21T08:14:32Z</time>
      </trkpt>
      <trkpt lat="41.612770253" lon="2.569832977">
        <ele>269.79</ele>
        <time>2014-09-21T08:14:39Z</time>
      </trkpt>
      <trkpt lat="41.612551737" lon="2.569856614">
        <ele>268.83</ele>
        <time>2014-09-21T08:14:44Z</time>
      </trkpt>
      <trkpt lat="41.612522819" lon="2.569862314">
        <ele>268.83</ele>
        <time>2014-09-21T08:14:46Z</time>
      </trkpt>
      <trkpt lat="41.612292736" lon="2.569956023">
        <ele>266.90</ele>
        <time>2014-09-21T08:14:53Z</time>
      </trkpt>
      <trkpt lat="41.612255520" lon="2.569979074">
        <ele>266.90</ele>
        <time>2014-09-21T08:14:53Z</time>
      </trkpt>
      <trkpt lat="41.612144208" lon="2.570127266">
        <ele>266.42</ele>
        <time>2014-09-21T08:14:58Z</time>
      </trkpt>
      <trkpt lat="41.612111184" lon="2.570207732">
        <ele>264.98</ele>
        <time>2014-09-21T08:15:00Z</time>
      </trkpt>
      <trkpt lat="41.612085200" lon="2.570248803">
        <ele>264.02</ele>
        <time>2014-09-21T08:15:02Z</time>
      </trkpt>
      <trkpt lat="41.612027532" lon="2.570340250">
        <ele>261.62</ele>
        <time>2014-09-21T08:15:07Z</time>
      </trkpt>
      <trkpt lat="41.611969530" lon="2.570466733">
        <ele>259.21</ele>
        <time>2014-09-21T08:15:12Z</time>
      </trkpt>
      <trkpt lat="41.611965087" lon="2.570528088">
        <ele>258.25</ele>
        <time>2014-09-21T08:15:14Z</time>
      </trkpt>
      <trkpt lat="41.611971457" lon="2.570601011">
        <ele>257.77</ele>
        <time>2014-09-21T08:15:16Z</time>
      </trkpt>
      <trkpt lat="41.612038764" lon="2.570685752">
        <ele>255.37</ele>
        <time>2014-09-21T08:15:23Z</time>
      </trkpt>
      <trkpt lat="41.612041111" lon="2.570685081">
        <ele>255.85</ele>
        <time>2014-09-21T08:15:30Z</time>
      </trkpt>
      <trkpt lat="41.612145801" lon="2.570583912">
        <ele>255.85</ele>
        <time>2014-09-21T08:15:40Z</time>
      </trkpt>
      <trkpt lat="41.612278738" lon="2.570447454">
        <ele>256.81</ele>
        <time>2014-09-21T08:15:47Z</time>
      </trkpt>
      <trkpt lat="41.612383177" lon="2.570363300">
        <ele>255.85</ele>
        <time>2014-09-21T08:15:52Z</time>
      </trkpt>
      <trkpt lat="41.612596915" lon="2.570347877">
        <ele>255.37</ele>
        <time>2014-09-21T08:15:58Z</time>
      </trkpt>
      <trkpt lat="41.612771510" lon="2.570405377">
        <ele>252.48</ele>
        <time>2014-09-21T08:16:03Z</time>
      </trkpt>
      <trkpt lat="41.612934622" lon="2.570548624">
        <ele>249.60</ele>
        <time>2014-09-21T08:16:10Z</time>
      </trkpt>
      <trkpt lat="41.612986925" lon="2.570565555">
        <ele>248.64</ele>
        <time>2014-09-21T08:16:12Z</time>
      </trkpt>
      <trkpt lat="41.613146349" lon="2.570614338">
        <ele>247.68</ele>
        <time>2014-09-21T08:16:17Z</time>
      </trkpt>
      <trkpt lat="41.613278196" lon="2.570551809">
        <ele>246.23</ele>
        <time>2014-09-21T08:16:20Z</time>
      </trkpt>
      <trkpt lat="41.613351789" lon="2.570438067">
        <ele>245.27</ele>
        <time>2014-09-21T08:16:24Z</time>
      </trkpt>
      <trkpt lat="41.613487911" lon="2.570120728">
        <ele>243.83</ele>
        <time>2014-09-21T08:16:31Z</time>
      </trkpt>
      <trkpt lat="41.613547339" lon="2.570088374">
        <ele>244.31</ele>
        <time>2014-09-21T08:16:32Z</time>
      </trkpt>
      <trkpt lat="41.613746409" lon="2.570009919">
        <ele>244.31</ele>
        <time>2014-09-21T08:16:41Z</time>
      </trkpt>
      <trkpt lat="41.613883789" lon="2.569932554">
        <ele>244.31</ele>
        <time>2014-09-21T08:16:46Z</time>
      </trkpt>
      <trkpt lat="41.614062072" lon="2.569887543">
        <ele>242.87</ele>
        <time>2014-09-21T08:16:53Z</time>
      </trkpt>
      <trkpt lat="41.614153267" lon="2.569661651">
        <ele>241.91</ele>
        <time>2014-09-21T08:16:57Z</time>
      </trkpt>
      <trkpt lat="41.614155111" lon="2.569509268">
        <ele>239.99</ele>
        <time>2014-09-21T08:16:59Z</time>
      </trkpt>
      <trkpt lat="41.614128373" lon="2.569336265">
        <ele>237.58</ele>
        <time>2014-09-21T08:17:02Z</time>
      </trkpt>
      <trkpt lat="41.614119907" lon="2.569269545">
        <ele>237.10</ele>
        <time>2014-09-21T08:17:05Z</time>
      </trkpt>
      <trkpt lat="41.614197523" lon="2.569235934">
        <ele>237.10</ele>
        <time>2014-09-21T08:17:11Z</time>
      </trkpt>
      <trkpt lat="41.614271703" lon="2.569254877">
        <ele>236.62</ele>
        <time>2014-09-21T08:17:14Z</time>
      </trkpt>
      <trkpt lat="41.614549312" lon="2.569286309">
        <ele>233.26</ele>
        <time>2014-09-21T08:17:23Z</time>
      </trkpt>
      <trkpt lat="41.614688870" lon="2.569246495">
        <ele>231.33</ele>
        <time>2014-09-21T08:17:26Z</time>
      </trkpt>
      <trkpt lat="41.614863549" lon="2.569294775">
        <ele>228.93</ele>
        <time>2014-09-21T08:17:30Z</time>
      </trkpt>
      <trkpt lat="41.615066559" lon="2.569581352">
        <ele>225.09</ele>
        <time>2014-09-21T08:17:37Z</time>
      </trkpt>
      <trkpt lat="41.615138727" lon="2.569706829">
        <ele>224.12</ele>
        <time>2014-09-21T08:17:40Z</time>
      </trkpt>
      <trkpt lat="41.615209722" lon="2.569947055">
        <ele>221.24</ele>
        <time>2014-09-21T08:17:46Z</time>
      </trkpt>
      <trkpt lat="41.615343832" lon="2.570110921">
        <ele>218.84</ele>
        <time>2014-09-21T08:17:49Z</time>
      </trkpt>
      <trkpt lat="41.615465370" lon="2.570290294">
        <ele>217.40</ele>
        <time>2014-09-21T08:17:53Z</time>
      </trkpt>
      <trkpt lat="41.615495461" lon="2.570366904">
        <ele>217.40</ele>
        <time>2014-09-21T08:17:54Z</time>
      </trkpt>
      <trkpt lat="41.615609539" lon="2.570667144">
        <ele>214.99</ele>
        <time>2014-09-21T08:17:58Z</time>
      </trkpt>
      <trkpt lat="41.615631415" lon="2.570838470">
        <ele>213.07</ele>
        <time>2014-09-21T08:18:03Z</time>
      </trkpt>
      <trkpt lat="41.615684724" lon="2.571333673">
        <ele>210.19</ele>
        <time>2014-09-21T08:18:08Z</time>
      </trkpt>
      <trkpt lat="41.615780613" lon="2.571610779">
        <ele>207.78</ele>
        <time>2014-09-21T08:18:12Z</time>
      </trkpt>
      <trkpt lat="41.615844903" lon="2.571753355">
        <ele>204.42</ele>
        <time>2014-09-21T08:18:15Z</time>
      </trkpt>
      <trkpt lat="41.615887902" lon="2.571834492">
        <ele>202.49</ele>
        <time>2014-09-21T08:18:17Z</time>
      </trkpt>
      <trkpt lat="41.615990245" lon="2.572178317">
        <ele>198.65</ele>
        <time>2014-09-21T08:18:22Z</time>
      </trkpt>
      <trkpt lat="41.616016648" lon="2.572323911">
        <ele>198.17</ele>
        <time>2014-09-21T08:18:24Z</time>
      </trkpt>
      <trkpt lat="41.616062832" lon="2.572556760">
        <ele>194.32</ele>
        <time>2014-09-21T08:18:27Z</time>
      </trkpt>
      <trkpt lat="41.616101724" lon="2.572710400">
        <ele>193.36</ele>
        <time>2014-09-21T08:18:29Z</time>
      </trkpt>
      <trkpt lat="41.616185292" lon="2.572972922">
        <ele>190.96</ele>
        <time>2014-09-21T08:18:33Z</time>
      </trkpt>
      <trkpt lat="41.616264920" lon="2.573168723">
        <ele>189.04</ele>
        <time>2014-09-21T08:18:34Z</time>
      </trkpt>
      <trkpt lat="41.616501122" lon="2.573512549">
        <ele>185.19</ele>
        <time>2014-09-21T08:18:38Z</time>
      </trkpt>
      <trkpt lat="41.616646464" lon="2.573702818">
        <ele>184.23</ele>
        <time>2014-09-21T08:18:41Z</time>
      </trkpt>
      <trkpt lat="41.616806474" lon="2.573790409">
        <ele>183.75</ele>
        <time>2014-09-21T08:18:47Z</time>
      </trkpt>
      <trkpt lat="41.616924492" lon="2.573760988">
        <ele>184.23</ele>
        <time>2014-09-21T08:18:52Z</time>
      </trkpt>
      <trkpt lat="41.617038486" lon="2.573734502">
        <ele>184.23</ele>
        <time>2014-09-21T08:18:55Z</time>
      </trkpt>
      <trkpt lat="41.617121131" lon="2.573712792">
        <ele>184.23</ele>
        <time>2014-09-21T08:18:57Z</time>
      </trkpt>
      <trkpt lat="41.617301593" lon="2.573664596">
        <ele>182.79</ele>
        <time>2014-09-21T08:19:00Z</time>
      </trkpt>
      <trkpt lat="41.617558247" lon="2.573566947">
        <ele>180.87</ele>
        <time>2014-09-21T08:19:06Z</time>
      </trkpt>
      <trkpt lat="41.617716665" lon="2.573604163">
        <ele>180.87</ele>
        <time>2014-09-21T08:19:11Z</time>
      </trkpt>
      <trkpt lat="41.617934343" lon="2.573735088">
        <ele>180.87</ele>
        <time>2014-09-21T08:19:20Z</time>
      </trkpt>
      <trkpt lat="41.618099299" lon="2.573948743">
        <ele>180.87</ele>
        <time>2014-09-21T08:19:28Z</time>
      </trkpt>
      <trkpt lat="41.618245563" lon="2.574145634">
        <ele>179.42</ele>
        <time>2014-09-21T08:19:34Z</time>
      </trkpt>
      <trkpt lat="41.618280767" lon="2.574169438">
        <ele>178.94</ele>
        <time>2014-09-21T08:19:35Z</time>
      </trkpt>
      <trkpt lat="41.618364754" lon="2.574201876">
        <ele>177.98</ele>
        <time>2014-09-21T08:19:37Z</time>
      </trkpt>
      <trkpt lat="41.618581678" lon="2.574212270">
        <ele>176.06</ele>
        <time>2014-09-21T08:19:42Z</time>
      </trkpt>
      <trkpt lat="41.618880744" lon="2.574344872">
        <ele>174.62</ele>
        <time>2014-09-21T08:19:47Z</time>
      </trkpt>
      <trkpt lat="41.619053998" lon="2.574564058">
        <ele>172.69</ele>
        <time>2014-09-21T08:19:51Z</time>
      </trkpt>
      <trkpt lat="41.619246027" lon="2.574681908">
        <ele>169.81</ele>
        <time>2014-09-21T08:19:56Z</time>
      </trkpt>
      <trkpt lat="41.619357255" lon="2.574694229">
        <ele>167.89</ele>
        <time>2014-09-21T08:19:58Z</time>
      </trkpt>
      <trkpt lat="41.619457168" lon="2.574735552">
        <ele>167.41</ele>
        <time>2014-09-21T08:20:00Z</time>
      </trkpt>
      <trkpt lat="41.619742068" lon="2.574786514">
        <ele>163.56</ele>
        <time>2014-09-21T08:20:05Z</time>
      </trkpt>
      <trkpt lat="41.619790767" lon="2.574797159">
        <ele>163.56</ele>
        <time>2014-09-21T08:20:07Z</time>
      </trkpt>
      <trkpt lat="41.619980366" lon="2.574915763">
        <ele>162.12</ele>
        <time>2014-09-21T08:20:10Z</time>
      </trkpt>
      <trkpt lat="41.620154877" lon="2.575096477">
        <ele>160.68</ele>
        <time>2014-09-21T08:20:15Z</time>
      </trkpt>
      <trkpt lat="41.620356546" lon="2.575219356">
        <ele>158.27</ele>
        <time>2014-09-21T08:20:19Z</time>
      </trkpt>
      <trkpt lat="41.620482945" lon="2.575336618">
        <ele>157.31</ele>
        <time>2014-09-21T08:20:22Z</time>
      </trkpt>
      <trkpt lat="41.620662904" lon="2.575354640">
        <ele>155.39</ele>
        <time>2014-09-21T08:20:26Z</time>
      </trkpt>
      <trkpt lat="41.620702886" lon="2.575304683">
        <ele>154.43</ele>
        <time>2014-09-21T08:20:28Z</time>
      </trkpt>
      <trkpt lat="41.620773462" lon="2.575199071">
        <ele>152.51</ele>
        <time>2014-09-21T08:20:29Z</time>
      </trkpt>
      <trkpt lat="41.620845881" lon="2.575101171">
        <ele>151.54</ele>
        <time>2014-09-21T08:20:31Z</time>
      </trkpt>
      <trkpt lat="41.620969514" lon="2.574963372">
        <ele>150.58</ele>
        <time>2014-09-21T08:20:35Z</time>
      </trkpt>
      <trkpt lat="41.621235807" lon="2.574820545">
        <ele>146.74</ele>
        <time>2014-09-21T08:20:40Z</time>
      </trkpt>
      <trkpt lat="41.621287188" lon="2.574801015">
        <ele>145.78</ele>
        <time>2014-09-21T08:20:42Z</time>
      </trkpt>
      <trkpt lat="41.621436219" lon="2.574569339">
        <ele>141.93</ele>
        <time>2014-09-21T08:20:47Z</time>
      </trkpt>
      <trkpt lat="41.621372013" lon="2.574415196">
        <ele>140.49</ele>
        <time>2014-09-21T08:20:50Z</time>
      </trkpt>
      <trkpt lat="41.621226503" lon="2.574261807">
        <ele>139.53</ele>
        <time>2014-09-21T08:20:52Z</time>
      </trkpt>
      <trkpt lat="41.621023997" lon="2.574101210">
        <ele>137.61</ele>
        <time>2014-09-21T08:20:57Z</time>
      </trkpt>
      <trkpt lat="41.620962054" lon="2.573956454">
        <ele>136.16</ele>
        <time>2014-09-21T08:21:02Z</time>
      </trkpt>
      <trkpt lat="41.621030870" lon="2.573936254">
        <ele>135.20</ele>
        <time>2014-09-21T08:21:06Z</time>
      </trkpt>
      <trkpt lat="41.621236813" lon="2.573969782">
        <ele>133.28</ele>
        <time>2014-09-21T08:21:13Z</time>
      </trkpt>
      <trkpt lat="41.621363212" lon="2.573992999">
        <ele>132.32</ele>
        <time>2014-09-21T08:21:20Z</time>
      </trkpt>
      <trkpt lat="41.621566557" lon="2.574039938">
        <ele>129.92</ele>
        <time>2014-09-21T08:21:27Z</time>
      </trkpt>
      <trkpt lat="41.621767555" lon="2.574070281">
        <ele>126.55</ele>
        <time>2014-09-21T08:21:34Z</time>
      </trkpt>
      <trkpt lat="41.621891943" lon="2.574136414">
        <ele>124.63</ele>
        <time>2014-09-21T08:21:37Z</time>
      </trkpt>
      <trkpt lat="41.621977773" lon="2.574045051">
        <ele>122.22</ele>
        <time>2014-09-21T08:21:42Z</time>
      </trkpt>
      <trkpt lat="41.621960926" lon="2.573980678">
        <ele>121.74</ele>
        <time>2014-09-21T08:21:46Z</time>
      </trkpt>
      <trkpt lat="41.621828324" lon="2.573864421">
        <ele>117.90</ele>
        <time>2014-09-21T08:21:53Z</time>
      </trkpt>
      <trkpt lat="41.621754899" lon="2.573761156">
        <ele>115.01</ele>
        <time>2014-09-21T08:21:58Z</time>
      </trkpt>
      <trkpt lat="41.621730591" lon="2.573707596">
        <ele>114.05</ele>
        <time>2014-09-21T08:22:00Z</time>
      </trkpt>
      <trkpt lat="41.621701506" lon="2.573645150">
        <ele>113.57</ele>
        <time>2014-09-21T08:22:03Z</time>
      </trkpt>
      <trkpt lat="41.621721455" lon="2.573621933">
        <ele>113.57</ele>
        <time>2014-09-21T08:22:07Z</time>
      </trkpt>
      <trkpt lat="41.621746936" lon="2.573626291">
        <ele>113.57</ele>
        <time>2014-09-21T08:22:17Z</time>
      </trkpt>
      <trkpt lat="41.621869228" lon="2.573710613">
        <ele>113.09</ele>
        <time>2014-09-21T08:22:24Z</time>
      </trkpt>
      <trkpt lat="41.622087493" lon="2.573880430">
        <ele>112.61</ele>
        <time>2014-09-21T08:22:33Z</time>
      </trkpt>
      <trkpt lat="41.622249599" lon="2.574206654">
        <ele>112.61</ele>
        <time>2014-09-21T08:22:42Z</time>
      </trkpt>
      <trkpt lat="41.622285976" lon="2.574576128">
        <ele>112.13</ele>
        <time>2014-09-21T08:22:49Z</time>
      </trkpt>
      <trkpt lat="41.622205258" lon="2.574811241">
        <ele>111.65</ele>
        <time>2014-09-21T08:22:54Z</time>
      </trkpt>
      <trkpt lat="41.621823546" lon="2.575282890">
        <ele>110.69</ele>
        <time>2014-09-21T08:23:06Z</time>
      </trkpt>
      <trkpt lat="41.621551470" lon="2.575614395">
        <ele>110.21</ele>
        <time>2014-09-21T08:23:15Z</time>
      </trkpt>
      <trkpt lat="41.621463376" lon="2.575972218">
        <ele>109.25</ele>
        <time>2014-09-21T08:23:20Z</time>
      </trkpt>
      <trkpt lat="41.621465052" lon="2.576046314">
        <ele>108.77</ele>
        <time>2014-09-21T08:23:22Z</time>
      </trkpt>
      <trkpt lat="41.621518361" lon="2.576725332">
        <ele>106.36</ele>
        <time>2014-09-21T08:23:29Z</time>
      </trkpt>
      <trkpt lat="41.621688849" lon="2.577098243">
        <ele>104.92</ele>
        <time>2014-09-21T08:23:34Z</time>
      </trkpt>
      <trkpt lat="41.621778536" lon="2.577205951">
        <ele>103.96</ele>
        <time>2014-09-21T08:23:36Z</time>
      </trkpt>
      <trkpt lat="41.621818601" lon="2.577263115">
        <ele>103.48</ele>
        <time>2014-09-21T08:23:37Z</time>
      </trkpt>
      <trkpt lat="41.621904935" lon="2.577393370">
        <ele>103.00</ele>
        <time>2014-09-21T08:23:39Z</time>
      </trkpt>
      <trkpt lat="41.622005266" lon="2.577612557">
        <ele>102.52</ele>
        <time>2014-09-21T08:23:43Z</time>
      </trkpt>
      <trkpt lat="41.622078524" lon="2.577988904">
        <ele>101.56</ele>
        <time>2014-09-21T08:23:48Z</time>
      </trkpt>
      <trkpt lat="41.622056312" lon="2.578659205">
        <ele>100.60</ele>
        <time>2014-09-21T08:23:57Z</time>
      </trkpt>
      <trkpt lat="41.621997722" lon="2.579160443">
        <ele>100.11</ele>
        <time>2014-09-21T08:24:04Z</time>
      </trkpt>
      <trkpt lat="41.621977019" lon="2.579304695">
        <ele>99.63</ele>
        <time>2014-09-21T08:24:05Z</time>
      </trkpt>
      <trkpt lat="41.621795970" lon="2.579657070">
        <ele>99.15</ele>
        <time>2014-09-21T08:24:12Z</time>
      </trkpt>
      <trkpt lat="41.621647694" lon="2.579776093">
        <ele>98.67</ele>
        <time>2014-09-21T08:24:14Z</time>
      </trkpt>
      <trkpt lat="41.621299929" lon="2.579954544">
        <ele>97.71</ele>
        <time>2014-09-21T08:24:21Z</time>
      </trkpt>
      <trkpt lat="41.621083760" lon="2.580234584">
        <ele>96.75</ele>
        <time>2014-09-21T08:24:26Z</time>
      </trkpt>
      <trkpt lat="41.621052244" lon="2.580505403">
        <ele>96.27</ele>
        <time>2014-09-21T08:24:28Z</time>
      </trkpt>
      <trkpt lat="41.621154168" lon="2.581213925">
        <ele>94.83</ele>
        <time>2014-09-21T08:24:37Z</time>
      </trkpt>
      <trkpt lat="41.621238490" lon="2.581549704">
        <ele>94.35</ele>
        <time>2014-09-21T08:24:42Z</time>
      </trkpt>
      <trkpt lat="41.621302527" lon="2.581712229">
        <ele>93.87</ele>
        <time>2014-09-21T08:24:44Z</time>
      </trkpt>
      <trkpt lat="41.621698991" lon="2.582286893">
        <ele>92.42</ele>
        <time>2014-09-21T08:24:52Z</time>
      </trkpt>
      <trkpt lat="41.621902755" lon="2.582493087">
        <ele>91.94</ele>
        <time>2014-09-21T08:24:56Z</time>
      </trkpt>
      <trkpt lat="41.622296705" lon="2.582730211">
        <ele>90.98</ele>
        <time>2014-09-21T08:25:03Z</time>
      </trkpt>
      <trkpt lat="41.622347415" lon="2.582764242">
        <ele>90.98</ele>
        <time>2014-09-21T08:25:05Z</time>
      </trkpt>
      <trkpt lat="41.622689229" lon="2.583203789">
        <ele>89.06</ele>
        <time>2014-09-21T08:25:12Z</time>
      </trkpt>
      <trkpt lat="41.622737761" lon="2.583655406">
        <ele>87.62</ele>
        <time>2014-09-21T08:25:17Z</time>
      </trkpt>
      <trkpt lat="41.622579007" lon="2.583884986">
        <ele>86.66</ele>
        <time>2014-09-21T08:25:20Z</time>
      </trkpt>
      <trkpt lat="41.622429893" lon="2.583960172">
        <ele>86.66</ele>
        <time>2014-09-21T08:25:22Z</time>
      </trkpt>
      <trkpt lat="41.621810219" lon="2.584117165">
        <ele>85.69</ele>
        <time>2014-09-21T08:25:31Z</time>
      </trkpt>
      <trkpt lat="41.621604024" lon="2.584301986">
        <ele>85.69</ele>
        <time>2014-09-21T08:25:36Z</time>
      </trkpt>
      <trkpt lat="41.621540070" lon="2.584474569">
        <ele>85.21</ele>
        <time>2014-09-21T08:25:39Z</time>
      </trkpt>
      <trkpt lat="41.621610646" lon="2.584637178">
        <ele>84.25</ele>
        <time>2014-09-21T08:25:46Z</time>
      </trkpt>
      <trkpt lat="41.621611317" lon="2.584632987">
        <ele>84.25</ele>
        <time>2014-09-21T08:25:55Z</time>
      </trkpt>
      <trkpt lat="41.621617016" lon="2.584638603">
        <ele>84.25</ele>
        <time>2014-09-21T08:26:04Z</time>
      </trkpt>
      <trkpt lat="41.621624225" lon="2.584666683">
        <ele>84.25</ele>
        <time>2014-09-21T08:26:11Z</time>
      </trkpt>
      <trkpt lat="41.621597235" lon="2.584720746">
        <ele>84.25</ele>
        <time>2014-09-21T08:26:18Z</time>
      </trkpt>
      <trkpt lat="41.621548285" lon="2.584755615">
        <ele>83.77</ele>
        <time>2014-09-21T08:26:26Z</time>
      </trkpt>
      <trkpt lat="41.621524648" lon="2.584782353">
        <ele>83.77</ele>
        <time>2014-09-21T08:26:35Z</time>
      </trkpt>
      <trkpt lat="41.621407888" lon="2.584963737">
        <ele>82.81</ele>
        <time>2014-09-21T08:26:44Z</time>
      </trkpt>
      <trkpt lat="41.621377629" lon="2.584995253">
        <ele>82.81</ele>
        <time>2014-09-21T08:26:47Z</time>
      </trkpt>
      <trkpt lat="41.621269084" lon="2.585140092">
        <ele>82.81</ele>
        <time>2014-09-21T08:26:54Z</time>
      </trkpt>
      <trkpt lat="41.621129860" lon="2.585324243">
        <ele>82.81</ele>
        <time>2014-09-21T08:27:01Z</time>
      </trkpt>
      <trkpt lat="41.620955768" lon="2.585556422">
        <ele>81.85</ele>
        <time>2014-09-21T08:27:08Z</time>
      </trkpt>
      <trkpt lat="41.620846803" lon="2.585724311">
        <ele>81.85</ele>
        <time>2014-09-21T08:27:15Z</time>
      </trkpt>
      <trkpt lat="41.620694253" lon="2.585949030">
        <ele>81.85</ele>
        <time>2014-09-21T08:27:22Z</time>
      </trkpt>
      <trkpt lat="41.620635998" lon="2.586064365">
        <ele>81.85</ele>
        <time>2014-09-21T08:27:29Z</time>
      </trkpt>
      <trkpt lat="41.620501469" lon="2.586228985">
        <ele>81.85</ele>
        <time>2014-09-21T08:27:36Z</time>
      </trkpt>
      <trkpt lat="41.620377500" lon="2.586393019">
        <ele>80.41</ele>
        <time>2014-09-21T08:27:43Z</time>
      </trkpt>
      <trkpt lat="41.620333998" lon="2.586468792">
        <ele>81.85</ele>
        <time>2014-09-21T08:27:48Z</time>
      </trkpt>
      <trkpt lat="41.620283707" lon="2.586608266">
        <ele>83.29</ele>
        <time>2014-09-21T08:27:57Z</time>
      </trkpt>
      <trkpt lat="41.620272224" lon="2.586709352">
        <ele>84.73</ele>
        <time>2014-09-21T08:28:04Z</time>
      </trkpt>
      <trkpt lat="41.620311283" lon="2.586800212">
        <ele>86.18</ele>
        <time>2014-09-21T08:28:09Z</time>
      </trkpt>
      <trkpt lat="41.620363838" lon="2.586911105">
        <ele>87.62</ele>
        <time>2014-09-21T08:28:18Z</time>
      </trkpt>
      <trkpt lat="41.620428546" lon="2.586985201">
        <ele>89.54</ele>
        <time>2014-09-21T08:28:25Z</time>
      </trkpt>
      <trkpt lat="41.620497446" lon="2.587079329">
        <ele>90.98</ele>
        <time>2014-09-21T08:28:34Z</time>
      </trkpt>
      <trkpt lat="41.620561316" lon="2.587161137">
        <ele>92.42</ele>
        <time>2014-09-21T08:28:41Z</time>
      </trkpt>
      <trkpt lat="41.620619402" lon="2.587138925">
        <ele>93.87</ele>
        <time>2014-09-21T08:28:46Z</time>
      </trkpt>
      <trkpt lat="41.620611272" lon="2.587065248">
        <ele>95.31</ele>
        <time>2014-09-21T08:28:54Z</time>
      </trkpt>
      <trkpt lat="41.620583444" lon="2.586985033">
        <ele>97.23</ele>
        <time>2014-09-21T08:29:03Z</time>
      </trkpt>
      <trkpt lat="41.620574727" lon="2.586861819">
        <ele>98.67</ele>
        <time>2014-09-21T08:29:12Z</time>
      </trkpt>
      <trkpt lat="41.620599118" lon="2.586790824">
        <ele>100.60</ele>
        <time>2014-09-21T08:29:19Z</time>
      </trkpt>
      <trkpt lat="41.620635915" lon="2.586770624">
        <ele>101.56</ele>
        <time>2014-09-21T08:29:26Z</time>
      </trkpt>
      <trkpt lat="41.620713531" lon="2.586718572">
        <ele>103.96</ele>
        <time>2014-09-21T08:29:36Z</time>
      </trkpt>
      <trkpt lat="41.620790393" lon="2.586682530">
        <ele>105.88</ele>
        <time>2014-09-21T08:29:43Z</time>
      </trkpt>
      <trkpt lat="41.620801373" lon="2.586675992">
        <ele>105.88</ele>
        <time>2014-09-21T08:29:43Z</time>
      </trkpt>
      <trkpt lat="41.620913356" lon="2.586587731">
        <ele>108.77</ele>
        <time>2014-09-21T08:29:54Z</time>
      </trkpt>
      <trkpt lat="41.621004551" lon="2.586525370">
        <ele>110.21</ele>
        <time>2014-09-21T08:30:02Z</time>
      </trkpt>
      <trkpt lat="41.621088705" lon="2.586479353">
        <ele>112.13</ele>
        <time>2014-09-21T08:30:11Z</time>
      </trkpt>
      <trkpt lat="41.621152659" lon="2.586434845">
        <ele>114.05</ele>
        <time>2014-09-21T08:30:20Z</time>
      </trkpt>
      <trkpt lat="41.621231868" lon="2.586357815">
        <ele>115.98</ele>
        <time>2014-09-21T08:30:30Z</time>
      </trkpt>
      <trkpt lat="41.621303449" lon="2.586298639">
        <ele>117.42</ele>
        <time>2014-09-21T08:30:37Z</time>
      </trkpt>
      <trkpt lat="41.621384335" lon="2.586240804">
        <ele>119.82</ele>
        <time>2014-09-21T08:30:46Z</time>
      </trkpt>
      <trkpt lat="41.621402523" lon="2.586227058">
        <ele>119.34</ele>
        <time>2014-09-21T08:30:48Z</time>
      </trkpt>
      <trkpt lat="41.621475949" lon="2.586148352">
        <ele>120.30</ele>
        <time>2014-09-21T08:30:55Z</time>
      </trkpt>
      <trkpt lat="41.621509309" lon="2.586111555">
        <ele>120.78</ele>
        <time>2014-09-21T08:31:00Z</time>
      </trkpt>
      <trkpt lat="41.621597403" lon="2.586038297">
        <ele>123.19</ele>
        <time>2014-09-21T08:31:10Z</time>
      </trkpt>
      <trkpt lat="41.621677785" lon="2.586008793">
        <ele>124.63</ele>
        <time>2014-09-21T08:31:19Z</time>
      </trkpt>
      <trkpt lat="41.621757665" lon="2.586013906">
        <ele>125.59</ele>
        <time>2014-09-21T08:31:28Z</time>
      </trkpt>
      <trkpt lat="41.621761939" lon="2.586023377">
        <ele>125.59</ele>
        <time>2014-09-21T08:31:28Z</time>
      </trkpt>
      <trkpt lat="41.621712654" lon="2.586077022">
        <ele>126.07</ele>
        <time>2014-09-21T08:31:36Z</time>
      </trkpt>
      <trkpt lat="41.621686167" lon="2.586089092">
        <ele>126.07</ele>
        <time>2014-09-21T08:31:40Z</time>
      </trkpt>
      <trkpt lat="41.621627410" lon="2.586122619">
        <ele>126.55</ele>
        <time>2014-09-21T08:31:47Z</time>
      </trkpt>
      <trkpt lat="41.621577202" lon="2.586214904">
        <ele>127.03</ele>
        <time>2014-09-21T08:31:56Z</time>
      </trkpt>
      <trkpt lat="41.621520038" lon="2.586314984">
        <ele>127.03</ele>
        <time>2014-09-21T08:32:04Z</time>
      </trkpt>
      <trkpt lat="41.621442170" lon="2.586474491">
        <ele>127.99</ele>
        <time>2014-09-21T08:32:15Z</time>
      </trkpt>
      <trkpt lat="41.621379641" lon="2.586591168">
        <ele>128.47</ele>
        <time>2014-09-21T08:32:25Z</time>
      </trkpt>
      <trkpt lat="41.621338486" lon="2.586668281">
        <ele>129.43</ele>
        <time>2014-09-21T08:32:32Z</time>
      </trkpt>
      <trkpt lat="41.621291212" lon="2.586748496">
        <ele>130.40</ele>
        <time>2014-09-21T08:32:39Z</time>
      </trkpt>
      <trkpt lat="41.621283249" lon="2.586885121">
        <ele>132.32</ele>
        <time>2014-09-21T08:32:50Z</time>
      </trkpt>
      <trkpt lat="41.621324153" lon="2.586978663">
        <ele>132.80</ele>
        <time>2014-09-21T08:32:58Z</time>
      </trkpt>
      <trkpt lat="41.621335049" lon="2.587003138">
        <ele>133.28</ele>
        <time>2014-09-21T08:33:00Z</time>
      </trkpt>
      <trkpt lat="41.621386933" lon="2.587071031">
        <ele>134.24</ele>
        <time>2014-09-21T08:33:07Z</time>
      </trkpt>
      <trkpt lat="41.621451306" lon="2.587171782">
        <ele>136.16</ele>
        <time>2014-09-21T08:33:14Z</time>
      </trkpt>
      <trkpt lat="41.621544681" lon="2.587306731">
        <ele>137.13</ele>
        <time>2014-09-21T08:33:24Z</time>
      </trkpt>
      <trkpt lat="41.621626991" lon="2.587399099">
        <ele>138.09</ele>
        <time>2014-09-21T08:33:33Z</time>
      </trkpt>
      <trkpt lat="41.621734447" lon="2.587453917">
        <ele>139.53</ele>
        <time>2014-09-21T08:33:44Z</time>
      </trkpt>
      <trkpt lat="41.621790522" lon="2.587498089">
        <ele>140.01</ele>
        <time>2014-09-21T08:33:49Z</time>
      </trkpt>
      <trkpt lat="41.621895547" lon="2.587630775">
        <ele>140.97</ele>
        <time>2014-09-21T08:34:01Z</time>
      </trkpt>
      <trkpt lat="41.621951454" lon="2.587719791">
        <ele>142.41</ele>
        <time>2014-09-21T08:34:08Z</time>
      </trkpt>
      <trkpt lat="41.622030412" lon="2.587842586">
        <ele>143.85</ele>
        <time>2014-09-21T08:34:18Z</time>
      </trkpt>
      <trkpt lat="41.622099479" lon="2.587939397">
        <ele>145.30</ele>
        <time>2014-09-21T08:34:27Z</time>
      </trkpt>
      <trkpt lat="41.622167875" lon="2.588012906">
        <ele>145.78</ele>
        <time>2014-09-21T08:34:34Z</time>
      </trkpt>
      <trkpt lat="41.622234344" lon="2.588108711">
        <ele>146.26</ele>
        <time>2014-09-21T08:34:43Z</time>
      </trkpt>
      <trkpt lat="41.622239876" lon="2.588137880">
        <ele>146.26</ele>
        <time>2014-09-21T08:34:45Z</time>
      </trkpt>
      <trkpt lat="41.622264770" lon="2.588322282">
        <ele>147.70</ele>
        <time>2014-09-21T08:34:57Z</time>
      </trkpt>
      <trkpt lat="41.622259322" lon="2.588377770">
        <ele>148.18</ele>
        <time>2014-09-21T08:35:00Z</time>
      </trkpt>
      <trkpt lat="41.622225878" lon="2.588489082">
        <ele>149.62</ele>
        <time>2014-09-21T08:35:09Z</time>
      </trkpt>
      <trkpt lat="41.622178604" lon="2.588587066">
        <ele>151.54</ele>
        <time>2014-09-21T08:35:18Z</time>
      </trkpt>
      <trkpt lat="41.622154967" lon="2.588693516">
        <ele>152.51</ele>
        <time>2014-09-21T08:35:25Z</time>
      </trkpt>
      <trkpt lat="41.622135521" lon="2.588813964">
        <ele>153.47</ele>
        <time>2014-09-21T08:35:35Z</time>
      </trkpt>
      <trkpt lat="41.622148848" lon="2.588844391">
        <ele>153.47</ele>
        <time>2014-09-21T08:35:37Z</time>
      </trkpt>
      <trkpt lat="41.622182040" lon="2.588862412">
        <ele>154.43</ele>
        <time>2014-09-21T08:35:40Z</time>
      </trkpt>
      <trkpt lat="41.622276421" lon="2.588822262">
        <ele>155.87</ele>
        <time>2014-09-21T08:35:49Z</time>
      </trkpt>
      <trkpt lat="41.622324700" lon="2.588765685">
        <ele>157.31</ele>
        <time>2014-09-21T08:35:56Z</time>
      </trkpt>
      <trkpt lat="41.622419919" lon="2.588748502">
        <ele>158.75</ele>
        <time>2014-09-21T08:36:05Z</time>
      </trkpt>
      <trkpt lat="41.622517065" lon="2.588793932">
        <ele>159.72</ele>
        <time>2014-09-21T08:36:13Z</time>
      </trkpt>
      <trkpt lat="41.622622342" lon="2.588793932">
        <ele>160.68</ele>
        <time>2014-09-21T08:36:22Z</time>
      </trkpt>
      <trkpt lat="41.622718985" lon="2.588828717">
        <ele>161.64</ele>
        <time>2014-09-21T08:36:31Z</time>
      </trkpt>
      <trkpt lat="41.622834907" lon="2.588909937">
        <ele>162.60</ele>
        <time>2014-09-21T08:36:40Z</time>
      </trkpt>
      <trkpt lat="41.622952840" lon="2.588962073">
        <ele>164.04</ele>
        <time>2014-09-21T08:36:48Z</time>
      </trkpt>
      <trkpt lat="41.623060883" lon="2.589025188">
        <ele>165.96</ele>
        <time>2014-09-21T08:36:59Z</time>
      </trkpt>
      <trkpt lat="41.623170602" lon="2.589030553">
        <ele>166.93</ele>
        <time>2014-09-21T08:37:06Z</time>
      </trkpt>
      <trkpt lat="41.623269089" lon="2.588981435">
        <ele>165.00</ele>
        <time>2014-09-21T08:37:11Z</time>
      </trkpt>
      <trkpt lat="41.623392974" lon="2.588917146">
        <ele>162.60</ele>
        <time>2014-09-21T08:37:16Z</time>
      </trkpt>
      <trkpt lat="41.623566479" lon="2.588803738">
        <ele>159.72</ele>
        <time>2014-09-21T08:37:20Z</time>
      </trkpt>
      <trkpt lat="41.623693884" lon="2.588728637">
        <ele>157.79</ele>
        <time>2014-09-21T08:37:23Z</time>
      </trkpt>
      <trkpt lat="41.623945090" lon="2.588592850">
        <ele>154.91</ele>
        <time>2014-09-21T08:37:28Z</time>
      </trkpt>
      <trkpt lat="41.624181376" lon="2.588419931">
        <ele>150.58</ele>
        <time>2014-09-21T08:37:35Z</time>
      </trkpt>
      <trkpt lat="41.624286988" lon="2.588382464">
        <ele>151.06</ele>
        <time>2014-09-21T08:37:41Z</time>
      </trkpt>
      <trkpt lat="41.624427217" lon="2.588399479">
        <ele>151.06</ele>
        <time>2014-09-21T08:37:49Z</time>
      </trkpt>
      <trkpt lat="41.624546827" lon="2.588428732">
        <ele>152.99</ele>
        <time>2014-09-21T08:37:56Z</time>
      </trkpt>
      <trkpt lat="41.624677333" lon="2.588475922">
        <ele>155.39</ele>
        <time>2014-09-21T08:38:07Z</time>
      </trkpt>
      <trkpt lat="41.624760901" lon="2.588493021">
        <ele>156.83</ele>
        <time>2014-09-21T08:38:14Z</time>
      </trkpt>
      <trkpt lat="41.624887048" lon="2.588539038">
        <ele>159.24</ele>
        <time>2014-09-21T08:38:24Z</time>
      </trkpt>
      <trkpt lat="41.624957456" lon="2.588550270">
        <ele>160.20</ele>
        <time>2014-09-21T08:38:29Z</time>
      </trkpt>
      <trkpt lat="41.625095674" lon="2.588590168">
        <ele>161.16</ele>
        <time>2014-09-21T08:38:36Z</time>
      </trkpt>
      <trkpt lat="41.625276471" lon="2.588628557">
        <ele>162.60</ele>
        <time>2014-09-21T08:38:45Z</time>
      </trkpt>
      <trkpt lat="41.625389795" lon="2.588649260">
        <ele>163.56</ele>
        <time>2014-09-21T08:38:54Z</time>
      </trkpt>
      <trkpt lat="41.625537065" lon="2.588662336">
        <ele>164.52</ele>
        <time>2014-09-21T08:39:02Z</time>
      </trkpt>
      <trkpt lat="41.625679641" lon="2.588680105">
        <ele>165.48</ele>
        <time>2014-09-21T08:39:11Z</time>
      </trkpt>
      <trkpt lat="41.625831856" lon="2.588687314">
        <ele>165.96</ele>
        <time>2014-09-21T08:39:20Z</time>
      </trkpt>
      <trkpt lat="41.625966134" lon="2.588677256">
        <ele>166.93</ele>
        <time>2014-09-21T08:39:27Z</time>
      </trkpt>
      <trkpt lat="41.626063281" lon="2.588667365">
        <ele>167.41</ele>
        <time>2014-09-21T08:39:34Z</time>
      </trkpt>
      <trkpt lat="41.626199151" lon="2.588616822">
        <ele>168.37</ele>
        <time>2014-09-21T08:39:42Z</time>
      </trkpt>
      <trkpt lat="41.626335609" lon="2.588508360">
        <ele>169.81</ele>
        <time>2014-09-21T08:39:53Z</time>
      </trkpt>
      <trkpt lat="41.626472485" lon="2.588448346">
        <ele>172.69</ele>
        <time>2014-09-21T08:40:03Z</time>
      </trkpt>
      <trkpt lat="41.626593520" lon="2.588416830">
        <ele>175.10</ele>
        <time>2014-09-21T08:40:12Z</time>
      </trkpt>
      <trkpt lat="41.626668538" lon="2.588314235">
        <ele>176.06</ele>
        <time>2014-09-21T08:40:21Z</time>
      </trkpt>
      <trkpt lat="41.626714555" lon="2.588241900">
        <ele>177.02</ele>
        <time>2014-09-21T08:40:26Z</time>
      </trkpt>
      <trkpt lat="41.626756380" lon="2.588210216">
        <ele>177.02</ele>
        <time>2014-09-21T08:40:31Z</time>
      </trkpt>
      <trkpt lat="41.626863250" lon="2.588131761">
        <ele>177.98</ele>
        <time>2014-09-21T08:40:40Z</time>
      </trkpt>
      <trkpt lat="41.626943381" lon="2.588063449">
        <ele>178.94</ele>
        <time>2014-09-21T08:40:47Z</time>
      </trkpt>
      <trkpt lat="41.627041868" lon="2.587902600">
        <ele>181.83</ele>
        <time>2014-09-21T08:40:59Z</time>
      </trkpt>
      <trkpt lat="41.627050585" lon="2.587875443">
        <ele>182.31</ele>
        <time>2014-09-21T08:41:01Z</time>
      </trkpt>
      <trkpt lat="41.627088052" lon="2.587790115">
        <ele>183.27</ele>
        <time>2014-09-21T08:41:08Z</time>
      </trkpt>
      <trkpt lat="41.627161226" lon="2.587620549">
        <ele>185.67</ele>
        <time>2014-09-21T08:41:20Z</time>
      </trkpt>
      <trkpt lat="41.627201627" lon="2.587498592">
        <ele>187.59</ele>
        <time>2014-09-21T08:41:29Z</time>
      </trkpt>
      <trkpt lat="41.627254768" lon="2.587393148">
        <ele>189.52</ele>
        <time>2014-09-21T08:41:37Z</time>
      </trkpt>
      <trkpt lat="41.627299444" lon="2.587299941">
        <ele>191.92</ele>
        <time>2014-09-21T08:41:46Z</time>
      </trkpt>
      <trkpt lat="41.627317633" lon="2.587168932">
        <ele>194.32</ele>
        <time>2014-09-21T08:41:55Z</time>
      </trkpt>
      <trkpt lat="41.627324338" lon="2.587061728">
        <ele>195.77</ele>
        <time>2014-09-21T08:42:04Z</time>
      </trkpt>
      <trkpt lat="41.627339342" lon="2.587027529">
        <ele>196.25</ele>
        <time>2014-09-21T08:42:07Z</time>
      </trkpt>
      <trkpt lat="41.627409917" lon="2.586906830">
        <ele>197.69</ele>
        <time>2014-09-21T08:42:16Z</time>
      </trkpt>
      <trkpt lat="41.627465489" lon="2.586831309">
        <ele>198.65</ele>
        <time>2014-09-21T08:42:24Z</time>
      </trkpt>
      <trkpt lat="41.627505890" lon="2.586787556">
        <ele>199.61</ele>
        <time>2014-09-21T08:42:30Z</time>
      </trkpt>
      <trkpt lat="41.627588536" lon="2.586698875">
        <ele>201.53</ele>
        <time>2014-09-21T08:42:40Z</time>
      </trkpt>
      <trkpt lat="41.627685514" lon="2.586612458">
        <ele>202.98</ele>
        <time>2014-09-21T08:42:49Z</time>
      </trkpt>
      <trkpt lat="41.627754330" lon="2.586565351">
        <ele>204.90</ele>
        <time>2014-09-21T08:42:56Z</time>
      </trkpt>
      <trkpt lat="41.627817445" lon="2.586509360">
        <ele>205.86</ele>
        <time>2014-09-21T08:43:03Z</time>
      </trkpt>
      <trkpt lat="41.627910485" lon="2.586453034">
        <ele>207.78</ele>
        <time>2014-09-21T08:43:13Z</time>
      </trkpt>
      <trkpt lat="41.628017102" lon="2.586409783">
        <ele>209.22</ele>
        <time>2014-09-21T08:43:24Z</time>
      </trkpt>
      <trkpt lat="41.628114751" lon="2.586413723">
        <ele>211.63</ele>
        <time>2014-09-21T08:43:32Z</time>
      </trkpt>
      <trkpt lat="41.628211227" lon="2.586416908">
        <ele>213.07</ele>
        <time>2014-09-21T08:43:41Z</time>
      </trkpt>
      <trkpt lat="41.628286161" lon="2.586416153">
        <ele>214.99</ele>
        <time>2014-09-21T08:43:50Z</time>
      </trkpt>
      <trkpt lat="41.628383811" lon="2.586407352">
        <ele>216.91</ele>
        <time>2014-09-21T08:43:59Z</time>
      </trkpt>
      <trkpt lat="41.628499481" lon="2.586379776">
        <ele>216.91</ele>
        <time>2014-09-21T08:44:07Z</time>
      </trkpt>
      <trkpt lat="41.628605763" lon="2.586327221">
        <ele>217.40</ele>
        <time>2014-09-21T08:44:16Z</time>
      </trkpt>
      <trkpt lat="41.628725122" lon="2.586255891">
        <ele>217.88</ele>
        <time>2014-09-21T08:44:25Z</time>
      </trkpt>
      <trkpt lat="41.628831656" lon="2.586190429">
        <ele>218.36</ele>
        <time>2014-09-21T08:44:32Z</time>
      </trkpt>
      <trkpt lat="41.628971298" lon="2.586075513">
        <ele>218.36</ele>
        <time>2014-09-21T08:44:40Z</time>
      </trkpt>
      <trkpt lat="41.629113204" lon="2.585985826">
        <ele>219.80</ele>
        <time>2014-09-21T08:44:47Z</time>
      </trkpt>
      <trkpt lat="41.629214960" lon="2.585928746">
        <ele>220.28</ele>
        <time>2014-09-21T08:44:54Z</time>
      </trkpt>
      <trkpt lat="41.629356447" lon="2.585854817">
        <ele>220.76</ele>
        <time>2014-09-21T08:45:01Z</time>
      </trkpt>
      <trkpt lat="41.629526348" lon="2.585786924">
        <ele>221.72</ele>
        <time>2014-09-21T08:45:10Z</time>
      </trkpt>
      <trkpt lat="41.629662386" lon="2.585761359">
        <ele>221.72</ele>
        <time>2014-09-21T08:45:17Z</time>
      </trkpt>
      <trkpt lat="41.629836562" lon="2.585746188">
        <ele>222.68</ele>
        <time>2014-09-21T08:45:26Z</time>
      </trkpt>
      <trkpt lat="41.629981820" lon="2.585730011">
        <ele>223.64</ele>
        <time>2014-09-21T08:45:34Z</time>
      </trkpt>
      <trkpt lat="41.630125654" lon="2.585801928">
        <ele>224.61</ele>
        <time>2014-09-21T08:45:43Z</time>
      </trkpt>
      <trkpt lat="41.630212407" lon="2.585860014">
        <ele>225.57</ele>
        <time>2014-09-21T08:45:48Z</time>
      </trkpt>
      <trkpt lat="41.630269990" lon="2.585964872">
        <ele>226.05</ele>
        <time>2014-09-21T08:45:55Z</time>
      </trkpt>
      <trkpt lat="41.630313492" lon="2.586066963">
        <ele>226.53</ele>
        <time>2014-09-21T08:45:59Z</time>
      </trkpt>
      <trkpt lat="41.630369819" lon="2.586224375">
        <ele>227.97</ele>
        <time>2014-09-21T08:46:09Z</time>
      </trkpt>
      <trkpt lat="41.630406196" lon="2.586396875">
        <ele>229.89</ele>
        <time>2014-09-21T08:46:18Z</time>
      </trkpt>
      <trkpt lat="41.630441903" lon="2.586583875">
        <ele>231.33</ele>
        <time>2014-09-21T08:46:28Z</time>
      </trkpt>
      <trkpt lat="41.630489680" lon="2.586698456">
        <ele>232.30</ele>
        <time>2014-09-21T08:46:35Z</time>
      </trkpt>
      <trkpt lat="41.630601327" lon="2.586725529">
        <ele>234.22</ele>
        <time>2014-09-21T08:46:44Z</time>
      </trkpt>
      <trkpt lat="41.630700066" lon="2.586741623">
        <ele>236.14</ele>
        <time>2014-09-21T08:46:53Z</time>
      </trkpt>
      <trkpt lat="41.630711465" lon="2.586748077">
        <ele>236.62</ele>
        <time>2014-09-21T08:46:53Z</time>
      </trkpt>
      <trkpt lat="41.630797715" lon="2.586763499">
        <ele>237.58</ele>
        <time>2014-09-21T08:47:01Z</time>
      </trkpt>
      <trkpt lat="41.630874912" lon="2.586761907">
        <ele>239.02</ele>
        <time>2014-09-21T08:47:08Z</time>
      </trkpt>
      <trkpt lat="41.630885473" lon="2.586763667">
        <ele>239.02</ele>
        <time>2014-09-21T08:47:10Z</time>
      </trkpt>
      <trkpt lat="41.630905422" lon="2.586757967">
        <ele>239.51</ele>
        <time>2014-09-21T08:47:12Z</time>
      </trkpt>
      <trkpt lat="41.631045149" lon="2.586759308">
        <ele>242.39</ele>
        <time>2014-09-21T08:47:22Z</time>
      </trkpt>
      <trkpt lat="41.631183953" lon="2.586752687">
        <ele>244.79</ele>
        <time>2014-09-21T08:47:33Z</time>
      </trkpt>
      <trkpt lat="41.631292750" lon="2.586737767">
        <ele>247.20</ele>
        <time>2014-09-21T08:47:43Z</time>
      </trkpt>
      <trkpt lat="41.631408169" lon="2.586727793">
        <ele>248.64</ele>
        <time>2014-09-21T08:47:54Z</time>
      </trkpt>
      <trkpt lat="41.631498861" lon="2.586720668">
        <ele>250.56</ele>
        <time>2014-09-21T08:48:02Z</time>
      </trkpt>
      <trkpt lat="41.631589134" lon="2.586717734">
        <ele>251.52</ele>
        <time>2014-09-21T08:48:11Z</time>
      </trkpt>
      <trkpt lat="41.631707654" lon="2.586707927">
        <ele>252.96</ele>
        <time>2014-09-21T08:48:20Z</time>
      </trkpt>
      <trkpt lat="41.631790970" lon="2.586742209">
        <ele>253.93</ele>
        <time>2014-09-21T08:48:27Z</time>
      </trkpt>
      <trkpt lat="41.631876047" lon="2.586809600">
        <ele>255.37</ele>
        <time>2014-09-21T08:48:34Z</time>
      </trkpt>
      <trkpt lat="41.631966487" lon="2.586881600">
        <ele>257.29</ele>
        <time>2014-09-21T08:48:44Z</time>
      </trkpt>
      <trkpt lat="41.632059275" lon="2.586961564">
        <ele>258.73</ele>
        <time>2014-09-21T08:48:53Z</time>
      </trkpt>
      <trkpt lat="41.632150638" lon="2.587024428">
        <ele>260.17</ele>
        <time>2014-09-21T08:49:00Z</time>
      </trkpt>
      <trkpt lat="41.632250215" lon="2.587031217">
        <ele>260.17</ele>
        <time>2014-09-21T08:49:09Z</time>
      </trkpt>
      <trkpt lat="41.632270834" lon="2.587035408">
        <ele>260.65</ele>
        <time>2014-09-21T08:49:10Z</time>
      </trkpt>
      <trkpt lat="41.632390528" lon="2.587018561">
        <ele>261.14</ele>
        <time>2014-09-21T08:49:19Z</time>
      </trkpt>
      <trkpt lat="41.632446603" lon="2.587003390">
        <ele>261.62</ele>
        <time>2014-09-21T08:49:24Z</time>
      </trkpt>
      <trkpt lat="41.632602003" lon="2.587045048">
        <ele>264.02</ele>
        <time>2014-09-21T08:49:36Z</time>
      </trkpt>
      <trkpt lat="41.632702670" lon="2.587060554">
        <ele>265.46</ele>
        <time>2014-09-21T08:49:45Z</time>
      </trkpt>
      <trkpt lat="41.632814317" lon="2.587092657">
        <ele>267.38</ele>
        <time>2014-09-21T08:49:54Z</time>
      </trkpt>
      <trkpt lat="41.632847509" lon="2.587096596">
        <ele>267.86</ele>
        <time>2014-09-21T08:49:57Z</time>
      </trkpt>
      <trkpt lat="41.632948763" lon="2.587133812">
        <ele>268.35</ele>
        <time>2014-09-21T08:50:06Z</time>
      </trkpt>
      <trkpt lat="41.633082286" lon="2.587174548">
        <ele>270.27</ele>
        <time>2014-09-21T08:50:15Z</time>
      </trkpt>
      <trkpt lat="41.633117323" lon="2.587199442">
        <ele>270.75</ele>
        <time>2014-09-21T08:50:18Z</time>
      </trkpt>
      <trkpt lat="41.633228970" lon="2.587209165">
        <ele>272.67</ele>
        <time>2014-09-21T08:50:27Z</time>
      </trkpt>
      <trkpt lat="41.633351513" lon="2.587230707">
        <ele>274.59</ele>
        <time>2014-09-21T08:50:37Z</time>
      </trkpt>
      <trkpt lat="41.633387974" lon="2.587231880">
        <ele>274.59</ele>
        <time>2014-09-21T08:50:41Z</time>
      </trkpt>
      <trkpt lat="41.633464417" lon="2.587237245">
        <ele>274.59</ele>
        <time>2014-09-21T08:50:44Z</time>
      </trkpt>
      <trkpt lat="41.633678407" lon="2.587349059">
        <ele>273.15</ele>
        <time>2014-09-21T08:50:53Z</time>
      </trkpt>
      <trkpt lat="41.633834311" lon="2.587436566">
        <ele>273.15</ele>
        <time>2014-09-21T08:50:57Z</time>
      </trkpt>
      <trkpt lat="41.634180148" lon="2.587545028">
        <ele>270.27</ele>
        <time>2014-09-21T08:51:04Z</time>
      </trkpt>
      <trkpt lat="41.634298333" lon="2.587576293">
        <ele>269.31</ele>
        <time>2014-09-21T08:51:05Z</time>
      </trkpt>
      <trkpt lat="41.634549622" lon="2.587701518">
        <ele>268.83</ele>
        <time>2014-09-21T08:51:12Z</time>
      </trkpt>
      <trkpt lat="41.634649367" lon="2.587735381">
        <ele>268.83</ele>
        <time>2014-09-21T08:51:17Z</time>
      </trkpt>
      <trkpt lat="41.634750872" lon="2.587759521">
        <ele>268.35</ele>
        <time>2014-09-21T08:51:24Z</time>
      </trkpt>
      <trkpt lat="41.634926808" lon="2.587768993">
        <ele>267.86</ele>
        <time>2014-09-21T08:51:33Z</time>
      </trkpt>
      <trkpt lat="41.635097966" lon="2.587813333">
        <ele>267.86</ele>
        <time>2014-09-21T08:51:42Z</time>
      </trkpt>
      <trkpt lat="41.635231406" lon="2.587940738">
        <ele>267.86</ele>
        <time>2014-09-21T08:51:49Z</time>
      </trkpt>
      <trkpt lat="41.635387813" lon="2.587952724">
        <ele>268.35</ele>
        <time>2014-09-21T08:51:56Z</time>
      </trkpt>
      <trkpt lat="41.635428213" lon="2.587953394">
        <ele>268.35</ele>
        <time>2014-09-21T08:51:59Z</time>
      </trkpt>
      <trkpt lat="41.635515804" lon="2.587922298">
        <ele>269.31</ele>
        <time>2014-09-21T08:52:03Z</time>
      </trkpt>
      <trkpt lat="41.635597947" lon="2.587889860">
        <ele>269.79</ele>
        <time>2014-09-21T08:52:08Z</time>
      </trkpt>
      <trkpt lat="41.635715880" lon="2.587802939">
        <ele>271.23</ele>
        <time>2014-09-21T08:52:17Z</time>
      </trkpt>
      <trkpt lat="41.635882094" lon="2.587674277">
        <ele>271.71</ele>
        <time>2014-09-21T08:52:27Z</time>
      </trkpt>
      <trkpt lat="41.635979491" lon="2.587620465">
        <ele>272.19</ele>
        <time>2014-09-21T08:52:32Z</time>
      </trkpt>
      <trkpt lat="41.636045541" lon="2.587597164">
        <ele>273.15</ele>
        <time>2014-09-21T08:52:39Z</time>
      </trkpt>
      <trkpt lat="41.636059874" lon="2.587549554">
        <ele>273.63</ele>
        <time>2014-09-21T08:52:53Z</time>
      </trkpt>
      <trkpt lat="41.636094826" lon="2.587525917">
        <ele>273.63</ele>
        <time>2014-09-21T08:53:04Z</time>
      </trkpt>
      <trkpt lat="41.636116787" lon="2.587516613">
        <ele>274.11</ele>
        <time>2014-09-21T08:53:18Z</time>
      </trkpt>
      <trkpt lat="41.636147800" lon="2.587537987">
        <ele>274.11</ele>
        <time>2014-09-21T08:53:35Z</time>
      </trkpt>
      <trkpt lat="41.636160121" lon="2.587570006">
        <ele>274.11</ele>
        <time>2014-09-21T08:53:42Z</time>
      </trkpt>
      <trkpt lat="41.636167581" lon="2.587577801">
        <ele>274.11</ele>
        <time>2014-09-21T08:53:44Z</time>
      </trkpt>
      <trkpt lat="41.636234553" lon="2.587644689">
        <ele>274.11</ele>
        <time>2014-09-21T08:53:49Z</time>
      </trkpt>
      <trkpt lat="41.636405962" lon="2.587813333">
        <ele>274.11</ele>
        <time>2014-09-21T08:53:58Z</time>
      </trkpt>
      <trkpt lat="41.636498750" lon="2.587955155">
        <ele>274.11</ele>
        <time>2014-09-21T08:54:03Z</time>
      </trkpt>
      <trkpt lat="41.636602183" lon="2.588134611">
        <ele>273.15</ele>
        <time>2014-09-21T08:54:10Z</time>
      </trkpt>
      <trkpt lat="41.636791949" lon="2.588435186">
        <ele>272.67</ele>
        <time>2014-09-21T08:54:20Z</time>
      </trkpt>
      <trkpt lat="41.636986912" lon="2.588730564">
        <ele>272.19</ele>
        <time>2014-09-21T08:54:29Z</time>
      </trkpt>
      <trkpt lat="41.637127812" lon="2.588863166">
        <ele>271.71</ele>
        <time>2014-09-21T08:54:34Z</time>
      </trkpt>
      <trkpt lat="41.637333336" lon="2.588915553">
        <ele>270.75</ele>
        <time>2014-09-21T08:54:41Z</time>
      </trkpt>
      <trkpt lat="41.637468369" lon="2.589030218">
        <ele>270.75</ele>
        <time>2014-09-21T08:54:48Z</time>
      </trkpt>
      <trkpt lat="41.637583033" lon="2.589163154">
        <ele>271.23</ele>
        <time>2014-09-21T08:54:55Z</time>
      </trkpt>
      <trkpt lat="41.637607173" lon="2.589169860">
        <ele>271.23</ele>
        <time>2014-09-21T08:54:57Z</time>
      </trkpt>
      <trkpt lat="41.637636091" lon="2.589209255">
        <ele>271.23</ele>
        <time>2014-09-21T08:55:00Z</time>
      </trkpt>
      <trkpt lat="41.637717563" lon="2.589307072">
        <ele>271.23</ele>
        <time>2014-09-21T08:55:06Z</time>
      </trkpt>
      <trkpt lat="41.637869694" lon="2.589455012">
        <ele>272.19</ele>
        <time>2014-09-21T08:55:16Z</time>
      </trkpt>
      <trkpt lat="41.638034231" lon="2.589612257">
        <ele>272.67</ele>
        <time>2014-09-21T08:55:25Z</time>
      </trkpt>
      <trkpt lat="41.638150907" lon="2.589700602">
        <ele>273.15</ele>
        <time>2014-09-21T08:55:30Z</time>
      </trkpt>
      <trkpt lat="41.638276719" lon="2.589816356">
        <ele>273.15</ele>
        <time>2014-09-21T08:55:37Z</time>
      </trkpt>
      <trkpt lat="41.638389456" lon="2.589936469">
        <ele>273.63</ele>
        <time>2014-09-21T08:55:44Z</time>
      </trkpt>
      <trkpt lat="41.638498421" lon="2.590042416">
        <ele>274.11</ele>
        <time>2014-09-21T08:55:51Z</time>
      </trkpt>
      <trkpt lat="41.638630520" lon="2.590181640">
        <ele>275.07</ele>
        <time>2014-09-21T08:56:00Z</time>
      </trkpt>
      <trkpt lat="41.638689780" lon="2.590241738">
        <ele>275.56</ele>
        <time>2014-09-21T08:56:05Z</time>
      </trkpt>
      <trkpt lat="41.638819867" lon="2.590376435">
        <ele>276.52</ele>
        <time>2014-09-21T08:56:14Z</time>
      </trkpt>
      <trkpt lat="41.638919276" lon="2.590487579">
        <ele>277.00</ele>
        <time>2014-09-21T08:56:21Z</time>
      </trkpt>
      <trkpt lat="41.639038048" lon="2.590636190">
        <ele>277.96</ele>
        <time>2014-09-21T08:56:29Z</time>
      </trkpt>
      <trkpt lat="41.639131422" lon="2.590739958">
        <ele>279.40</ele>
        <time>2014-09-21T08:56:36Z</time>
      </trkpt>
      <trkpt lat="41.639224210" lon="2.590853449">
        <ele>279.88</ele>
        <time>2014-09-21T08:56:43Z</time>
      </trkpt>
      <trkpt lat="41.639374246" lon="2.590994517">
        <ele>281.32</ele>
        <time>2014-09-21T08:56:54Z</time>
      </trkpt>
      <trkpt lat="41.639478265" lon="2.591073139">
        <ele>282.28</ele>
        <time>2014-09-21T08:57:01Z</time>
      </trkpt>
      <trkpt lat="41.639522019" lon="2.591236586">
        <ele>284.21</ele>
        <time>2014-09-21T08:57:09Z</time>
      </trkpt>
      <trkpt lat="41.639426884" lon="2.591437584">
        <ele>284.69</ele>
        <time>2014-09-21T08:57:20Z</time>
      </trkpt>
      <trkpt lat="41.639329486" lon="2.591598768">
        <ele>285.65</ele>
        <time>2014-09-21T08:57:29Z</time>
      </trkpt>
      <trkpt lat="41.639261593" lon="2.591808902">
        <ele>286.13</ele>
        <time>2014-09-21T08:57:37Z</time>
      </trkpt>
      <trkpt lat="41.639220522" lon="2.592003781">
        <ele>287.09</ele>
        <time>2014-09-21T08:57:46Z</time>
      </trkpt>
      <trkpt lat="41.639208368" lon="2.592209976">
        <ele>287.09</ele>
        <time>2014-09-21T08:57:53Z</time>
      </trkpt>
      <trkpt lat="41.639238794" lon="2.592442574">
        <ele>287.57</ele>
        <time>2014-09-21T08:58:02Z</time>
      </trkpt>
      <trkpt lat="41.639298641" lon="2.592579618">
        <ele>289.01</ele>
        <time>2014-09-21T08:58:09Z</time>
      </trkpt>
      <trkpt lat="41.639365026" lon="2.592707610">
        <ele>291.90</ele>
        <time>2014-09-21T08:58:17Z</time>
      </trkpt>
      <trkpt lat="41.639426884" lon="2.592826130">
        <ele>293.82</ele>
        <time>2014-09-21T08:58:26Z</time>
      </trkpt>
      <trkpt lat="41.639512380" lon="2.592993768">
        <ele>296.22</ele>
        <time>2014-09-21T08:58:36Z</time>
      </trkpt>
      <trkpt lat="41.639527635" lon="2.593029307">
        <ele>296.22</ele>
        <time>2014-09-21T08:58:38Z</time>
      </trkpt>
      <trkpt lat="41.639638946" lon="2.593176242">
        <ele>299.11</ele>
        <time>2014-09-21T08:58:50Z</time>
      </trkpt>
      <trkpt lat="41.639667445" lon="2.593199879">
        <ele>299.59</ele>
        <time>2014-09-21T08:58:54Z</time>
      </trkpt>
      <trkpt lat="41.639707007" lon="2.593266348">
        <ele>300.55</ele>
        <time>2014-09-21T08:58:59Z</time>
      </trkpt>
      <trkpt lat="41.639749587" lon="2.593317561">
        <ele>301.03</ele>
        <time>2014-09-21T08:59:03Z</time>
      </trkpt>
      <trkpt lat="41.639820750" lon="2.593450414">
        <ele>301.99</ele>
        <time>2014-09-21T08:59:11Z</time>
      </trkpt>
      <trkpt lat="41.639901468" lon="2.593566504">
        <ele>302.47</ele>
        <time>2014-09-21T08:59:18Z</time>
      </trkpt>
      <trkpt lat="41.639914795" lon="2.593581004">
        <ele>302.47</ele>
        <time>2014-09-21T08:59:20Z</time>
      </trkpt>
      <trkpt lat="41.640060472" lon="2.593725173">
        <ele>303.43</ele>
        <time>2014-09-21T08:59:29Z</time>
      </trkpt>
      <trkpt lat="41.640142280" lon="2.593855428">
        <ele>303.91</ele>
        <time>2014-09-21T08:59:36Z</time>
      </trkpt>
      <trkpt lat="41.640238504" lon="2.593979564">
        <ele>304.39</ele>
        <time>2014-09-21T08:59:44Z</time>
      </trkpt>
      <trkpt lat="41.640334896" lon="2.594086349">
        <ele>305.84</ele>
        <time>2014-09-21T08:59:53Z</time>
      </trkpt>
      <trkpt lat="41.640443861" lon="2.594152399">
        <ele>306.80</ele>
        <time>2014-09-21T09:00:00Z</time>
      </trkpt>
      <trkpt lat="41.640603117" lon="2.594217861">
        <ele>308.72</ele>
        <time>2014-09-21T09:00:12Z</time>
      </trkpt>
      <trkpt lat="41.640717530" lon="2.594265638">
        <ele>309.20</ele>
        <time>2014-09-21T09:00:19Z</time>
      </trkpt>
      <trkpt lat="41.640830937" lon="2.594306793">
        <ele>310.64</ele>
        <time>2014-09-21T09:00:28Z</time>
      </trkpt>
      <trkpt lat="41.640980470" lon="2.594329424">
        <ele>312.57</ele>
        <time>2014-09-21T09:00:37Z</time>
      </trkpt>
      <trkpt lat="41.641116257" lon="2.594356917">
        <ele>314.49</ele>
        <time>2014-09-21T09:00:47Z</time>
      </trkpt>
      <trkpt lat="41.641216169" lon="2.594368987">
        <ele>315.45</ele>
        <time>2014-09-21T09:00:54Z</time>
      </trkpt>
      <trkpt lat="41.641321865" lon="2.594371837">
        <ele>317.37</ele>
        <time>2014-09-21T09:01:01Z</time>
      </trkpt>
      <trkpt lat="41.641401912" lon="2.594355324">
        <ele>318.81</ele>
        <time>2014-09-21T09:01:08Z</time>
      </trkpt>
      <trkpt lat="41.641501741" lon="2.594296400">
        <ele>319.78</ele>
        <time>2014-09-21T09:01:15Z</time>
      </trkpt>
      <trkpt lat="41.641517666" lon="2.594293717">
        <ele>319.78</ele>
        <time>2014-09-21T09:01:17Z</time>
      </trkpt>
      <trkpt lat="41.641662422" lon="2.594260693">
        <ele>321.22</ele>
        <time>2014-09-21T09:01:27Z</time>
      </trkpt>
      <trkpt lat="41.641811452" lon="2.594202606">
        <ele>322.18</ele>
        <time>2014-09-21T09:01:36Z</time>
      </trkpt>
      <trkpt lat="41.641949669" lon="2.594189363">
        <ele>323.14</ele>
        <time>2014-09-21T09:01:46Z</time>
      </trkpt>
      <trkpt lat="41.642104651" lon="2.594202187">
        <ele>324.58</ele>
        <time>2014-09-21T09:01:55Z</time>
      </trkpt>
      <trkpt lat="41.642271199" lon="2.594250299">
        <ele>326.02</ele>
        <time>2014-09-21T09:02:04Z</time>
      </trkpt>
      <trkpt lat="41.642434395" lon="2.594321964">
        <ele>326.99</ele>
        <time>2014-09-21T09:02:14Z</time>
      </trkpt>
      <trkpt lat="41.642612259" lon="2.594374854">
        <ele>327.47</ele>
        <time>2014-09-21T09:02:25Z</time>
      </trkpt>
      <trkpt lat="41.642747794" lon="2.594422883">
        <ele>327.95</ele>
        <time>2014-09-21T09:02:32Z</time>
      </trkpt>
      <trkpt lat="41.642888107" lon="2.594515419">
        <ele>328.91</ele>
        <time>2014-09-21T09:02:40Z</time>
      </trkpt>
      <trkpt lat="41.642963125" lon="2.594683727">
        <ele>330.35</ele>
        <time>2014-09-21T09:02:47Z</time>
      </trkpt>
      <trkpt lat="41.643021212" lon="2.594868213">
        <ele>331.31</ele>
        <time>2014-09-21T09:02:56Z</time>
      </trkpt>
      <trkpt lat="41.643120873" lon="2.594975921">
        <ele>332.27</ele>
        <time>2014-09-21T09:03:03Z</time>
      </trkpt>
      <trkpt lat="41.643231933" lon="2.595076503">
        <ele>334.20</ele>
        <time>2014-09-21T09:03:10Z</time>
      </trkpt>
      <trkpt lat="41.643390267" lon="2.595143642">
        <ele>336.12</ele>
        <time>2014-09-21T09:03:20Z</time>
      </trkpt>
      <trkpt lat="41.643562180" lon="2.595148169">
        <ele>338.04</ele>
        <time>2014-09-21T09:03:31Z</time>
      </trkpt>
      <trkpt lat="41.643698637" lon="2.595100643">
        <ele>339.96</ele>
        <time>2014-09-21T09:03:41Z</time>
      </trkpt>
      <trkpt lat="41.643814391" lon="2.595044568">
        <ele>340.92</ele>
        <time>2014-09-21T09:03:50Z</time>
      </trkpt>
      <trkpt lat="41.643919836" lon="2.594957732">
        <ele>341.41</ele>
        <time>2014-09-21T09:03:57Z</time>
      </trkpt>
      <trkpt lat="41.644043301" lon="2.594858071">
        <ele>342.37</ele>
        <time>2014-09-21T09:04:04Z</time>
      </trkpt>
      <trkpt lat="41.644194846" lon="2.594774420">
        <ele>343.33</ele>
        <time>2014-09-21T09:04:13Z</time>
      </trkpt>
      <trkpt lat="41.644361478" lon="2.594625808">
        <ele>343.81</ele>
        <time>2014-09-21T09:04:23Z</time>
      </trkpt>
      <trkpt lat="41.644565410" lon="2.594508965">
        <ele>344.29</ele>
        <time>2014-09-21T09:04:32Z</time>
      </trkpt>
      <trkpt lat="41.644750315" lon="2.594496811">
        <ele>344.77</ele>
        <time>2014-09-21T09:04:39Z</time>
      </trkpt>
      <trkpt lat="41.644942512" lon="2.594519526">
        <ele>345.25</ele>
        <time>2014-09-21T09:04:49Z</time>
      </trkpt>
      <trkpt lat="41.645118699" lon="2.594530339">
        <ele>346.21</ele>
        <time>2014-09-21T09:04:58Z</time>
      </trkpt>
      <trkpt lat="41.645261108" lon="2.594535619">
        <ele>346.69</ele>
        <time>2014-09-21T09:05:05Z</time>
      </trkpt>
      <trkpt lat="41.645481720" lon="2.594545677">
        <ele>347.17</ele>
        <time>2014-09-21T09:05:15Z</time>
      </trkpt>
      <trkpt lat="41.645697135" lon="2.594581384">
        <ele>348.13</ele>
        <time>2014-09-21T09:05:24Z</time>
      </trkpt>
      <trkpt lat="41.645888996" lon="2.594597226">
        <ele>350.06</ele>
        <time>2014-09-21T09:05:35Z</time>
      </trkpt>
      <trkpt lat="41.646032830" lon="2.594540145">
        <ele>350.54</ele>
        <time>2014-09-21T09:05:43Z</time>
      </trkpt>
      <trkpt lat="41.646187392" lon="2.594455153">
        <ele>352.46</ele>
        <time>2014-09-21T09:05:52Z</time>
      </trkpt>
      <trkpt lat="41.646352013" lon="2.594456326">
        <ele>352.94</ele>
        <time>2014-09-21T09:05:59Z</time>
      </trkpt>
      <trkpt lat="41.646510682" lon="2.594467474">
        <ele>355.34</ele>
        <time>2014-09-21T09:06:09Z</time>
      </trkpt>
      <trkpt lat="41.646600620" lon="2.594474012">
        <ele>357.27</ele>
        <time>2014-09-21T09:06:16Z</time>
      </trkpt>
      <trkpt lat="41.646732719" lon="2.594423637">
        <ele>358.23</ele>
        <time>2014-09-21T09:06:27Z</time>
      </trkpt>
      <trkpt lat="41.646891053" lon="2.594340069">
        <ele>360.15</ele>
        <time>2014-09-21T09:06:37Z</time>
      </trkpt>
      <trkpt lat="41.647045531" lon="2.594288353">
        <ele>360.63</ele>
        <time>2014-09-21T09:06:46Z</time>
      </trkpt>
      <trkpt lat="41.647188694" lon="2.594258346">
        <ele>361.59</ele>
        <time>2014-09-21T09:06:55Z</time>
      </trkpt>
      <trkpt lat="41.647337305" lon="2.594255999">
        <ele>362.55</ele>
        <time>2014-09-21T09:07:03Z</time>
      </trkpt>
      <trkpt lat="41.647445935" lon="2.594244264">
        <ele>364.00</ele>
        <time>2014-09-21T09:07:10Z</time>
      </trkpt>
      <trkpt lat="41.647565209" lon="2.594267147">
        <ele>364.96</ele>
        <time>2014-09-21T09:07:19Z</time>
      </trkpt>
      <trkpt lat="41.647681382" lon="2.594381476">
        <ele>366.40</ele>
        <time>2014-09-21T09:07:28Z</time>
      </trkpt>
      <trkpt lat="41.647783139" lon="2.594490525">
        <ele>368.32</ele>
        <time>2014-09-21T09:07:36Z</time>
      </trkpt>
      <trkpt lat="41.647833095" lon="2.594561687">
        <ele>369.28</ele>
        <time>2014-09-21T09:07:42Z</time>
      </trkpt>
      <trkpt lat="41.647859079" lon="2.594587838">
        <ele>369.76</ele>
        <time>2014-09-21T09:07:43Z</time>
      </trkpt>
      <trkpt lat="41.647902413" lon="2.594621953">
        <ele>370.24</ele>
        <time>2014-09-21T09:07:47Z</time>
      </trkpt>
      <trkpt lat="41.648011629" lon="2.594684398">
        <ele>371.69</ele>
        <time>2014-09-21T09:07:57Z</time>
      </trkpt>
      <trkpt lat="41.648116236" lon="2.594717674">
        <ele>373.13</ele>
        <time>2014-09-21T09:08:06Z</time>
      </trkpt>
      <trkpt lat="41.648249592" lon="2.594735360">
        <ele>375.05</ele>
        <time>2014-09-21T09:08:17Z</time>
      </trkpt>
      <trkpt lat="41.648318156" lon="2.594749190">
        <ele>376.97</ele>
        <time>2014-09-21T09:08:22Z</time>
      </trkpt>
      <trkpt lat="41.648429383" lon="2.594769139">
        <ele>378.42</ele>
        <time>2014-09-21T09:08:32Z</time>
      </trkpt>
      <trkpt lat="41.648528625" lon="2.594787495">
        <ele>379.86</ele>
        <time>2014-09-21T09:08:39Z</time>
      </trkpt>
      <trkpt lat="41.648636333" lon="2.594780790">
        <ele>381.30</ele>
        <time>2014-09-21T09:08:48Z</time>
      </trkpt>
      <trkpt lat="41.648717553" lon="2.594792273">
        <ele>381.78</ele>
        <time>2014-09-21T09:08:55Z</time>
      </trkpt>
      <trkpt lat="41.648764911" lon="2.594784226">
        <ele>382.74</ele>
        <time>2014-09-21T09:08:58Z</time>
      </trkpt>
      <trkpt lat="41.648861051" lon="2.594809121">
        <ele>384.18</ele>
        <time>2014-09-21T09:09:05Z</time>
      </trkpt>
      <trkpt lat="41.648974794" lon="2.594780455">
        <ele>385.15</ele>
        <time>2014-09-21T09:09:14Z</time>
      </trkpt>
      <trkpt lat="41.649116448" lon="2.594782801">
        <ele>386.11</ele>
        <time>2014-09-21T09:09:23Z</time>
      </trkpt>
      <trkpt lat="41.649245529" lon="2.594765283">
        <ele>387.55</ele>
        <time>2014-09-21T09:09:33Z</time>
      </trkpt>
      <trkpt lat="41.649388441" lon="2.594757740">
        <ele>388.51</ele>
        <time>2014-09-21T09:09:45Z</time>
      </trkpt>
      <trkpt lat="41.649529173" lon="2.594746424">
        <ele>389.47</ele>
        <time>2014-09-21T09:09:54Z</time>
      </trkpt>
      <trkpt lat="41.649637048" lon="2.594701329">
        <ele>390.43</ele>
        <time>2014-09-21T09:10:01Z</time>
      </trkpt>
      <trkpt lat="41.649722627" lon="2.594642321">
        <ele>390.91</ele>
        <time>2014-09-21T09:10:08Z</time>
      </trkpt>
      <trkpt lat="41.649832682" lon="2.594534949">
        <ele>392.36</ele>
        <time>2014-09-21T09:10:17Z</time>
      </trkpt>
      <trkpt lat="41.649953884" lon="2.594440065">
        <ele>393.80</ele>
        <time>2014-09-21T09:10:27Z</time>
      </trkpt>
      <trkpt lat="41.650066788" lon="2.594386840">
        <ele>394.28</ele>
        <time>2014-09-21T09:10:34Z</time>
      </trkpt>
      <trkpt lat="41.650192182" lon="2.594348284">
        <ele>395.24</ele>
        <time>2014-09-21T09:10:41Z</time>
      </trkpt>
      <trkpt lat="41.650310702" lon="2.594292879">
        <ele>395.72</ele>
        <time>2014-09-21T09:10:48Z</time>
      </trkpt>
      <trkpt lat="41.650442549" lon="2.594292460">
        <ele>396.20</ele>
        <time>2014-09-21T09:10:55Z</time>
      </trkpt>
      <trkpt lat="41.650632399" lon="2.594407711">
        <ele>397.16</ele>
        <time>2014-09-21T09:11:04Z</time>
      </trkpt>
      <trkpt lat="41.650774556" lon="2.594537715">
        <ele>397.64</ele>
        <time>2014-09-21T09:11:12Z</time>
      </trkpt>
      <trkpt lat="41.650887628" lon="2.594697893">
        <ele>398.60</ele>
        <time>2014-09-21T09:11:21Z</time>
      </trkpt>
      <trkpt lat="41.650982427" lon="2.594833680">
        <ele>399.57</ele>
        <time>2014-09-21T09:11:28Z</time>
      </trkpt>
      <trkpt lat="41.651101953" lon="2.594946584">
        <ele>401.97</ele>
        <time>2014-09-21T09:11:39Z</time>
      </trkpt>
      <trkpt lat="41.651215612" lon="2.595007772">
        <ele>403.89</ele>
        <time>2014-09-21T09:11:47Z</time>
      </trkpt>
      <trkpt lat="41.651337150" lon="2.595054878">
        <ele>405.33</ele>
        <time>2014-09-21T09:11:56Z</time>
      </trkpt>
      <trkpt lat="41.651440415" lon="2.595116066">
        <ele>406.77</ele>
        <time>2014-09-21T09:12:05Z</time>
      </trkpt>
      <trkpt lat="41.651556169" lon="2.595106846">
        <ele>407.26</ele>
        <time>2014-09-21T09:12:12Z</time>
      </trkpt>
      <trkpt lat="41.651686591" lon="2.595027805">
        <ele>407.26</ele>
        <time>2014-09-21T09:12:22Z</time>
      </trkpt>
      <trkpt lat="41.651827407" lon="2.594943985">
        <ele>407.74</ele>
        <time>2014-09-21T09:12:31Z</time>
      </trkpt>
      <trkpt lat="41.651948274" lon="2.594886318">
        <ele>409.18</ele>
        <time>2014-09-21T09:12:41Z</time>
      </trkpt>
      <trkpt lat="41.652044331" lon="2.594861005">
        <ele>410.14</ele>
        <time>2014-09-21T09:12:47Z</time>
      </trkpt>
      <trkpt lat="41.652185063" lon="2.594778778">
        <ele>412.06</ele>
        <time>2014-09-21T09:12:57Z</time>
      </trkpt>
      <trkpt lat="41.652286065" lon="2.594725972">
        <ele>413.50</ele>
        <time>2014-09-21T09:13:06Z</time>
      </trkpt>
      <trkpt lat="41.652409949" lon="2.594669059">
        <ele>414.95</ele>
        <time>2014-09-21T09:13:16Z</time>
      </trkpt>
      <trkpt lat="41.652519417" lon="2.594645925">
        <ele>416.39</ele>
        <time>2014-09-21T09:13:25Z</time>
      </trkpt>
      <trkpt lat="41.652639194" lon="2.594600495">
        <ele>417.35</ele>
        <time>2014-09-21T09:13:35Z</time>
      </trkpt>
      <trkpt lat="41.652796606" lon="2.594582558">
        <ele>418.79</ele>
        <time>2014-09-21T09:13:46Z</time>
      </trkpt>
      <trkpt lat="41.652932477" lon="2.594579624">
        <ele>419.75</ele>
        <time>2014-09-21T09:13:54Z</time>
      </trkpt>
      <trkpt lat="41.653080502" lon="2.594595801">
        <ele>420.71</ele>
        <time>2014-09-21T09:14:05Z</time>
      </trkpt>
      <trkpt lat="41.653194915" lon="2.594622539">
        <ele>421.68</ele>
        <time>2014-09-21T09:14:12Z</time>
      </trkpt>
      <trkpt lat="41.653231376" lon="2.594680039">
        <ele>422.16</ele>
        <time>2014-09-21T09:14:17Z</time>
      </trkpt>
      <trkpt lat="41.653234980" lon="2.594876595">
        <ele>423.12</ele>
        <time>2014-09-21T09:14:28Z</time>
      </trkpt>
      <trkpt lat="41.653242691" lon="2.594903333">
        <ele>423.12</ele>
        <time>2014-09-21T09:14:29Z</time>
      </trkpt>
      <trkpt lat="41.653359787" lon="2.595015232">
        <ele>423.60</ele>
        <time>2014-09-21T09:14:38Z</time>
      </trkpt>
      <trkpt lat="41.653480151" lon="2.595040042">
        <ele>425.04</ele>
        <time>2014-09-21T09:14:47Z</time>
      </trkpt>
      <trkpt lat="41.653596324" lon="2.595038952">
        <ele>426.48</ele>
        <time>2014-09-21T09:14:57Z</time>
      </trkpt>
      <trkpt lat="41.653724902" lon="2.595047418">
        <ele>427.44</ele>
        <time>2014-09-21T09:15:06Z</time>
      </trkpt>
      <trkpt lat="41.653752814" lon="2.595075162">
        <ele>427.44</ele>
        <time>2014-09-21T09:15:09Z</time>
      </trkpt>
      <trkpt lat="41.653878543" lon="2.595173650">
        <ele>427.44</ele>
        <time>2014-09-21T09:15:18Z</time>
      </trkpt>
      <trkpt lat="41.653892121" lon="2.595193179">
        <ele>427.44</ele>
        <time>2014-09-21T09:15:18Z</time>
      </trkpt>
      <trkpt lat="41.654002343" lon="2.595349502">
        <ele>427.44</ele>
        <time>2014-09-21T09:15:27Z</time>
      </trkpt>
      <trkpt lat="41.654023298" lon="2.595517391">
        <ele>425.52</ele>
        <time>2014-09-21T09:15:32Z</time>
      </trkpt>
      <trkpt lat="41.653952639" lon="2.595646305">
        <ele>424.56</ele>
        <time>2014-09-21T09:15:37Z</time>
      </trkpt>
      <trkpt lat="41.653931265" lon="2.595663153">
        <ele>424.56</ele>
        <time>2014-09-21T09:15:39Z</time>
      </trkpt>
      <trkpt lat="41.653894468" lon="2.595691651">
        <ele>426.00</ele>
        <time>2014-09-21T09:15:41Z</time>
      </trkpt>
      <trkpt lat="41.653836046" lon="2.595816039">
        <ele>426.96</ele>
        <time>2014-09-21T09:15:48Z</time>
      </trkpt>
      <trkpt lat="41.653823557" lon="2.595971020">
        <ele>427.92</ele>
        <time>2014-09-21T09:15:56Z</time>
      </trkpt>
      <trkpt lat="41.653802183" lon="2.596167240">
        <ele>428.40</ele>
        <time>2014-09-21T09:16:05Z</time>
      </trkpt>
      <trkpt lat="41.653776954" lon="2.596374525">
        <ele>428.40</ele>
        <time>2014-09-21T09:16:16Z</time>
      </trkpt>
      <trkpt lat="41.653774272" lon="2.596483657">
        <ele>428.89</ele>
        <time>2014-09-21T09:16:21Z</time>
      </trkpt>
      <trkpt lat="41.653803105" lon="2.596608715">
        <ele>429.85</ele>
        <time>2014-09-21T09:16:28Z</time>
      </trkpt>
      <trkpt lat="41.653826575" lon="2.596664455">
        <ele>430.33</ele>
        <time>2014-09-21T09:16:33Z</time>
      </trkpt>
      <trkpt lat="41.653892037" lon="2.596778449">
        <ele>430.81</ele>
        <time>2014-09-21T09:16:40Z</time>
      </trkpt>
      <trkpt lat="41.653900755" lon="2.596786412">
        <ele>431.29</ele>
        <time>2014-09-21T09:16:42Z</time>
      </trkpt>
      <trkpt lat="41.653955237" lon="2.596823292">
        <ele>431.77</ele>
        <time>2014-09-21T09:16:47Z</time>
      </trkpt>
      <trkpt lat="41.654018185" lon="2.596857071">
        <ele>431.77</ele>
        <time>2014-09-21T09:16:52Z</time>
      </trkpt>
      <trkpt lat="41.654094125" lon="2.596943405">
        <ele>432.25</ele>
        <time>2014-09-21T09:16:57Z</time>
      </trkpt>
      <trkpt lat="41.654074763" lon="2.597045580">
        <ele>432.25</ele>
        <time>2014-09-21T09:17:01Z</time>
      </trkpt>
      <trkpt lat="41.653968564" lon="2.597233502">
        <ele>430.81</ele>
        <time>2014-09-21T09:17:08Z</time>
      </trkpt>
      <trkpt lat="41.653858845" lon="2.597358057">
        <ele>430.81</ele>
        <time>2014-09-21T09:17:15Z</time>
      </trkpt>
      <trkpt lat="41.653817271" lon="2.597498454">
        <ele>432.25</ele>
        <time>2014-09-21T09:17:22Z</time>
      </trkpt>
      <trkpt lat="41.653870244" lon="2.597665254">
        <ele>432.25</ele>
        <time>2014-09-21T09:17:32Z</time>
      </trkpt>
      <trkpt lat="41.653899833" lon="2.597793749">
        <ele>432.73</ele>
        <time>2014-09-21T09:17:39Z</time>
      </trkpt>
      <trkpt lat="41.653912405" lon="2.597901791">
        <ele>433.21</ele>
        <time>2014-09-21T09:17:46Z</time>
      </trkpt>
      <trkpt lat="41.653922128" lon="2.598020982">
        <ele>434.17</ele>
        <time>2014-09-21T09:17:55Z</time>
      </trkpt>
      <trkpt lat="41.653918524" lon="2.598066915">
        <ele>434.65</ele>
        <time>2014-09-21T09:17:58Z</time>
      </trkpt>
      <trkpt lat="41.653914836" lon="2.598098682">
        <ele>435.13</ele>
        <time>2014-09-21T09:18:00Z</time>
      </trkpt>
      <trkpt lat="41.653927325" lon="2.598175042">
        <ele>435.13</ele>
        <time>2014-09-21T09:18:04Z</time>
      </trkpt>
      <trkpt lat="41.653913914" lon="2.598315271">
        <ele>435.61</ele>
        <time>2014-09-21T09:18:09Z</time>
      </trkpt>
      <trkpt lat="41.653946520" lon="2.598476455">
        <ele>436.10</ele>
        <time>2014-09-21T09:18:18Z</time>
      </trkpt>
      <trkpt lat="41.654004774" lon="2.598643506">
        <ele>436.58</ele>
        <time>2014-09-21T09:18:26Z</time>
      </trkpt>
      <trkpt lat="41.654095047" lon="2.598769067">
        <ele>437.54</ele>
        <time>2014-09-21T09:18:35Z</time>
      </trkpt>
      <trkpt lat="41.654112565" lon="2.598794799">
        <ele>437.54</ele>
        <time>2014-09-21T09:18:37Z</time>
      </trkpt>
      <trkpt lat="41.654188170" lon="2.598885408">
        <ele>438.50</ele>
        <time>2014-09-21T09:18:45Z</time>
      </trkpt>
      <trkpt lat="41.654207700" lon="2.598908290">
        <ele>438.98</ele>
        <time>2014-09-21T09:18:47Z</time>
      </trkpt>
      <trkpt lat="41.654340218" lon="2.598972244">
        <ele>439.94</ele>
        <time>2014-09-21T09:18:59Z</time>
      </trkpt>
      <trkpt lat="41.654461755" lon="2.598994289">
        <ele>441.38</ele>
        <time>2014-09-21T09:19:08Z</time>
      </trkpt>
      <trkpt lat="41.654567703" lon="2.599045083">
        <ele>442.82</ele>
        <time>2014-09-21T09:19:17Z</time>
      </trkpt>
      <trkpt lat="41.654678092" lon="2.599125130">
        <ele>442.82</ele>
        <time>2014-09-21T09:19:27Z</time>
      </trkpt>
      <trkpt lat="41.654768784" lon="2.599278351">
        <ele>443.31</ele>
        <time>2014-09-21T09:19:36Z</time>
      </trkpt>
      <trkpt lat="41.654772724" lon="2.599300480">
        <ele>443.31</ele>
        <time>2014-09-21T09:19:36Z</time>
      </trkpt>
      <trkpt lat="41.654724277" lon="2.599349514">
        <ele>443.31</ele>
        <time>2014-09-21T09:19:41Z</time>
      </trkpt>
      <trkpt lat="41.654605505" lon="2.599396117">
        <ele>444.27</ele>
        <time>2014-09-21T09:19:52Z</time>
      </trkpt>
      <trkpt lat="41.654574827" lon="2.599423945">
        <ele>444.27</ele>
        <time>2014-09-21T09:19:53Z</time>
      </trkpt>
      <trkpt lat="41.654548676" lon="2.599450432">
        <ele>444.75</ele>
        <time>2014-09-21T09:19:55Z</time>
      </trkpt>
      <trkpt lat="41.654474999" lon="2.599632906">
        <ele>445.23</ele>
        <time>2014-09-21T09:20:04Z</time>
      </trkpt>
      <trkpt lat="41.654460833" lon="2.599667272">
        <ele>445.23</ele>
        <time>2014-09-21T09:20:07Z</time>
      </trkpt>
      <trkpt lat="41.654413308" lon="2.599708008">
        <ele>446.19</ele>
        <time>2014-09-21T09:20:11Z</time>
      </trkpt>
      <trkpt lat="41.654320185" lon="2.599751091">
        <ele>446.67</ele>
        <time>2014-09-21T09:20:18Z</time>
      </trkpt>
      <trkpt lat="41.654192361" lon="2.599862654">
        <ele>447.15</ele>
        <time>2014-09-21T09:20:28Z</time>
      </trkpt>
      <trkpt lat="41.654198145" lon="2.600033142">
        <ele>448.59</ele>
        <time>2014-09-21T09:20:37Z</time>
      </trkpt>
      <trkpt lat="41.654258662" lon="2.600198936">
        <ele>449.55</ele>
        <time>2014-09-21T09:20:47Z</time>
      </trkpt>
      <trkpt lat="41.654358574" lon="2.600322150">
        <ele>451.48</ele>
        <time>2014-09-21T09:20:58Z</time>
      </trkpt>
      <trkpt lat="41.654485225" lon="2.600424996">
        <ele>453.40</ele>
        <time>2014-09-21T09:21:08Z</time>
      </trkpt>
      <trkpt lat="41.654569630" lon="2.600478053">
        <ele>455.80</ele>
        <time>2014-09-21T09:21:17Z</time>
      </trkpt>
      <trkpt lat="41.654672979" lon="2.600546030">
        <ele>457.24</ele>
        <time>2014-09-21T09:21:24Z</time>
      </trkpt>
      <trkpt lat="41.654791164" lon="2.600689529">
        <ele>457.72</ele>
        <time>2014-09-21T09:21:36Z</time>
      </trkpt>
      <trkpt lat="41.654809604" lon="2.600710316">
        <ele>457.72</ele>
        <time>2014-09-21T09:21:38Z</time>
      </trkpt>
      <trkpt lat="41.654785716" lon="2.600848617">
        <ele>458.69</ele>
        <time>2014-09-21T09:21:45Z</time>
      </trkpt>
      <trkpt lat="41.654744561" lon="2.600894215">
        <ele>458.69</ele>
        <time>2014-09-21T09:21:48Z</time>
      </trkpt>
      <trkpt lat="41.654628388" lon="2.601003766">
        <ele>460.61</ele>
        <time>2014-09-21T09:21:57Z</time>
      </trkpt>
      <trkpt lat="41.654524368" lon="2.601119101">
        <ele>462.05</ele>
        <time>2014-09-21T09:22:06Z</time>
      </trkpt>
      <trkpt lat="41.654432000" lon="2.601254301">
        <ele>463.97</ele>
        <time>2014-09-21T09:22:14Z</time>
      </trkpt>
      <trkpt lat="41.654349186" lon="2.601426717">
        <ele>464.45</ele>
        <time>2014-09-21T09:22:23Z</time>
      </trkpt>
      <trkpt lat="41.654289507" lon="2.601598127">
        <ele>465.42</ele>
        <time>2014-09-21T09:22:32Z</time>
      </trkpt>
      <trkpt lat="41.654246173" lon="2.601708098">
        <ele>466.86</ele>
        <time>2014-09-21T09:22:39Z</time>
      </trkpt>
      <trkpt lat="41.654179453" lon="2.601859056">
        <ele>468.30</ele>
        <time>2014-09-21T09:22:49Z</time>
      </trkpt>
      <trkpt lat="41.654091024" lon="2.602047984">
        <ele>469.74</ele>
        <time>2014-09-21T09:22:58Z</time>
      </trkpt>
      <trkpt lat="41.654036374" lon="2.602161139">
        <ele>470.70</ele>
        <time>2014-09-21T09:23:05Z</time>
      </trkpt>
      <trkpt lat="41.653966469" lon="2.602331711">
        <ele>471.66</ele>
        <time>2014-09-21T09:23:14Z</time>
      </trkpt>
      <trkpt lat="41.653930929" lon="2.602492895">
        <ele>472.63</ele>
        <time>2014-09-21T09:23:22Z</time>
      </trkpt>
      <trkpt lat="41.653922715" lon="2.602677297">
        <ele>474.07</ele>
        <time>2014-09-21T09:23:31Z</time>
      </trkpt>
      <trkpt lat="41.653952890" lon="2.602745861">
        <ele>475.03</ele>
        <time>2014-09-21T09:23:35Z</time>
      </trkpt>
      <trkpt lat="41.654100747" lon="2.602872428">
        <ele>475.99</ele>
        <time>2014-09-21T09:23:45Z</time>
      </trkpt>
      <trkpt lat="41.654205856" lon="2.602907632">
        <ele>476.47</ele>
        <time>2014-09-21T09:23:52Z</time>
      </trkpt>
      <trkpt lat="41.654329740" lon="2.603040066">
        <ele>477.43</ele>
        <time>2014-09-21T09:24:01Z</time>
      </trkpt>
      <trkpt lat="41.654441387" lon="2.603188342">
        <ele>479.35</ele>
        <time>2014-09-21T09:24:11Z</time>
      </trkpt>
      <trkpt lat="41.654539037" lon="2.603325134">
        <ele>480.32</ele>
        <time>2014-09-21T09:24:20Z</time>
      </trkpt>
      <trkpt lat="41.654642302" lon="2.603544405">
        <ele>481.76</ele>
        <time>2014-09-21T09:24:32Z</time>
      </trkpt>
      <trkpt lat="41.654711368" lon="2.603689747">
        <ele>482.24</ele>
        <time>2014-09-21T09:24:39Z</time>
      </trkpt>
      <trkpt lat="41.654827290" lon="2.603802148">
        <ele>483.20</ele>
        <time>2014-09-21T09:24:48Z</time>
      </trkpt>
      <trkpt lat="41.654931980" lon="2.603891164">
        <ele>483.68</ele>
        <time>2014-09-21T09:24:55Z</time>
      </trkpt>
      <trkpt lat="41.655058379" lon="2.603996441">
        <ele>484.64</ele>
        <time>2014-09-21T09:25:05Z</time>
      </trkpt>
      <trkpt lat="41.655127446" lon="2.604094174">
        <ele>486.56</ele>
        <time>2014-09-21T09:25:14Z</time>
      </trkpt>
      <trkpt lat="41.655100456" lon="2.604166342">
        <ele>487.05</ele>
        <time>2014-09-21T09:25:17Z</time>
      </trkpt>
      <trkpt lat="41.654975734" lon="2.604308751">
        <ele>489.45</ele>
        <time>2014-09-21T09:25:28Z</time>
      </trkpt>
      <trkpt lat="41.654838606" lon="2.604542522">
        <ele>490.89</ele>
        <time>2014-09-21T09:25:40Z</time>
      </trkpt>
      <trkpt lat="41.654819495" lon="2.604577642">
        <ele>491.37</ele>
        <time>2014-09-21T09:25:42Z</time>
      </trkpt>
      <trkpt lat="41.654762079" lon="2.604717536">
        <ele>492.81</ele>
        <time>2014-09-21T09:25:52Z</time>
      </trkpt>
      <trkpt lat="41.654749925" lon="2.604841923">
        <ele>494.26</ele>
        <time>2014-09-21T09:25:59Z</time>
      </trkpt>
      <trkpt lat="41.654752356" lon="2.604992379">
        <ele>496.66</ele>
        <time>2014-09-21T09:26:08Z</time>
      </trkpt>
      <trkpt lat="41.654765432" lon="2.605148533">
        <ele>498.10</ele>
        <time>2014-09-21T09:26:18Z</time>
      </trkpt>
      <trkpt lat="41.654775322" lon="2.605190862">
        <ele>498.58</ele>
        <time>2014-09-21T09:26:22Z</time>
      </trkpt>
      <trkpt lat="41.654773395" lon="2.605276860">
        <ele>499.54</ele>
        <time>2014-09-21T09:26:27Z</time>
      </trkpt>
      <trkpt lat="41.654769623" lon="2.605444498">
        <ele>500.98</ele>
        <time>2014-09-21T09:26:36Z</time>
      </trkpt>
      <trkpt lat="41.654768282" lon="2.605461011">
        <ele>500.98</ele>
        <time>2014-09-21T09:26:37Z</time>
      </trkpt>
      <trkpt lat="41.654728384" lon="2.605660919">
        <ele>502.91</ele>
        <time>2014-09-21T09:26:48Z</time>
      </trkpt>
      <trkpt lat="41.654684630" lon="2.605799975">
        <ele>503.87</ele>
        <time>2014-09-21T09:26:57Z</time>
      </trkpt>
      <trkpt lat="41.654625957" lon="2.605930733">
        <ele>504.83</ele>
        <time>2014-09-21T09:27:05Z</time>
      </trkpt>
      <trkpt lat="41.654575414" lon="2.606072219">
        <ele>506.27</ele>
        <time>2014-09-21T09:27:14Z</time>
      </trkpt>
      <trkpt lat="41.654559153" lon="2.606170287">
        <ele>506.75</ele>
        <time>2014-09-21T09:27:19Z</time>
      </trkpt>
      <trkpt lat="41.654631740" lon="2.606225357">
        <ele>508.67</ele>
        <time>2014-09-21T09:27:26Z</time>
      </trkpt>
      <trkpt lat="41.654659149" lon="2.606203396">
        <ele>509.64</ele>
        <time>2014-09-21T09:27:30Z</time>
      </trkpt>
      <trkpt lat="41.654739029" lon="2.606075907">
        <ele>512.04</ele>
        <time>2014-09-21T09:27:42Z</time>
      </trkpt>
      <trkpt lat="41.654815388" lon="2.605969122">
        <ele>514.44</ele>
        <time>2014-09-21T09:27:52Z</time>
      </trkpt>
      <trkpt lat="41.654837097" lon="2.605921596">
        <ele>514.92</ele>
        <time>2014-09-21T09:27:59Z</time>
      </trkpt>
      <trkpt lat="41.654880012" lon="2.605866779">
        <ele>516.85</ele>
        <time>2014-09-21T09:28:10Z</time>
      </trkpt>
      <trkpt lat="41.654894513" lon="2.605854709">
        <ele>517.33</ele>
        <time>2014-09-21T09:28:17Z</time>
      </trkpt>
      <trkpt lat="41.654918821" lon="2.605837526">
        <ele>517.33</ele>
        <time>2014-09-21T09:28:22Z</time>
      </trkpt>
      <trkpt lat="41.654952013" lon="2.605797712">
        <ele>518.29</ele>
        <time>2014-09-21T09:28:31Z</time>
      </trkpt>
      <trkpt lat="41.655009429" lon="2.605737865">
        <ele>519.25</ele>
        <time>2014-09-21T09:28:39Z</time>
      </trkpt>
      <trkpt lat="41.655081094" lon="2.605667792">
        <ele>521.17</ele>
        <time>2014-09-21T09:28:48Z</time>
      </trkpt>
      <trkpt lat="41.655158962" lon="2.605564611">
        <ele>523.58</ele>
        <time>2014-09-21T09:29:00Z</time>
      </trkpt>
      <trkpt lat="41.655192406" lon="2.605477523">
        <ele>525.02</ele>
        <time>2014-09-21T09:29:09Z</time>
      </trkpt>
      <trkpt lat="41.655197854" lon="2.605404182">
        <ele>526.46</ele>
        <time>2014-09-21T09:29:14Z</time>
      </trkpt>
      <trkpt lat="41.655238758" lon="2.605316842">
        <ele>527.42</ele>
        <time>2014-09-21T09:29:23Z</time>
      </trkpt>
      <trkpt lat="41.655305729" lon="2.605198993">
        <ele>529.34</ele>
        <time>2014-09-21T09:29:33Z</time>
      </trkpt>
      <trkpt lat="41.655328696" lon="2.605175020">
        <ele>530.30</ele>
        <time>2014-09-21T09:29:35Z</time>
      </trkpt>
      <trkpt lat="41.655395499" lon="2.605098661">
        <ele>531.27</ele>
        <time>2014-09-21T09:29:42Z</time>
      </trkpt>
      <trkpt lat="41.655418801" lon="2.605041748">
        <ele>531.75</ele>
        <time>2014-09-21T09:29:46Z</time>
      </trkpt>
      <trkpt lat="41.655489125" lon="2.604983745">
        <ele>533.19</ele>
        <time>2014-09-21T09:29:53Z</time>
      </trkpt>
      <trkpt lat="41.655588786" lon="2.604922222">
        <ele>534.15</ele>
        <time>2014-09-21T09:30:03Z</time>
      </trkpt>
      <trkpt lat="41.655605298" lon="2.604914175">
        <ele>534.63</ele>
        <time>2014-09-21T09:30:05Z</time>
      </trkpt>
      <trkpt lat="41.655684004" lon="2.604851227">
        <ele>535.11</ele>
        <time>2014-09-21T09:30:12Z</time>
      </trkpt>
      <trkpt lat="41.655794562" lon="2.604763050">
        <ele>536.07</ele>
        <time>2014-09-21T09:30:22Z</time>
      </trkpt>
      <trkpt lat="41.655898078" lon="2.604659198">
        <ele>537.51</ele>
        <time>2014-09-21T09:30:33Z</time>
      </trkpt>
      <trkpt lat="41.655997236" lon="2.604549647">
        <ele>537.99</ele>
        <time>2014-09-21T09:30:41Z</time>
      </trkpt>
      <trkpt lat="41.656078792" lon="2.604446717">
        <ele>538.96</ele>
        <time>2014-09-21T09:30:50Z</time>
      </trkpt>
      <trkpt lat="41.656088515" lon="2.604440011">
        <ele>539.44</ele>
        <time>2014-09-21T09:30:50Z</time>
      </trkpt>
      <trkpt lat="41.656163366" lon="2.604350576">
        <ele>540.88</ele>
        <time>2014-09-21T09:30:59Z</time>
      </trkpt>
      <trkpt lat="41.656186332" lon="2.604268853">
        <ele>541.36</ele>
        <time>2014-09-21T09:31:07Z</time>
      </trkpt>
      <trkpt lat="41.656188092" lon="2.604231302">
        <ele>541.84</ele>
        <time>2014-09-21T09:31:11Z</time>
      </trkpt>
      <trkpt lat="41.656164623" lon="2.604110016">
        <ele>543.28</ele>
        <time>2014-09-21T09:31:18Z</time>
      </trkpt>
      <trkpt lat="41.656120953" lon="2.603916394">
        <ele>545.20</ele>
        <time>2014-09-21T09:31:30Z</time>
      </trkpt>
      <trkpt lat="41.656056832" lon="2.603776248">
        <ele>546.65</ele>
        <time>2014-09-21T09:31:39Z</time>
      </trkpt>
      <trkpt lat="41.655973348" lon="2.603630571">
        <ele>547.61</ele>
        <time>2014-09-21T09:31:49Z</time>
      </trkpt>
      <trkpt lat="41.655907885" lon="2.603494365">
        <ele>549.53</ele>
        <time>2014-09-21T09:31:58Z</time>
      </trkpt>
      <trkpt lat="41.655844350" lon="2.603336450">
        <ele>550.97</ele>
        <time>2014-09-21T09:32:07Z</time>
      </trkpt>
      <trkpt lat="41.655803279" lon="2.603188761">
        <ele>552.41</ele>
        <time>2014-09-21T09:32:17Z</time>
      </trkpt>
      <trkpt lat="41.655775367" lon="2.603127657">
        <ele>553.38</ele>
        <time>2014-09-21T09:32:21Z</time>
      </trkpt>
      <trkpt lat="41.655716778" lon="2.602961276">
        <ele>554.82</ele>
        <time>2014-09-21T09:32:31Z</time>
      </trkpt>
      <trkpt lat="41.655668666" lon="2.602868153">
        <ele>554.82</ele>
        <time>2014-09-21T09:32:36Z</time>
      </trkpt>
      <trkpt lat="41.655662463" lon="2.602772599">
        <ele>554.82</ele>
        <time>2014-09-21T09:32:40Z</time>
      </trkpt>
      <trkpt lat="41.655708983" lon="2.602550395">
        <ele>555.78</ele>
        <time>2014-09-21T09:32:48Z</time>
      </trkpt>
      <trkpt lat="41.655867987" lon="2.602402957">
        <ele>557.22</ele>
        <time>2014-09-21T09:33:01Z</time>
      </trkpt>
      <trkpt lat="41.655992961" lon="2.602288293">
        <ele>558.66</ele>
        <time>2014-09-21T09:33:09Z</time>
      </trkpt>
      <trkpt lat="41.656160097" lon="2.602173377">
        <ele>559.62</ele>
        <time>2014-09-21T09:33:20Z</time>
      </trkpt>
      <trkpt lat="41.656292698" lon="2.602062149">
        <ele>561.07</ele>
        <time>2014-09-21T09:33:30Z</time>
      </trkpt>
      <trkpt lat="41.656338883" lon="2.601971876">
        <ele>562.03</ele>
        <time>2014-09-21T09:33:37Z</time>
      </trkpt>
      <trkpt lat="41.656389258" lon="2.601876490">
        <ele>563.95</ele>
        <time>2014-09-21T09:33:46Z</time>
      </trkpt>
      <trkpt lat="41.656458828" lon="2.601724275">
        <ele>564.91</ele>
        <time>2014-09-21T09:33:55Z</time>
      </trkpt>
      <trkpt lat="41.656475843" lon="2.601700135">
        <ele>565.39</ele>
        <time>2014-09-21T09:33:58Z</time>
      </trkpt>
      <trkpt lat="41.656543904" lon="2.601741038">
        <ele>566.83</ele>
        <time>2014-09-21T09:34:05Z</time>
      </trkpt>
      <trkpt lat="41.656540551" lon="2.601749923">
        <ele>566.83</ele>
        <time>2014-09-21T09:34:07Z</time>
      </trkpt>
      <trkpt lat="41.656495289" lon="2.601880681">
        <ele>568.76</ele>
        <time>2014-09-21T09:34:17Z</time>
      </trkpt>
      <trkpt lat="41.656461007" lon="2.602002051">
        <ele>569.72</ele>
        <time>2014-09-21T09:34:24Z</time>
      </trkpt>
      <trkpt lat="41.656424713" lon="2.602210844">
        <ele>572.12</ele>
        <time>2014-09-21T09:34:36Z</time>
      </trkpt>
      <trkpt lat="41.656343576" lon="2.602316540">
        <ele>572.60</ele>
        <time>2014-09-21T09:34:45Z</time>
      </trkpt>
      <trkpt lat="41.656268307" lon="2.602385523">
        <ele>573.08</ele>
        <time>2014-09-21T09:34:50Z</time>
      </trkpt>
      <trkpt lat="41.656174933" lon="2.602528686">
        <ele>574.04</ele>
        <time>2014-09-21T09:34:59Z</time>
      </trkpt>
      <trkpt lat="41.656150206" lon="2.602699006">
        <ele>575.01</ele>
        <time>2014-09-21T09:35:08Z</time>
      </trkpt>
      <trkpt lat="41.656164874" lon="2.602888689">
        <ele>575.97</ele>
        <time>2014-09-21T09:35:18Z</time>
      </trkpt>
      <trkpt lat="41.656196893" lon="2.602965467">
        <ele>575.97</ele>
        <time>2014-09-21T09:35:22Z</time>
      </trkpt>
      <trkpt lat="41.656284149" lon="2.603163699">
        <ele>576.93</ele>
        <time>2014-09-21T09:35:32Z</time>
      </trkpt>
      <trkpt lat="41.656359837" lon="2.603283392">
        <ele>577.41</ele>
        <time>2014-09-21T09:35:39Z</time>
      </trkpt>
      <trkpt lat="41.656461091" lon="2.603399817">
        <ele>577.89</ele>
        <time>2014-09-21T09:35:46Z</time>
      </trkpt>
      <trkpt lat="41.656567457" lon="2.603479277">
        <ele>578.37</ele>
        <time>2014-09-21T09:35:53Z</time>
      </trkpt>
      <trkpt lat="41.656695616" lon="2.603622692">
        <ele>579.33</ele>
        <time>2014-09-21T09:36:02Z</time>
      </trkpt>
      <trkpt lat="41.656776586" lon="2.603767531">
        <ele>579.33</ele>
        <time>2014-09-21T09:36:09Z</time>
      </trkpt>
      <trkpt lat="41.656852526" lon="2.603972217">
        <ele>579.33</ele>
        <time>2014-09-21T09:36:17Z</time>
      </trkpt>
      <trkpt lat="41.656878426" lon="2.604040446">
        <ele>579.33</ele>
        <time>2014-09-21T09:36:21Z</time>
      </trkpt>
      <trkpt lat="41.656882281" lon="2.604240438">
        <ele>579.81</ele>
        <time>2014-09-21T09:36:30Z</time>
      </trkpt>
      <trkpt lat="41.656826877" lon="2.604427857">
        <ele>580.29</ele>
        <time>2014-09-21T09:36:37Z</time>
      </trkpt>
      <trkpt lat="41.656805084" lon="2.604502959">
        <ele>580.29</ele>
        <time>2014-09-21T09:36:40Z</time>
      </trkpt>
      <trkpt lat="41.656732916" lon="2.604693564">
        <ele>581.25</ele>
        <time>2014-09-21T09:36:49Z</time>
      </trkpt>
      <trkpt lat="41.656662508" lon="2.604870841">
        <ele>581.73</ele>
        <time>2014-09-21T09:36:58Z</time>
      </trkpt>
      <trkpt lat="41.656641805" lon="2.604913086">
        <ele>582.22</ele>
        <time>2014-09-21T09:36:59Z</time>
      </trkpt>
      <trkpt lat="41.656527056" lon="2.605131937">
        <ele>582.70</ele>
        <time>2014-09-21T09:37:10Z</time>
      </trkpt>
      <trkpt lat="41.656457654" lon="2.605294462">
        <ele>584.62</ele>
        <time>2014-09-21T09:37:18Z</time>
      </trkpt>
      <trkpt lat="41.656405016" lon="2.605421029">
        <ele>586.06</ele>
        <time>2014-09-21T09:37:25Z</time>
      </trkpt>
      <trkpt lat="41.656375260" lon="2.605477775">
        <ele>586.54</ele>
        <time>2014-09-21T09:37:29Z</time>
      </trkpt>
      <trkpt lat="41.656298985" lon="2.605587578">
        <ele>587.98</ele>
        <time>2014-09-21T09:37:38Z</time>
      </trkpt>
      <trkpt lat="41.656194295" lon="2.605742391">
        <ele>588.95</ele>
        <time>2014-09-21T09:37:46Z</time>
      </trkpt>
      <trkpt lat="41.656151799" lon="2.605939115">
        <ele>589.91</ele>
        <time>2014-09-21T09:37:55Z</time>
      </trkpt>
      <trkpt lat="41.656145428" lon="2.606124606">
        <ele>590.39</ele>
        <time>2014-09-21T09:38:02Z</time>
      </trkpt>
      <trkpt lat="41.656127072" lon="2.606280510">
        <ele>591.35</ele>
        <time>2014-09-21T09:38:11Z</time>
      </trkpt>
      <trkpt lat="41.656053730" lon="2.606488716">
        <ele>593.75</ele>
        <time>2014-09-21T09:38:21Z</time>
      </trkpt>
      <trkpt lat="41.655971252" lon="2.606639758">
        <ele>594.71</ele>
        <time>2014-09-21T09:38:32Z</time>
      </trkpt>
      <trkpt lat="41.655922386" lon="2.606701030">
        <ele>595.67</ele>
        <time>2014-09-21T09:38:35Z</time>
      </trkpt>
      <trkpt lat="41.655956752" lon="2.606839499">
        <ele>597.12</ele>
        <time>2014-09-21T09:38:44Z</time>
      </trkpt>
      <trkpt lat="41.656001092" lon="2.606814604">
        <ele>597.12</ele>
        <time>2014-09-21T09:38:47Z</time>
      </trkpt>
      <trkpt lat="41.656090862" lon="2.606704550">
        <ele>599.04</ele>
        <time>2014-09-21T09:38:54Z</time>
      </trkpt>
      <trkpt lat="41.656197228" lon="2.606566332">
        <ele>601.92</ele>
        <time>2014-09-21T09:39:05Z</time>
      </trkpt>
      <trkpt lat="41.656263194" lon="2.606455105">
        <ele>602.40</ele>
        <time>2014-09-21T09:39:12Z</time>
      </trkpt>
      <trkpt lat="41.656293620" lon="2.606303811">
        <ele>603.36</ele>
        <time>2014-09-21T09:39:22Z</time>
      </trkpt>
      <trkpt lat="41.656311474" lon="2.606191075">
        <ele>604.33</ele>
        <time>2014-09-21T09:39:27Z</time>
      </trkpt>
      <trkpt lat="41.656342822" lon="2.606120667">
        <ele>604.81</ele>
        <time>2014-09-21T09:39:31Z</time>
      </trkpt>
      <trkpt lat="41.656436280" lon="2.606032154">
        <ele>606.25</ele>
        <time>2014-09-21T09:39:40Z</time>
      </trkpt>
      <trkpt lat="41.656524877" lon="2.605938444">
        <ele>607.69</ele>
        <time>2014-09-21T09:39:48Z</time>
      </trkpt>
      <trkpt lat="41.656534516" lon="2.605925033">
        <ele>607.69</ele>
        <time>2014-09-21T09:39:48Z</time>
      </trkpt>
      <trkpt lat="41.656647840" lon="2.605782876">
        <ele>609.13</ele>
        <time>2014-09-21T09:39:59Z</time>
      </trkpt>
      <trkpt lat="41.656758900" lon="2.605635941">
        <ele>610.57</ele>
        <time>2014-09-21T09:40:09Z</time>
      </trkpt>
      <trkpt lat="41.656894854" lon="2.605486492">
        <ele>612.02</ele>
        <time>2014-09-21T09:40:18Z</time>
      </trkpt>
      <trkpt lat="41.656968196" lon="2.605376354">
        <ele>612.98</ele>
        <time>2014-09-21T09:40:28Z</time>
      </trkpt>
      <trkpt lat="41.657040699" lon="2.605287505">
        <ele>614.42</ele>
        <time>2014-09-21T09:40:35Z</time>
      </trkpt>
      <trkpt lat="41.657060816" lon="2.605259091">
        <ele>614.90</ele>
        <time>2014-09-21T09:40:37Z</time>
      </trkpt>
      <trkpt lat="41.657143797" lon="2.605137386">
        <ele>616.82</ele>
        <time>2014-09-21T09:40:48Z</time>
      </trkpt>
      <trkpt lat="41.657270447" lon="2.604981566">
        <ele>618.26</ele>
        <time>2014-09-21T09:40:58Z</time>
      </trkpt>
      <trkpt lat="41.657346723" lon="2.604905458">
        <ele>619.23</ele>
        <time>2014-09-21T09:41:05Z</time>
      </trkpt>
      <trkpt lat="41.657404474" lon="2.604810743">
        <ele>620.19</ele>
        <time>2014-09-21T09:41:12Z</time>
      </trkpt>
      <trkpt lat="41.657467422" lon="2.604718793">
        <ele>621.63</ele>
        <time>2014-09-21T09:41:21Z</time>
      </trkpt>
      <trkpt lat="41.657513271" lon="2.604604213">
        <ele>623.07</ele>
        <time>2014-09-21T09:41:29Z</time>
      </trkpt>
      <trkpt lat="41.657543614" lon="2.604498601">
        <ele>624.03</ele>
        <time>2014-09-21T09:41:36Z</time>
      </trkpt>
      <trkpt lat="41.657588038" lon="2.604350828">
        <ele>625.47</ele>
        <time>2014-09-21T09:41:47Z</time>
      </trkpt>
      <trkpt lat="41.657664229" lon="2.604183022">
        <ele>626.44</ele>
        <time>2014-09-21T09:41:54Z</time>
      </trkpt>
      <trkpt lat="41.657670516" lon="2.604171874">
        <ele>626.44</ele>
        <time>2014-09-21T09:41:55Z</time>
      </trkpt>
      <trkpt lat="41.657696751" lon="2.604130048">
        <ele>626.44</ele>
        <time>2014-09-21T09:41:59Z</time>
      </trkpt>
      <trkpt lat="41.657836393" lon="2.604026364">
        <ele>628.36</ele>
        <time>2014-09-21T09:42:09Z</time>
      </trkpt>
      <trkpt lat="41.658001098" lon="2.603970876">
        <ele>629.80</ele>
        <time>2014-09-21T09:42:18Z</time>
      </trkpt>
      <trkpt lat="41.658115678" lon="2.603963416">
        <ele>629.80</ele>
        <time>2014-09-21T09:42:25Z</time>
      </trkpt>
      <trkpt lat="41.658132107" lon="2.603962494">
        <ele>628.36</ele>
        <time>2014-09-21T09:42:27Z</time>
      </trkpt>
      <trkpt lat="41.658137304" lon="2.603943719">
        <ele>628.36</ele>
        <time>2014-09-21T09:42:34Z</time>
      </trkpt>
      <trkpt lat="41.658151385" lon="2.603913628">
        <ele>628.36</ele>
        <time>2014-09-21T09:42:51Z</time>
      </trkpt>
      <trkpt lat="41.658165467" lon="2.603914801">
        <ele>628.84</ele>
        <time>2014-09-21T09:43:05Z</time>
      </trkpt>
      <trkpt lat="41.658152643" lon="2.603915556">
        <ele>628.84</ele>
        <time>2014-09-21T09:43:19Z</time>
      </trkpt>
      <trkpt lat="41.658148200" lon="2.603921255">
        <ele>628.36</ele>
        <time>2014-09-21T09:43:28Z</time>
      </trkpt>
      <trkpt lat="41.658169323" lon="2.603923267">
        <ele>628.36</ele>
        <time>2014-09-21T09:43:42Z</time>
      </trkpt>
      <trkpt lat="41.658174771" lon="2.603914969">
        <ele>628.84</ele>
        <time>2014-09-21T09:43:54Z</time>
      </trkpt>
      <trkpt lat="41.658185919" lon="2.603850680">
        <ele>628.84</ele>
        <time>2014-09-21T09:43:59Z</time>
      </trkpt>
      <trkpt lat="41.658208466" lon="2.603776667">
        <ele>629.80</ele>
        <time>2014-09-21T09:44:03Z</time>
      </trkpt>
      <trkpt lat="41.658216429" lon="2.603674073">
        <ele>630.76</ele>
        <time>2014-09-21T09:44:10Z</time>
      </trkpt>
      <trkpt lat="41.658230175" lon="2.603548177">
        <ele>631.72</ele>
        <time>2014-09-21T09:44:17Z</time>
      </trkpt>
      <trkpt lat="41.658224308" lon="2.603411552">
        <ele>632.68</ele>
        <time>2014-09-21T09:44:25Z</time>
      </trkpt>
      <trkpt lat="41.658225900" lon="2.603299737">
        <ele>633.17</ele>
        <time>2014-09-21T09:44:32Z</time>
      </trkpt>
      <trkpt lat="41.658235875" lon="2.603151964">
        <ele>634.61</ele>
        <time>2014-09-21T09:44:41Z</time>
      </trkpt>
      <trkpt lat="41.658240317" lon="2.603096560">
        <ele>634.61</ele>
        <time>2014-09-21T09:44:44Z</time>
      </trkpt>
      <trkpt lat="41.658273593" lon="2.602904363">
        <ele>635.57</ele>
        <time>2014-09-21T09:44:53Z</time>
      </trkpt>
      <trkpt lat="41.658307875" lon="2.602727505">
        <ele>635.57</ele>
        <time>2014-09-21T09:45:00Z</time>
      </trkpt>
      <trkpt lat="41.658301002" lon="2.602524243">
        <ele>635.57</ele>
        <time>2014-09-21T09:45:09Z</time>
      </trkpt>
      <trkpt lat="41.658291866" lon="2.602479987">
        <ele>635.57</ele>
        <time>2014-09-21T09:45:11Z</time>
      </trkpt>
      <trkpt lat="41.658257333" lon="2.602339758">
        <ele>635.57</ele>
        <time>2014-09-21T09:45:18Z</time>
      </trkpt>
      <trkpt lat="41.658248615" lon="2.602287455">
        <ele>635.57</ele>
        <time>2014-09-21T09:45:19Z</time>
      </trkpt>
      <trkpt lat="41.658199414" lon="2.602011774">
        <ele>636.05</ele>
        <time>2014-09-21T09:45:28Z</time>
      </trkpt>
      <trkpt lat="41.658164377" lon="2.601893086">
        <ele>636.05</ele>
        <time>2014-09-21T09:45:33Z</time>
      </trkpt>
      <trkpt lat="41.658129006" lon="2.601774566">
        <ele>634.61</ele>
        <time>2014-09-21T09:45:37Z</time>
      </trkpt>
      <trkpt lat="41.658060945" lon="2.601416491">
        <ele>632.68</ele>
        <time>2014-09-21T09:45:45Z</time>
      </trkpt>
      <trkpt lat="41.658030351" lon="2.600980213">
        <ele>632.20</ele>
        <time>2014-09-21T09:45:52Z</time>
      </trkpt>
      <trkpt lat="41.658046025" lon="2.600655582">
        <ele>632.20</ele>
        <time>2014-09-21T09:45:59Z</time>
      </trkpt>
      <trkpt lat="41.658031608" lon="2.600363724">
        <ele>631.24</ele>
        <time>2014-09-21T09:46:06Z</time>
      </trkpt>
      <trkpt lat="41.658013754" lon="2.600179155">
        <ele>631.24</ele>
        <time>2014-09-21T09:46:08Z</time>
      </trkpt>
      <trkpt lat="41.658020460" lon="2.599930128">
        <ele>631.24</ele>
        <time>2014-09-21T09:46:15Z</time>
      </trkpt>
      <trkpt lat="41.658034206" lon="2.599806998">
        <ele>632.68</ele>
        <time>2014-09-21T09:46:18Z</time>
      </trkpt>
      <trkpt lat="41.658050383" lon="2.599563588">
        <ele>633.65</ele>
        <time>2014-09-21T09:46:27Z</time>
      </trkpt>
      <trkpt lat="41.658076535" lon="2.599186653">
        <ele>633.65</ele>
        <time>2014-09-21T09:46:34Z</time>
      </trkpt>
      <trkpt lat="41.658086593" lon="2.598719530">
        <ele>631.72</ele>
        <time>2014-09-21T09:46:43Z</time>
      </trkpt>
      <trkpt lat="41.658071087" lon="2.598483579">
        <ele>631.72</ele>
        <time>2014-09-21T09:46:48Z</time>
      </trkpt>
      <trkpt lat="41.658014928" lon="2.598273948">
        <ele>634.13</ele>
        <time>2014-09-21T09:46:57Z</time>
      </trkpt>
      <trkpt lat="41.657991040" lon="2.598138580">
        <ele>635.57</ele>
        <time>2014-09-21T09:47:05Z</time>
      </trkpt>
      <trkpt lat="41.657995147" lon="2.598101616">
        <ele>635.57</ele>
        <time>2014-09-21T09:47:07Z</time>
      </trkpt>
      <trkpt lat="41.658014257" lon="2.598060796">
        <ele>636.05</ele>
        <time>2014-09-21T09:47:14Z</time>
      </trkpt>
      <trkpt lat="41.658024651" lon="2.598016204">
        <ele>636.05</ele>
        <time>2014-09-21T09:47:21Z</time>
      </trkpt>
      <trkpt lat="41.658057257" lon="2.597919226">
        <ele>636.53</ele>
        <time>2014-09-21T09:47:28Z</time>
      </trkpt>
      <trkpt lat="41.658145769" lon="2.597775309">
        <ele>637.97</ele>
        <time>2014-09-21T09:47:37Z</time>
      </trkpt>
      <trkpt lat="41.658215591" lon="2.597664919">
        <ele>639.89</ele>
        <time>2014-09-21T09:47:46Z</time>
      </trkpt>
      <trkpt lat="41.658245011" lon="2.597555451">
        <ele>641.34</ele>
        <time>2014-09-21T09:47:53Z</time>
      </trkpt>
      <trkpt lat="41.658259260" lon="2.597518152">
        <ele>642.30</ele>
        <time>2014-09-21T09:47:56Z</time>
      </trkpt>
      <trkpt lat="41.658266720" lon="2.597471632">
        <ele>642.78</ele>
        <time>2014-09-21T09:47:58Z</time>
      </trkpt>
      <trkpt lat="41.658324891" lon="2.597338360">
        <ele>645.18</ele>
        <time>2014-09-21T09:48:08Z</time>
      </trkpt>
      <trkpt lat="41.658358418" lon="2.597223193">
        <ele>647.59</ele>
        <time>2014-09-21T09:48:17Z</time>
      </trkpt>
      <trkpt lat="41.658377948" lon="2.597181954">
        <ele>648.07</ele>
        <time>2014-09-21T09:48:22Z</time>
      </trkpt>
      <trkpt lat="41.658456738" lon="2.597050944">
        <ele>649.99</ele>
        <time>2014-09-21T09:48:31Z</time>
      </trkpt>
      <trkpt lat="41.658507281" lon="2.596960420">
        <ele>651.43</ele>
        <time>2014-09-21T09:48:38Z</time>
      </trkpt>
      <trkpt lat="41.658545083" lon="2.596892778">
        <ele>652.39</ele>
        <time>2014-09-21T09:48:43Z</time>
      </trkpt>
      <trkpt lat="41.658621778" lon="2.596782891">
        <ele>653.83</ele>
        <time>2014-09-21T09:48:53Z</time>
      </trkpt>
      <trkpt lat="41.658719343" lon="2.596681638">
        <ele>654.31</ele>
        <time>2014-09-21T09:49:02Z</time>
      </trkpt>
      <trkpt lat="41.658760079" lon="2.596645763">
        <ele>654.80</ele>
        <time>2014-09-21T09:49:06Z</time>
      </trkpt>
      <trkpt lat="41.658871391" lon="2.596552054">
        <ele>655.76</ele>
        <time>2014-09-21T09:49:16Z</time>
      </trkpt>
      <trkpt lat="41.658905002" lon="2.596511904">
        <ele>656.24</ele>
        <time>2014-09-21T09:49:21Z</time>
      </trkpt>
      <trkpt lat="41.658968286" lon="2.596462954">
        <ele>656.72</ele>
        <time>2014-09-21T09:49:28Z</time>
      </trkpt>
      <trkpt lat="41.659051350" lon="2.596371843">
        <ele>659.12</ele>
        <time>2014-09-21T09:49:37Z</time>
      </trkpt>
      <trkpt lat="41.659093092" lon="2.596310571">
        <ele>659.60</ele>
        <time>2014-09-21T09:49:42Z</time>
      </trkpt>
      <trkpt lat="41.659180264" lon="2.596150644">
        <ele>660.08</ele>
        <time>2014-09-21T09:49:51Z</time>
      </trkpt>
      <trkpt lat="41.659206248" lon="2.596051989">
        <ele>661.04</ele>
        <time>2014-09-21T09:50:00Z</time>
      </trkpt>
      <trkpt lat="41.659222425" lon="2.596009661">
        <ele>662.01</ele>
        <time>2014-09-21T09:50:05Z</time>
      </trkpt>
      <trkpt lat="41.659237261" lon="2.595965237">
        <ele>662.49</ele>
        <time>2014-09-21T09:50:08Z</time>
      </trkpt>
      <trkpt lat="41.659248744" lon="2.595939504">
        <ele>662.49</ele>
        <time>2014-09-21T09:50:10Z</time>
      </trkpt>
      <trkpt lat="41.659308675" lon="2.595774045">
        <ele>663.45</ele>
        <time>2014-09-21T09:50:21Z</time>
      </trkpt>
      <trkpt lat="41.659426524" lon="2.595551422">
        <ele>664.41</ele>
        <time>2014-09-21T09:50:29Z</time>
      </trkpt>
      <trkpt lat="41.659522749" lon="2.595368361">
        <ele>664.41</ele>
        <time>2014-09-21T09:50:36Z</time>
      </trkpt>
      <trkpt lat="41.659592654" lon="2.595105756">
        <ele>664.41</ele>
        <time>2014-09-21T09:50:45Z</time>
      </trkpt>
      <trkpt lat="41.659616291" lon="2.594879780">
        <ele>664.41</ele>
        <time>2014-09-21T09:50:52Z</time>
      </trkpt>
      <trkpt lat="41.659663313" lon="2.594673250">
        <ele>664.41</ele>
        <time>2014-09-21T09:50:59Z</time>
      </trkpt>
      <trkpt lat="41.659712012" lon="2.594478287">
        <ele>665.37</ele>
        <time>2014-09-21T09:51:06Z</time>
      </trkpt>
      <trkpt lat="41.659741013" lon="2.594280893">
        <ele>665.37</ele>
        <time>2014-09-21T09:51:13Z</time>
      </trkpt>
      <trkpt lat="41.659733721" lon="2.594112585">
        <ele>662.97</ele>
        <time>2014-09-21T09:51:18Z</time>
      </trkpt>
      <trkpt lat="41.659713018" lon="2.593922651">
        <ele>662.49</ele>
        <time>2014-09-21T09:51:23Z</time>
      </trkpt>
      <trkpt lat="41.659704301" lon="2.593708828">
        <ele>662.01</ele>
        <time>2014-09-21T09:51:32Z</time>
      </trkpt>
      <trkpt lat="41.659693823" lon="2.593661470">
        <ele>662.01</ele>
        <time>2014-09-21T09:51:34Z</time>
      </trkpt>
      <trkpt lat="41.659682675" lon="2.593564995">
        <ele>663.45</ele>
        <time>2014-09-21T09:51:37Z</time>
      </trkpt>
      <trkpt lat="41.659659122" lon="2.593359219">
        <ele>663.93</ele>
        <time>2014-09-21T09:51:46Z</time>
      </trkpt>
      <trkpt lat="41.659644538" lon="2.593216727">
        <ele>663.93</ele>
        <time>2014-09-21T09:51:51Z</time>
      </trkpt>
      <trkpt lat="41.659635401" lon="2.593105666">
        <ele>664.41</ele>
        <time>2014-09-21T09:51:55Z</time>
      </trkpt>
      <trkpt lat="41.659603047" lon="2.592819257">
        <ele>665.37</ele>
        <time>2014-09-21T09:52:05Z</time>
      </trkpt>
      <trkpt lat="41.659601455" lon="2.592801152">
        <ele>665.37</ele>
        <time>2014-09-21T09:52:05Z</time>
      </trkpt>
      <trkpt lat="41.659593911" lon="2.592621695">
        <ele>666.81</ele>
        <time>2014-09-21T09:52:14Z</time>
      </trkpt>
      <trkpt lat="41.659579829" lon="2.592330424">
        <ele>667.29</ele>
        <time>2014-09-21T09:52:24Z</time>
      </trkpt>
      <trkpt lat="41.659574632" lon="2.592230428">
        <ele>667.29</ele>
        <time>2014-09-21T09:52:28Z</time>
      </trkpt>
      <trkpt lat="41.659557869" lon="2.592033370">
        <ele>668.25</ele>
        <time>2014-09-21T09:52:36Z</time>
      </trkpt>
      <trkpt lat="41.659554013" lon="2.592013924">
        <ele>668.73</ele>
        <time>2014-09-21T09:52:38Z</time>
      </trkpt>
      <trkpt lat="41.659539512" lon="2.591928512">
        <ele>669.22</ele>
        <time>2014-09-21T09:52:42Z</time>
      </trkpt>
      <trkpt lat="41.659531130" lon="2.591890793">
        <ele>669.22</ele>
        <time>2014-09-21T09:52:43Z</time>
      </trkpt>
      <trkpt lat="41.659525179" lon="2.591803119">
        <ele>669.70</ele>
        <time>2014-09-21T09:52:47Z</time>
      </trkpt>
      <trkpt lat="41.659540853" lon="2.591611173">
        <ele>669.70</ele>
        <time>2014-09-21T09:52:54Z</time>
      </trkpt>
      <trkpt lat="41.659597599" lon="2.591397602">
        <ele>669.70</ele>
        <time>2014-09-21T09:53:01Z</time>
      </trkpt>
      <trkpt lat="41.659655685" lon="2.591144804">
        <ele>669.70</ele>
        <time>2014-09-21T09:53:08Z</time>
      </trkpt>
      <trkpt lat="41.659698768" lon="2.590928719">
        <ele>669.22</ele>
        <time>2014-09-21T09:53:13Z</time>
      </trkpt>
      <trkpt lat="41.659726764" lon="2.590768792">
        <ele>669.22</ele>
        <time>2014-09-21T09:53:18Z</time>
      </trkpt>
      <trkpt lat="41.659863557" lon="2.590444077">
        <ele>669.22</ele>
        <time>2014-09-21T09:53:25Z</time>
      </trkpt>
      <trkpt lat="41.659910160" lon="2.590311894">
        <ele>667.77</ele>
        <time>2014-09-21T09:53:29Z</time>
      </trkpt>
      <trkpt lat="41.659936060" lon="2.590119781">
        <ele>667.29</ele>
        <time>2014-09-21T09:53:34Z</time>
      </trkpt>
      <trkpt lat="41.660002780" lon="2.589875365">
        <ele>667.29</ele>
        <time>2014-09-21T09:53:43Z</time>
      </trkpt>
      <trkpt lat="41.660068494" lon="2.589655256">
        <ele>668.25</ele>
        <time>2014-09-21T09:53:48Z</time>
      </trkpt>
      <trkpt lat="41.660191205" lon="2.589425005">
        <ele>668.25</ele>
        <time>2014-09-21T09:53:55Z</time>
      </trkpt>
      <trkpt lat="41.660222386" lon="2.589216128">
        <ele>669.22</ele>
        <time>2014-09-21T09:54:02Z</time>
      </trkpt>
      <trkpt lat="41.660212328" lon="2.589071959">
        <ele>670.18</ele>
        <time>2014-09-21T09:54:09Z</time>
      </trkpt>
      <trkpt lat="41.660235378" lon="2.588863585">
        <ele>669.70</ele>
        <time>2014-09-21T09:54:14Z</time>
      </trkpt>
      <trkpt lat="41.660244263" lon="2.588700976">
        <ele>669.70</ele>
        <time>2014-09-21T09:54:21Z</time>
      </trkpt>
      <trkpt lat="41.660182320" lon="2.588533590">
        <ele>669.70</ele>
        <time>2014-09-21T09:54:28Z</time>
      </trkpt>
      <trkpt lat="41.660158432" lon="2.588478856">
        <ele>670.66</ele>
        <time>2014-09-21T09:54:31Z</time>
      </trkpt>
      <trkpt lat="41.660137980" lon="2.588422027">
        <ele>671.14</ele>
        <time>2014-09-21T09:54:35Z</time>
      </trkpt>
      <trkpt lat="41.660129514" lon="2.588327479">
        <ele>672.10</ele>
        <time>2014-09-21T09:54:40Z</time>
      </trkpt>
      <trkpt lat="41.660151391" lon="2.588234943">
        <ele>672.58</ele>
        <time>2014-09-21T09:54:44Z</time>
      </trkpt>
      <trkpt lat="41.660189110" lon="2.588135701">
        <ele>672.58</ele>
        <time>2014-09-21T09:54:47Z</time>
      </trkpt>
      <trkpt lat="41.660236719" lon="2.588009386">
        <ele>673.06</ele>
        <time>2014-09-21T09:54:54Z</time>
      </trkpt>
      <trkpt lat="41.660234624" lon="2.587854739">
        <ele>674.02</ele>
        <time>2014-09-21T09:55:01Z</time>
      </trkpt>
      <trkpt lat="41.660231690" lon="2.587832946">
        <ele>674.02</ele>
        <time>2014-09-21T09:55:03Z</time>
      </trkpt>
      <trkpt lat="41.660257255" lon="2.587727586">
        <ele>674.50</ele>
        <time>2014-09-21T09:55:06Z</time>
      </trkpt>
      <trkpt lat="41.660305702" lon="2.587542094">
        <ele>675.46</ele>
        <time>2014-09-21T09:55:15Z</time>
      </trkpt>
      <trkpt lat="41.660326908" lon="2.587374037">
        <ele>676.91</ele>
        <time>2014-09-21T09:55:22Z</time>
      </trkpt>
      <trkpt lat="41.660331099" lon="2.587236993">
        <ele>678.35</ele>
        <time>2014-09-21T09:55:31Z</time>
      </trkpt>
      <trkpt lat="41.660337050" lon="2.587092154">
        <ele>679.79</ele>
        <time>2014-09-21T09:55:38Z</time>
      </trkpt>
      <trkpt lat="41.660340152" lon="2.586945890">
        <ele>681.23</ele>
        <time>2014-09-21T09:55:45Z</time>
      </trkpt>
      <trkpt lat="41.660345600" lon="2.586807002">
        <ele>681.71</ele>
        <time>2014-09-21T09:55:53Z</time>
      </trkpt>
      <trkpt lat="41.660331937" lon="2.586686051">
        <ele>682.19</ele>
        <time>2014-09-21T09:55:59Z</time>
      </trkpt>
      <trkpt lat="41.660327998" lon="2.586575661">
        <ele>682.67</ele>
        <time>2014-09-21T09:56:04Z</time>
      </trkpt>
      <trkpt lat="41.660307798" lon="2.586409867">
        <ele>684.60</ele>
        <time>2014-09-21T09:56:11Z</time>
      </trkpt>
      <trkpt lat="41.660324813" lon="2.586216245">
        <ele>685.56</ele>
        <time>2014-09-21T09:56:18Z</time>
      </trkpt>
      <trkpt lat="41.660328249" lon="2.586121529">
        <ele>686.04</ele>
        <time>2014-09-21T09:56:21Z</time>
      </trkpt>
      <trkpt lat="41.660322214" lon="2.585977025">
        <ele>687.48</ele>
        <time>2014-09-21T09:56:28Z</time>
      </trkpt>
      <trkpt lat="41.660285250" lon="2.585848028">
        <ele>688.44</ele>
        <time>2014-09-21T09:56:35Z</time>
      </trkpt>
      <trkpt lat="41.660234037" lon="2.585710816">
        <ele>689.88</ele>
        <time>2014-09-21T09:56:42Z</time>
      </trkpt>
      <trkpt lat="41.660193385" lon="2.585579304">
        <ele>691.33</ele>
        <time>2014-09-21T09:56:49Z</time>
      </trkpt>
      <trkpt lat="41.660175699" lon="2.585485678">
        <ele>692.29</ele>
        <time>2014-09-21T09:56:54Z</time>
      </trkpt>
      <trkpt lat="41.660158516" lon="2.585307144">
        <ele>694.21</ele>
        <time>2014-09-21T09:57:00Z</time>
      </trkpt>
      <trkpt lat="41.660184248" lon="2.585070942">
        <ele>694.69</ele>
        <time>2014-09-21T09:57:08Z</time>
      </trkpt>
      <trkpt lat="41.660167820" lon="2.584976059">
        <ele>695.17</ele>
        <time>2014-09-21T09:57:12Z</time>
      </trkpt>
      <trkpt lat="41.660129012" lon="2.584823340">
        <ele>696.13</ele>
        <time>2014-09-21T09:57:19Z</time>
      </trkpt>
      <trkpt lat="41.660077798" lon="2.584651679">
        <ele>697.09</ele>
        <time>2014-09-21T09:57:27Z</time>
      </trkpt>
      <trkpt lat="41.660055670" lon="2.584546151">
        <ele>698.53</ele>
        <time>2014-09-21T09:57:34Z</time>
      </trkpt>
      <trkpt lat="41.660050976" lon="2.584445568">
        <ele>698.53</ele>
        <time>2014-09-21T09:57:38Z</time>
      </trkpt>
      <trkpt lat="41.660032368" lon="2.584296035">
        <ele>699.02</ele>
        <time>2014-09-21T09:57:47Z</time>
      </trkpt>
      <trkpt lat="41.660030273" lon="2.584175922">
        <ele>699.50</ele>
        <time>2014-09-21T09:57:52Z</time>
      </trkpt>
      <trkpt lat="41.660017197" lon="2.584041728">
        <ele>699.50</ele>
        <time>2014-09-21T09:57:59Z</time>
      </trkpt>
      <trkpt lat="41.660079810" lon="2.583873419">
        <ele>699.50</ele>
        <time>2014-09-21T09:58:07Z</time>
      </trkpt>
      <trkpt lat="41.660102776" lon="2.583834108">
        <ele>699.50</ele>
        <time>2014-09-21T09:58:09Z</time>
      </trkpt>
      <trkpt lat="41.660140998" lon="2.583691700">
        <ele>700.46</ele>
        <time>2014-09-21T09:58:18Z</time>
      </trkpt>
      <trkpt lat="41.660177962" lon="2.583550967">
        <ele>701.90</ele>
        <time>2014-09-21T09:58:25Z</time>
      </trkpt>
      <trkpt lat="41.660203611" lon="2.583392466">
        <ele>703.34</ele>
        <time>2014-09-21T09:58:32Z</time>
      </trkpt>
      <trkpt lat="41.660232193" lon="2.583276376">
        <ele>705.75</ele>
        <time>2014-09-21T09:58:41Z</time>
      </trkpt>
      <trkpt lat="41.660259099" lon="2.583201191">
        <ele>706.71</ele>
        <time>2014-09-21T09:58:46Z</time>
      </trkpt>
      <trkpt lat="41.660271672" lon="2.583118042">
        <ele>708.15</ele>
        <time>2014-09-21T09:58:53Z</time>
      </trkpt>
      <trkpt lat="41.660293716" lon="2.583056854">
        <ele>709.11</ele>
        <time>2014-09-21T09:58:58Z</time>
      </trkpt>
      <trkpt lat="41.660358257" lon="2.582945626">
        <ele>710.55</ele>
        <time>2014-09-21T09:59:05Z</time>
      </trkpt>
      <trkpt lat="41.660414834" lon="2.582853174">
        <ele>711.99</ele>
        <time>2014-09-21T09:59:12Z</time>
      </trkpt>
      <trkpt lat="41.660477699" lon="2.582753681">
        <ele>712.47</ele>
        <time>2014-09-21T09:59:19Z</time>
      </trkpt>
      <trkpt lat="41.660516675" lon="2.582647650">
        <ele>713.92</ele>
        <time>2014-09-21T09:59:26Z</time>
      </trkpt>
      <trkpt lat="41.660574510" lon="2.582524939">
        <ele>714.88</ele>
        <time>2014-09-21T09:59:35Z</time>
      </trkpt>
      <trkpt lat="41.660625556" lon="2.582373561">
        <ele>716.32</ele>
        <time>2014-09-21T09:59:43Z</time>
      </trkpt>
      <trkpt lat="41.660654222" lon="2.582268117">
        <ele>716.80</ele>
        <time>2014-09-21T09:59:50Z</time>
      </trkpt>
      <trkpt lat="41.660676937" lon="2.582170300">
        <ele>716.80</ele>
        <time>2014-09-21T09:59:54Z</time>
      </trkpt>
      <trkpt lat="41.660725719" lon="2.581992855">
        <ele>713.92</ele>
        <time>2014-09-21T10:00:01Z</time>
      </trkpt>
      <trkpt lat="41.660739130" lon="2.581953880">
        <ele>712.95</ele>
        <time>2014-09-21T10:00:01Z</time>
      </trkpt>
      <trkpt lat="41.660828984" lon="2.581657412">
        <ele>711.03</ele>
        <time>2014-09-21T10:00:09Z</time>
      </trkpt>
      <trkpt lat="41.660930405" lon="2.581378210">
        <ele>708.63</ele>
        <time>2014-09-21T10:00:16Z</time>
      </trkpt>
      <trkpt lat="41.660994527" lon="2.581286177">
        <ele>706.71</ele>
        <time>2014-09-21T10:00:20Z</time>
      </trkpt>
      <trkpt lat="41.661105755" lon="2.581227839">
        <ele>705.26</ele>
        <time>2014-09-21T10:00:23Z</time>
      </trkpt>
      <trkpt lat="41.661293174" lon="2.581090963">
        <ele>702.86</ele>
        <time>2014-09-21T10:00:29Z</time>
      </trkpt>
      <trkpt lat="41.661352099" lon="2.580980322">
        <ele>702.86</ele>
        <time>2014-09-21T10:00:32Z</time>
      </trkpt>
      <trkpt lat="41.661361403" lon="2.580920223">
        <ele>704.30</ele>
        <time>2014-09-21T10:00:35Z</time>
      </trkpt>
      <trkpt lat="41.661423764" lon="2.580778904">
        <ele>706.23</ele>
        <time>2014-09-21T10:00:42Z</time>
      </trkpt>
      <trkpt lat="41.661455951" lon="2.580661222">
        <ele>708.15</ele>
        <time>2014-09-21T10:00:51Z</time>
      </trkpt>
      <trkpt lat="41.661500375" lon="2.580489310">
        <ele>709.11</ele>
        <time>2014-09-21T10:01:00Z</time>
      </trkpt>
      <trkpt lat="41.661506158" lon="2.580470450">
        <ele>709.59</ele>
        <time>2014-09-21T10:01:00Z</time>
      </trkpt>
      <trkpt lat="41.661552259" lon="2.580329802">
        <ele>711.51</ele>
        <time>2014-09-21T10:01:10Z</time>
      </trkpt>
      <trkpt lat="41.661573633" lon="2.580208767">
        <ele>712.95</ele>
        <time>2014-09-21T10:01:17Z</time>
      </trkpt>
      <trkpt lat="41.661572627" lon="2.580150345">
        <ele>713.44</ele>
        <time>2014-09-21T10:01:21Z</time>
      </trkpt>
      <trkpt lat="41.661573633" lon="2.580075495">
        <ele>713.44</ele>
        <time>2014-09-21T10:01:24Z</time>
      </trkpt>
      <trkpt lat="41.661564496" lon="2.579943815">
        <ele>713.92</ele>
        <time>2014-09-21T10:01:33Z</time>
      </trkpt>
      <trkpt lat="41.661552175" lon="2.579800233">
        <ele>715.36</ele>
        <time>2014-09-21T10:01:40Z</time>
      </trkpt>
      <trkpt lat="41.661549828" lon="2.579673583">
        <ele>716.32</ele>
        <time>2014-09-21T10:01:49Z</time>
      </trkpt>
      <trkpt lat="41.661539099" lon="2.579522373">
        <ele>717.76</ele>
        <time>2014-09-21T10:01:57Z</time>
      </trkpt>
      <trkpt lat="41.661527029" lon="2.579397651">
        <ele>719.68</ele>
        <time>2014-09-21T10:02:04Z</time>
      </trkpt>
      <trkpt lat="41.661517977" lon="2.579341827">
        <ele>720.65</ele>
        <time>2014-09-21T10:02:08Z</time>
      </trkpt>
      <trkpt lat="41.661519737" lon="2.579289273">
        <ele>721.61</ele>
        <time>2014-09-21T10:02:11Z</time>
      </trkpt>
      <trkpt lat="41.661528119" lon="2.579165891">
        <ele>723.53</ele>
        <time>2014-09-21T10:02:20Z</time>
      </trkpt>
      <trkpt lat="41.661535076" lon="2.579019291">
        <ele>725.45</ele>
        <time>2014-09-21T10:02:29Z</time>
      </trkpt>
      <trkpt lat="41.661532897" lon="2.578868501">
        <ele>727.37</ele>
        <time>2014-09-21T10:02:36Z</time>
      </trkpt>
      <trkpt lat="41.661518480" lon="2.578686781">
        <ele>729.30</ele>
        <time>2014-09-21T10:02:46Z</time>
      </trkpt>
      <trkpt lat="41.661516552" lon="2.578664318">
        <ele>729.78</ele>
        <time>2014-09-21T10:02:46Z</time>
      </trkpt>
      <trkpt lat="41.661503979" lon="2.578579074">
        <ele>730.74</ele>
        <time>2014-09-21T10:02:51Z</time>
      </trkpt>
      <trkpt lat="41.661477744" lon="2.578443790">
        <ele>732.66</ele>
        <time>2014-09-21T10:02:58Z</time>
      </trkpt>
      <trkpt lat="41.661444887" lon="2.578273051">
        <ele>735.07</ele>
        <time>2014-09-21T10:03:07Z</time>
      </trkpt>
      <trkpt lat="41.661430386" lon="2.578139778">
        <ele>736.99</ele>
        <time>2014-09-21T10:03:16Z</time>
      </trkpt>
      <trkpt lat="41.661426865" lon="2.578024695">
        <ele>737.95</ele>
        <time>2014-09-21T10:03:23Z</time>
      </trkpt>
      <trkpt lat="41.661429715" lon="2.577890333">
        <ele>738.91</ele>
        <time>2014-09-21T10:03:31Z</time>
      </trkpt>
      <trkpt lat="41.661438516" lon="2.577737363">
        <ele>740.35</ele>
        <time>2014-09-21T10:03:40Z</time>
      </trkpt>
      <trkpt lat="41.661433655" lon="2.577621777">
        <ele>741.79</ele>
        <time>2014-09-21T10:03:49Z</time>
      </trkpt>
      <trkpt lat="41.661441450" lon="2.577571234">
        <ele>742.76</ele>
        <time>2014-09-21T10:03:52Z</time>
      </trkpt>
      <trkpt lat="41.661470535" lon="2.577434944">
        <ele>743.72</ele>
        <time>2014-09-21T10:04:01Z</time>
      </trkpt>
      <trkpt lat="41.661511690" lon="2.577315670">
        <ele>746.12</ele>
        <time>2014-09-21T10:04:10Z</time>
      </trkpt>
      <trkpt lat="41.661532477" lon="2.577219278">
        <ele>747.08</ele>
        <time>2014-09-21T10:04:15Z</time>
      </trkpt>
      <trkpt lat="41.661544799" lon="2.577121545">
        <ele>748.52</ele>
        <time>2014-09-21T10:04:22Z</time>
      </trkpt>
      <trkpt lat="41.661548319" lon="2.577036804">
        <ele>749.49</ele>
        <time>2014-09-21T10:04:29Z</time>
      </trkpt>
      <trkpt lat="41.661541278" lon="2.576891545">
        <ele>750.45</ele>
        <time>2014-09-21T10:04:36Z</time>
      </trkpt>
      <trkpt lat="41.661533735" lon="2.576693649">
        <ele>751.89</ele>
        <time>2014-09-21T10:04:43Z</time>
      </trkpt>
      <trkpt lat="41.661489059" lon="2.576604549">
        <ele>752.85</ele>
        <time>2014-09-21T10:04:52Z</time>
      </trkpt>
      <trkpt lat="41.661454945" lon="2.576701444">
        <ele>753.33</ele>
        <time>2014-09-21T10:05:00Z</time>
      </trkpt>
      <trkpt lat="41.661454777" lon="2.576670682">
        <ele>753.33</ele>
        <time>2014-09-21T10:05:11Z</time>
      </trkpt>
      <trkpt lat="41.661464165" lon="2.576646794">
        <ele>753.81</ele>
        <time>2014-09-21T10:05:23Z</time>
      </trkpt>
      <trkpt lat="41.661455196" lon="2.576645453">
        <ele>753.81</ele>
        <time>2014-09-21T10:05:35Z</time>
      </trkpt>
      <trkpt lat="41.661460561" lon="2.576645369">
        <ele>753.81</ele>
        <time>2014-09-21T10:05:42Z</time>
      </trkpt>
      <trkpt lat="41.661470619" lon="2.576623324">
        <ele>753.81</ele>
        <time>2014-09-21T10:06:01Z</time>
      </trkpt>
      <trkpt lat="41.661468524" lon="2.576592228">
        <ele>753.81</ele>
        <time>2014-09-21T10:06:12Z</time>
      </trkpt>
      <trkpt lat="41.661459639" lon="2.576583175">
        <ele>753.81</ele>
        <time>2014-09-21T10:06:19Z</time>
      </trkpt>
      <trkpt lat="41.661445641" lon="2.576575799">
        <ele>754.29</ele>
        <time>2014-09-21T10:06:36Z</time>
      </trkpt>
      <trkpt lat="41.661449329" lon="2.576586863">
        <ele>754.29</ele>
        <time>2014-09-21T10:06:50Z</time>
      </trkpt>
      <trkpt lat="41.661449580" lon="2.576608321">
        <ele>754.29</ele>
        <time>2014-09-21T10:07:06Z</time>
      </trkpt>
      <trkpt lat="41.661448826" lon="2.576612093">
        <ele>754.29</ele>
        <time>2014-09-21T10:07:21Z</time>
      </trkpt>
      <trkpt lat="41.661436421" lon="2.576603376">
        <ele>754.29</ele>
        <time>2014-09-21T10:07:30Z</time>
      </trkpt>
      <trkpt lat="41.661422255" lon="2.576606225">
        <ele>754.77</ele>
        <time>2014-09-21T10:07:42Z</time>
      </trkpt>
      <trkpt lat="41.661420579" lon="2.576601112">
        <ele>754.77</ele>
        <time>2014-09-21T10:07:54Z</time>
      </trkpt>
      <trkpt lat="41.661430553" lon="2.576618044">
        <ele>754.77</ele>
        <time>2014-09-21T10:08:08Z</time>
      </trkpt>
      <trkpt lat="41.661452849" lon="2.576592898">
        <ele>754.77</ele>
        <time>2014-09-21T10:08:22Z</time>
      </trkpt>
      <trkpt lat="41.661440947" lon="2.576619636">
        <ele>754.77</ele>
        <time>2014-09-21T10:08:29Z</time>
      </trkpt>
      <trkpt lat="41.661450922" lon="2.576622235">
        <ele>754.77</ele>
        <time>2014-09-21T10:08:36Z</time>
      </trkpt>
      <trkpt lat="41.661456705" lon="2.576608656">
        <ele>754.77</ele>
        <time>2014-09-21T10:08:52Z</time>
      </trkpt>
      <trkpt lat="41.661467099" lon="2.576576637">
        <ele>754.77</ele>
        <time>2014-09-21T10:09:13Z</time>
      </trkpt>
      <trkpt lat="41.661468104" lon="2.576568004">
        <ele>754.77</ele>
        <time>2014-09-21T10:09:25Z</time>
      </trkpt>
      <trkpt lat="41.661468775" lon="2.576567333">
        <ele>755.25</ele>
        <time>2014-09-21T10:09:44Z</time>
      </trkpt>
      <trkpt lat="41.661491155" lon="2.576573368">
        <ele>755.25</ele>
        <time>2014-09-21T10:10:07Z</time>
      </trkpt>
      <trkpt lat="41.661495849" lon="2.576599520">
        <ele>755.25</ele>
        <time>2014-09-21T10:10:17Z</time>
      </trkpt>
      <trkpt lat="41.661490065" lon="2.576585271">
        <ele>755.25</ele>
        <time>2014-09-21T10:10:31Z</time>
      </trkpt>
      <trkpt lat="41.661481096" lon="2.576539925">
        <ele>755.25</ele>
        <time>2014-09-21T10:10:45Z</time>
      </trkpt>
      <trkpt lat="41.661470032" lon="2.576548977">
        <ele>755.25</ele>
        <time>2014-09-21T10:11:04Z</time>
      </trkpt>
      <trkpt lat="41.661483695" lon="2.576588959">
        <ele>755.25</ele>
        <time>2014-09-21T10:11:22Z</time>
      </trkpt>
      <trkpt lat="41.661503644" lon="2.576603040">
        <ele>755.25</ele>
        <time>2014-09-21T10:11:36Z</time>
      </trkpt>
      <trkpt lat="41.661477660" lon="2.576614691">
        <ele>755.25</ele>
        <time>2014-09-21T10:11:55Z</time>
      </trkpt>
      <trkpt lat="41.661449748" lon="2.576587869">
        <ele>755.25</ele>
        <time>2014-09-21T10:12:19Z</time>
      </trkpt>
      <trkpt lat="41.661430302" lon="2.576614943">
        <ele>755.25</ele>
        <time>2014-09-21T10:12:35Z</time>
      </trkpt>
      <trkpt lat="41.661435164" lon="2.576593569">
        <ele>755.25</ele>
        <time>2014-09-21T10:12:45Z</time>
      </trkpt>
      <trkpt lat="41.661438013" lon="2.576579655">
        <ele>755.25</ele>
        <time>2014-09-21T10:12:54Z</time>
      </trkpt>
      <trkpt lat="41.661419489" lon="2.576589126">
        <ele>755.25</ele>
        <time>2014-09-21T10:13:06Z</time>
      </trkpt>
      <trkpt lat="41.661393841" lon="2.576596167">
        <ele>755.25</ele>
        <time>2014-09-21T10:13:20Z</time>
      </trkpt>
      <trkpt lat="41.661408761" lon="2.576584600">
        <ele>755.73</ele>
        <time>2014-09-21T10:13:31Z</time>
      </trkpt>
      <trkpt lat="41.661417310" lon="2.576581247">
        <ele>754.29</ele>
        <time>2014-09-21T10:13:41Z</time>
      </trkpt>
      <trkpt lat="41.661405827" lon="2.576606980">
        <ele>754.77</ele>
        <time>2014-09-21T10:14:02Z</time>
      </trkpt>
      <trkpt lat="41.661408844" lon="2.576611757">
        <ele>754.77</ele>
        <time>2014-09-21T10:14:14Z</time>
      </trkpt>
      <trkpt lat="41.661428542" lon="2.576601867">
        <ele>754.77</ele>
        <time>2014-09-21T10:14:25Z</time>
      </trkpt>
      <trkpt lat="41.661407755" lon="2.576624749">
        <ele>755.25</ele>
        <time>2014-09-21T10:14:44Z</time>
      </trkpt>
      <trkpt lat="41.661380178" lon="2.576650230">
        <ele>755.25</ele>
        <time>2014-09-21T10:15:03Z</time>
      </trkpt>
      <trkpt lat="41.661380094" lon="2.576624833">
        <ele>755.25</ele>
        <time>2014-09-21T10:15:19Z</time>
      </trkpt>
      <trkpt lat="41.661380262" lon="2.576595748">
        <ele>755.25</ele>
        <time>2014-09-21T10:15:34Z</time>
      </trkpt>
      <trkpt lat="41.661392751" lon="2.576598514">
        <ele>755.73</ele>
        <time>2014-09-21T10:15:47Z</time>
      </trkpt>
      <trkpt lat="41.661386465" lon="2.576584935">
        <ele>755.73</ele>
        <time>2014-09-21T10:16:02Z</time>
      </trkpt>
      <trkpt lat="41.661382022" lon="2.576611841">
        <ele>755.73</ele>
        <time>2014-09-21T10:16:21Z</time>
      </trkpt>
      <trkpt lat="41.661395266" lon="2.576624246">
        <ele>756.21</ele>
        <time>2014-09-21T10:16:35Z</time>
      </trkpt>
      <trkpt lat="41.661371713" lon="2.576631371">
        <ele>756.21</ele>
        <time>2014-09-21T10:16:54Z</time>
      </trkpt>
      <trkpt lat="41.661354027" lon="2.576647297">
        <ele>756.69</ele>
        <time>2014-09-21T10:17:10Z</time>
      </trkpt>
      <trkpt lat="41.661373724" lon="2.576622905">
        <ele>756.69</ele>
        <time>2014-09-21T10:17:29Z</time>
      </trkpt>
      <trkpt lat="41.661390991" lon="2.576595413">
        <ele>757.18</ele>
        <time>2014-09-21T10:17:50Z</time>
      </trkpt>
      <trkpt lat="41.661396858" lon="2.576609159">
        <ele>757.18</ele>
        <time>2014-09-21T10:18:06Z</time>
      </trkpt>
      <trkpt lat="41.661399876" lon="2.576629611">
        <ele>757.18</ele>
        <time>2014-09-21T10:18:25Z</time>
      </trkpt>
      <trkpt lat="41.661399457" lon="2.576633634">
        <ele>757.66</ele>
        <time>2014-09-21T10:18:42Z</time>
      </trkpt>
      <trkpt lat="41.661399121" lon="2.576635730">
        <ele>757.66</ele>
        <time>2014-09-21T10:19:07Z</time>
      </trkpt>
      <trkpt lat="41.661418735" lon="2.576613350">
        <ele>757.66</ele>
        <time>2014-09-21T10:19:24Z</time>
      </trkpt>
      <trkpt lat="41.661424770" lon="2.576651991">
        <ele>758.14</ele>
        <time>2014-09-21T10:19:42Z</time>
      </trkpt>
      <trkpt lat="41.661443965" lon="2.576641429">
        <ele>758.14</ele>
        <time>2014-09-21T10:19:56Z</time>
      </trkpt>
      <trkpt lat="41.661451173" lon="2.576640507">
        <ele>758.14</ele>
        <time>2014-09-21T10:20:11Z</time>
      </trkpt>
      <trkpt lat="41.661449580" lon="2.576640256">
        <ele>758.14</ele>
        <time>2014-09-21T10:20:24Z</time>
      </trkpt>
      <trkpt lat="41.661481096" lon="2.576576386">
        <ele>758.14</ele>
        <time>2014-09-21T10:20:39Z</time>
      </trkpt>
      <trkpt lat="41.661474894" lon="2.576541685">
        <ele>758.14</ele>
        <time>2014-09-21T10:20:58Z</time>
      </trkpt>
      <trkpt lat="41.661482773" lon="2.576527603">
        <ele>758.14</ele>
        <time>2014-09-21T10:21:16Z</time>
      </trkpt>
      <trkpt lat="41.661515797" lon="2.576551994">
        <ele>758.14</ele>
        <time>2014-09-21T10:21:33Z</time>
      </trkpt>
      <trkpt lat="41.661503057" lon="2.576589881">
        <ele>758.14</ele>
        <time>2014-09-21T10:21:52Z</time>
      </trkpt>
      <trkpt lat="41.661490484" lon="2.576594407">
        <ele>758.14</ele>
        <time>2014-09-21T10:21:56Z</time>
      </trkpt>
      <trkpt lat="41.661481264" lon="2.576580158">
        <ele>758.14</ele>
        <time>2014-09-21T10:21:59Z</time>
      </trkpt>
      <trkpt lat="41.661514624" lon="2.576473121">
        <ele>758.14</ele>
        <time>2014-09-21T10:22:06Z</time>
      </trkpt>
      <trkpt lat="41.661517809" lon="2.576461554">
        <ele>758.14</ele>
        <time>2014-09-21T10:22:08Z</time>
      </trkpt>
      <trkpt lat="41.661522587" lon="2.576374885">
        <ele>757.66</ele>
        <time>2014-09-21T10:22:13Z</time>
      </trkpt>
      <trkpt lat="41.661460225" lon="2.576073723">
        <ele>756.21</ele>
        <time>2014-09-21T10:22:22Z</time>
      </trkpt>
      <trkpt lat="41.661352099" lon="2.575848501">
        <ele>755.25</ele>
        <time>2014-09-21T10:22:27Z</time>
      </trkpt>
      <trkpt lat="41.661301053" lon="2.575723946">
        <ele>754.77</ele>
        <time>2014-09-21T10:22:29Z</time>
      </trkpt>
      <trkpt lat="41.661232992" lon="2.575379115">
        <ele>754.29</ele>
        <time>2014-09-21T10:22:36Z</time>
      </trkpt>
      <trkpt lat="41.661167446" lon="2.575110894">
        <ele>753.81</ele>
        <time>2014-09-21T10:22:41Z</time>
      </trkpt>
      <trkpt lat="41.661132828" lon="2.574974101">
        <ele>752.85</ele>
        <time>2014-09-21T10:22:43Z</time>
      </trkpt>
      <trkpt lat="41.661103324" lon="2.574823981">
        <ele>752.37</ele>
        <time>2014-09-21T10:22:46Z</time>
      </trkpt>
      <trkpt lat="41.660977344" lon="2.574515276">
        <ele>752.37</ele>
        <time>2014-09-21T10:22:52Z</time>
      </trkpt>
      <trkpt lat="41.660892435" lon="2.574251078">
        <ele>750.93</ele>
        <time>2014-09-21T10:22:57Z</time>
      </trkpt>
      <trkpt lat="41.660895285" lon="2.573878335">
        <ele>750.45</ele>
        <time>2014-09-21T10:23:02Z</time>
      </trkpt>
      <trkpt lat="41.660909618" lon="2.573823182">
        <ele>750.45</ele>
        <time>2014-09-21T10:23:04Z</time>
      </trkpt>
      <trkpt lat="41.660941134" lon="2.573628135">
        <ele>749.00</ele>
        <time>2014-09-21T10:23:07Z</time>
      </trkpt>
      <trkpt lat="41.660929232" lon="2.573438034">
        <ele>747.56</ele>
        <time>2014-09-21T10:23:09Z</time>
      </trkpt>
      <trkpt lat="41.660819345" lon="2.572832776">
        <ele>744.68</ele>
        <time>2014-09-21T10:23:18Z</time>
      </trkpt>
      <trkpt lat="41.660822698" lon="2.572710401">
        <ele>744.20</ele>
        <time>2014-09-21T10:23:21Z</time>
      </trkpt>
      <trkpt lat="41.660844156" lon="2.572459530">
        <ele>744.68</ele>
        <time>2014-09-21T10:23:28Z</time>
      </trkpt>
      <trkpt lat="41.660848682" lon="2.572424494">
        <ele>744.68</ele>
        <time>2014-09-21T10:23:30Z</time>
      </trkpt>
      <trkpt lat="41.660866954" lon="2.572326677">
        <ele>745.64</ele>
        <time>2014-09-21T10:23:33Z</time>
      </trkpt>
      <trkpt lat="41.660902494" lon="2.572098186">
        <ele>747.08</ele>
        <time>2014-09-21T10:23:39Z</time>
      </trkpt>
      <trkpt lat="41.660968878" lon="2.571903559">
        <ele>747.08</ele>
        <time>2014-09-21T10:23:44Z</time>
      </trkpt>
      <trkpt lat="41.661039622" lon="2.571671380">
        <ele>747.56</ele>
        <time>2014-09-21T10:23:51Z</time>
      </trkpt>
      <trkpt lat="41.661078514" lon="2.571494270">
        <ele>749.00</ele>
        <time>2014-09-21T10:23:58Z</time>
      </trkpt>
      <trkpt lat="41.661178426" lon="2.571275000">
        <ele>746.60</ele>
        <time>2014-09-21T10:24:03Z</time>
      </trkpt>
      <trkpt lat="41.661338101" lon="2.570922876">
        <ele>743.72</ele>
        <time>2014-09-21T10:24:10Z</time>
      </trkpt>
      <trkpt lat="41.661337263" lon="2.570806451">
        <ele>741.79</ele>
        <time>2014-09-21T10:24:15Z</time>
      </trkpt>
      <trkpt lat="41.661233327" lon="2.570749790">
        <ele>738.43</ele>
        <time>2014-09-21T10:24:20Z</time>
      </trkpt>
      <trkpt lat="41.661008022" lon="2.570806954">
        <ele>736.51</ele>
        <time>2014-09-21T10:24:27Z</time>
      </trkpt>
      <trkpt lat="41.660880114" lon="2.570780886">
        <ele>736.51</ele>
        <time>2014-09-21T10:24:31Z</time>
      </trkpt>
      <trkpt lat="41.660831331" lon="2.570735540">
        <ele>734.58</ele>
        <time>2014-09-21T10:24:33Z</time>
      </trkpt>
      <trkpt lat="41.660742735" lon="2.570636969">
        <ele>732.18</ele>
        <time>2014-09-21T10:24:38Z</time>
      </trkpt>
      <trkpt lat="41.660623795" lon="2.570456591">
        <ele>728.34</ele>
        <time>2014-09-21T10:24:45Z</time>
      </trkpt>
      <trkpt lat="41.660561853" lon="2.570243104">
        <ele>724.97</ele>
        <time>2014-09-21T10:24:50Z</time>
      </trkpt>
      <trkpt lat="41.660555902" lon="2.570188370">
        <ele>724.49</ele>
        <time>2014-09-21T10:24:52Z</time>
      </trkpt>
      <trkpt lat="41.660568642" lon="2.569897182">
        <ele>723.05</ele>
        <time>2014-09-21T10:24:57Z</time>
      </trkpt>
      <trkpt lat="41.660596554" lon="2.569707919">
        <ele>723.05</ele>
        <time>2014-09-21T10:25:04Z</time>
      </trkpt>
      <trkpt lat="41.660577443" lon="2.569650838">
        <ele>723.05</ele>
        <time>2014-09-21T10:25:07Z</time>
      </trkpt>
      <trkpt lat="41.660575096" lon="2.569557212">
        <ele>724.01</ele>
        <time>2014-09-21T10:25:11Z</time>
      </trkpt>
      <trkpt lat="41.660573420" lon="2.569536258">
        <ele>724.49</ele>
        <time>2014-09-21T10:25:13Z</time>
      </trkpt>
      <trkpt lat="41.660566044" lon="2.569493091">
        <ele>725.45</ele>
        <time>2014-09-21T10:25:14Z</time>
      </trkpt>
      <trkpt lat="41.660585658" lon="2.569353365">
        <ele>726.89</ele>
        <time>2014-09-21T10:25:21Z</time>
      </trkpt>
      <trkpt lat="41.660593537" lon="2.569204586">
        <ele>727.37</ele>
        <time>2014-09-21T10:25:28Z</time>
      </trkpt>
      <trkpt lat="41.660597225" lon="2.569070978">
        <ele>727.37</ele>
        <time>2014-09-21T10:25:35Z</time>
      </trkpt>
      <trkpt lat="41.660583562" lon="2.568828071">
        <ele>725.93</ele>
        <time>2014-09-21T10:25:42Z</time>
      </trkpt>
      <trkpt lat="41.660581048" lon="2.568793956">
        <ele>725.93</ele>
        <time>2014-09-21T10:25:42Z</time>
      </trkpt>
      <trkpt lat="41.660543748" lon="2.568557251">
        <ele>721.61</ele>
        <time>2014-09-21T10:25:49Z</time>
      </trkpt>
      <trkpt lat="41.660485829" lon="2.568394140">
        <ele>718.24</ele>
        <time>2014-09-21T10:25:56Z</time>
      </trkpt>
      <trkpt lat="41.660473173" lon="2.568352901">
        <ele>717.28</ele>
        <time>2014-09-21T10:25:56Z</time>
      </trkpt>
      <trkpt lat="41.660450458" lon="2.568232285">
        <ele>716.32</ele>
        <time>2014-09-21T10:25:58Z</time>
      </trkpt>
      <trkpt lat="41.660464958" lon="2.568035310">
        <ele>713.92</ele>
        <time>2014-09-21T10:26:03Z</time>
      </trkpt>
      <trkpt lat="41.660508879" lon="2.567940846">
        <ele>711.99</ele>
        <time>2014-09-21T10:26:05Z</time>
      </trkpt>
      <trkpt lat="41.660583059" lon="2.567814531">
        <ele>711.51</ele>
        <time>2014-09-21T10:26:14Z</time>
      </trkpt>
      <trkpt lat="41.660624885" lon="2.567741692">
        <ele>711.51</ele>
        <time>2014-09-21T10:26:19Z</time>
      </trkpt>
      <trkpt lat="41.660615833" lon="2.567594925">
        <ele>711.99</ele>
        <time>2014-09-21T10:26:28Z</time>
      </trkpt>
      <trkpt lat="41.660561853" lon="2.567492414">
        <ele>714.40</ele>
        <time>2014-09-21T10:26:36Z</time>
      </trkpt>
      <trkpt lat="41.660515417" lon="2.567394011">
        <ele>716.32</ele>
        <time>2014-09-21T10:26:43Z</time>
      </trkpt>
      <trkpt lat="41.660473424" lon="2.567282532">
        <ele>717.76</ele>
        <time>2014-09-21T10:26:50Z</time>
      </trkpt>
      <trkpt lat="41.660385498" lon="2.567089496">
        <ele>714.88</ele>
        <time>2014-09-21T10:26:57Z</time>
      </trkpt>
      <trkpt lat="41.660374182" lon="2.567063764">
        <ele>714.40</ele>
        <time>2014-09-21T10:26:57Z</time>
      </trkpt>
      <trkpt lat="41.660310396" lon="2.566949351">
        <ele>711.51</ele>
        <time>2014-09-21T10:27:04Z</time>
      </trkpt>
      <trkpt lat="41.660231019" lon="2.566862850">
        <ele>708.63</ele>
        <time>2014-09-21T10:27:11Z</time>
      </trkpt>
      <trkpt lat="41.660127251" lon="2.566784395">
        <ele>705.26</ele>
        <time>2014-09-21T10:27:16Z</time>
      </trkpt>
      <trkpt lat="41.660011665" lon="2.566704348">
        <ele>702.86</ele>
        <time>2014-09-21T10:27:20Z</time>
      </trkpt>
      <trkpt lat="41.659891133" lon="2.566600245">
        <ele>699.50</ele>
        <time>2014-09-21T10:27:25Z</time>
      </trkpt>
      <trkpt lat="41.659688962" lon="2.566393715">
        <ele>697.57</ele>
        <time>2014-09-21T10:27:32Z</time>
      </trkpt>
      <trkpt lat="41.659528867" lon="2.566242673">
        <ele>694.69</ele>
        <time>2014-09-21T10:27:37Z</time>
      </trkpt>
      <trkpt lat="41.659492238" lon="2.566195399">
        <ele>694.69</ele>
        <time>2014-09-21T10:27:39Z</time>
      </trkpt>
      <trkpt lat="41.659358798" lon="2.566037987">
        <ele>693.73</ele>
        <time>2014-09-21T10:27:44Z</time>
      </trkpt>
      <trkpt lat="41.659222844" lon="2.565878898">
        <ele>695.17</ele>
        <time>2014-09-21T10:27:51Z</time>
      </trkpt>
      <trkpt lat="41.659127206" lon="2.565669183">
        <ele>696.61</ele>
        <time>2014-09-21T10:28:00Z</time>
      </trkpt>
      <trkpt lat="41.659128715" lon="2.565563571">
        <ele>697.57</ele>
        <time>2014-09-21T10:28:07Z</time>
      </trkpt>
      <trkpt lat="41.659170373" lon="2.565404231">
        <ele>697.57</ele>
        <time>2014-09-21T10:28:14Z</time>
      </trkpt>
      <trkpt lat="41.659254863" lon="2.565239862">
        <ele>697.57</ele>
        <time>2014-09-21T10:28:19Z</time>
      </trkpt>
      <trkpt lat="41.659327618" lon="2.565043138">
        <ele>699.02</ele>
        <time>2014-09-21T10:28:26Z</time>
      </trkpt>
      <trkpt lat="41.659302221" lon="2.564929983">
        <ele>699.50</ele>
        <time>2014-09-21T10:28:31Z</time>
      </trkpt>
      <trkpt lat="41.659250337" lon="2.564858066">
        <ele>701.42</ele>
        <time>2014-09-21T10:28:36Z</time>
      </trkpt>
      <trkpt lat="41.659162997" lon="2.564716915">
        <ele>703.34</ele>
        <time>2014-09-21T10:28:45Z</time>
      </trkpt>
      <trkpt lat="41.659071383" lon="2.564572327">
        <ele>706.23</ele>
        <time>2014-09-21T10:28:54Z</time>
      </trkpt>
      <trkpt lat="41.658993264" lon="2.564498482">
        <ele>709.11</ele>
        <time>2014-09-21T10:29:01Z</time>
      </trkpt>
      <trkpt lat="41.658941380" lon="2.564428242">
        <ele>710.07</ele>
        <time>2014-09-21T10:29:08Z</time>
      </trkpt>
      <trkpt lat="41.658887987" lon="2.564336963">
        <ele>710.55</ele>
        <time>2014-09-21T10:29:18Z</time>
      </trkpt>
      <trkpt lat="41.658792936" lon="2.564186927">
        <ele>708.63</ele>
        <time>2014-09-21T10:29:25Z</time>
      </trkpt>
      <trkpt lat="41.658753793" lon="2.564123979">
        <ele>707.67</ele>
        <time>2014-09-21T10:29:27Z</time>
      </trkpt>
      <trkpt lat="41.658715236" lon="2.563982409">
        <ele>706.23</ele>
        <time>2014-09-21T10:29:29Z</time>
      </trkpt>
      <trkpt lat="41.658666118" lon="2.563707231">
        <ele>705.75</ele>
        <time>2014-09-21T10:29:36Z</time>
      </trkpt>
      <trkpt lat="41.658598476" lon="2.563469101">
        <ele>704.78</ele>
        <time>2014-09-21T10:29:41Z</time>
      </trkpt>
      <trkpt lat="41.658443662" lon="2.563208759">
        <ele>703.82</ele>
        <time>2014-09-21T10:29:48Z</time>
      </trkpt>
      <trkpt lat="41.658356407" lon="2.563078169">
        <ele>703.34</ele>
        <time>2014-09-21T10:29:51Z</time>
      </trkpt>
      <trkpt lat="41.658168987" lon="2.562788323">
        <ele>702.86</ele>
        <time>2014-09-21T10:30:00Z</time>
      </trkpt>
      <trkpt lat="41.658109643" lon="2.562685896">
        <ele>703.82</ele>
        <time>2014-09-21T10:30:05Z</time>
      </trkpt>
      <trkpt lat="41.658018029" lon="2.562567543">
        <ele>706.23</ele>
        <time>2014-09-21T10:30:14Z</time>
      </trkpt>
      <trkpt lat="41.657876710" lon="2.562448772">
        <ele>707.67</ele>
        <time>2014-09-21T10:30:23Z</time>
      </trkpt>
      <trkpt lat="41.657772439" lon="2.562400743">
        <ele>709.11</ele>
        <time>2014-09-21T10:30:30Z</time>
      </trkpt>
      <trkpt lat="41.657674455" lon="2.562367635">
        <ele>710.07</ele>
        <time>2014-09-21T10:30:35Z</time>
      </trkpt>
      <trkpt lat="41.657586445" lon="2.562340561">
        <ele>711.03</ele>
        <time>2014-09-21T10:30:40Z</time>
      </trkpt>
      <trkpt lat="41.657449820" lon="2.562208463">
        <ele>712.95</ele>
        <time>2014-09-21T10:30:49Z</time>
      </trkpt>
      <trkpt lat="41.657409419" lon="2.562077034">
        <ele>712.95</ele>
        <time>2014-09-21T10:30:56Z</time>
      </trkpt>
      <trkpt lat="41.657403217" lon="2.561902775">
        <ele>712.95</ele>
        <time>2014-09-21T10:31:01Z</time>
      </trkpt>
      <trkpt lat="41.657385866" lon="2.561731197">
        <ele>713.92</ele>
        <time>2014-09-21T10:31:10Z</time>
      </trkpt>
      <trkpt lat="41.657388045" lon="2.561522907">
        <ele>715.84</ele>
        <time>2014-09-21T10:31:18Z</time>
      </trkpt>
      <trkpt lat="41.657436409" lon="2.561344288">
        <ele>716.80</ele>
        <time>2014-09-21T10:31:27Z</time>
      </trkpt>
      <trkpt lat="41.657532633" lon="2.561183440">
        <ele>718.24</ele>
        <time>2014-09-21T10:31:36Z</time>
      </trkpt>
      <trkpt lat="41.657659032" lon="2.561060226">
        <ele>718.72</ele>
        <time>2014-09-21T10:31:45Z</time>
      </trkpt>
      <trkpt lat="41.657775625" lon="2.560957799">
        <ele>719.20</ele>
        <time>2014-09-21T10:31:53Z</time>
      </trkpt>
      <trkpt lat="41.657915435" lon="2.560891749">
        <ele>720.16</ele>
        <time>2014-09-21T10:32:02Z</time>
      </trkpt>
      <trkpt lat="41.658045606" lon="2.560816899">
        <ele>721.61</ele>
        <time>2014-09-21T10:32:09Z</time>
      </trkpt>
      <trkpt lat="41.658183404" lon="2.560762081">
        <ele>722.09</ele>
        <time>2014-09-21T10:32:18Z</time>
      </trkpt>
      <trkpt lat="41.658293207" lon="2.560709862">
        <ele>723.05</ele>
        <time>2014-09-21T10:32:25Z</time>
      </trkpt>
      <trkpt lat="41.658427485" lon="2.560652781">
        <ele>724.49</ele>
        <time>2014-09-21T10:32:33Z</time>
      </trkpt>
      <trkpt lat="41.658608870" lon="2.560574746">
        <ele>724.97</ele>
        <time>2014-09-21T10:32:42Z</time>
      </trkpt>
      <trkpt lat="41.658718505" lon="2.560472235">
        <ele>726.41</ele>
        <time>2014-09-21T10:32:49Z</time>
      </trkpt>
      <trkpt lat="41.658777597" lon="2.560397133">
        <ele>727.37</ele>
        <time>2014-09-21T10:32:56Z</time>
      </trkpt>
      <trkpt lat="41.658826631" lon="2.560337873">
        <ele>728.34</ele>
        <time>2014-09-21T10:32:59Z</time>
      </trkpt>
      <trkpt lat="41.658851190" lon="2.560308034">
        <ele>728.34</ele>
        <time>2014-09-21T10:33:01Z</time>
      </trkpt>
      <trkpt lat="41.658941044" lon="2.560200745">
        <ele>728.34</ele>
        <time>2014-09-21T10:33:08Z</time>
      </trkpt>
      <trkpt lat="41.658958479" lon="2.560174929">
        <ele>728.34</ele>
        <time>2014-09-21T10:33:08Z</time>
      </trkpt>
      <trkpt lat="41.659051937" lon="2.559956078">
        <ele>728.34</ele>
        <time>2014-09-21T10:33:17Z</time>
      </trkpt>
      <trkpt lat="41.659112538" lon="2.559779639">
        <ele>726.89</ele>
        <time>2014-09-21T10:33:22Z</time>
      </trkpt>
      <trkpt lat="41.659172720" lon="2.559637984">
        <ele>725.93</ele>
        <time>2014-09-21T10:33:26Z</time>
      </trkpt>
      <trkpt lat="41.659287720" lon="2.559261050">
        <ele>724.97</ele>
        <time>2014-09-21T10:33:31Z</time>
      </trkpt>
      <trkpt lat="41.659340777" lon="2.559120821">
        <ele>724.97</ele>
        <time>2014-09-21T10:33:36Z</time>
      </trkpt>
      <trkpt lat="41.659413113" lon="2.558893336">
        <ele>723.53</ele>
        <time>2014-09-21T10:33:43Z</time>
      </trkpt>
      <trkpt lat="41.659501291" lon="2.558810774">
        <ele>721.13</ele>
        <time>2014-09-21T10:33:47Z</time>
      </trkpt>
      <trkpt lat="41.659552672" lon="2.558795016">
        <ele>720.16</ele>
        <time>2014-09-21T10:33:48Z</time>
      </trkpt>
      <trkpt lat="41.659691811" lon="2.558754113">
        <ele>716.80</ele>
        <time>2014-09-21T10:33:55Z</time>
      </trkpt>
      <trkpt lat="41.659719556" lon="2.558735170">
        <ele>715.84</ele>
        <time>2014-09-21T10:33:55Z</time>
      </trkpt>
      <trkpt lat="41.659908400" lon="2.558623355">
        <ele>711.03</ele>
        <time>2014-09-21T10:34:02Z</time>
      </trkpt>
      <trkpt lat="41.660068578" lon="2.558564011">
        <ele>707.19</ele>
        <time>2014-09-21T10:34:06Z</time>
      </trkpt>
      <trkpt lat="41.660168993" lon="2.558519336">
        <ele>703.82</ele>
        <time>2014-09-21T10:34:09Z</time>
      </trkpt>
      <trkpt lat="41.660307295" lon="2.558486898">
        <ele>699.02</ele>
        <time>2014-09-21T10:34:13Z</time>
      </trkpt>
      <trkpt lat="41.660350964" lon="2.558481198">
        <ele>699.02</ele>
        <time>2014-09-21T10:34:13Z</time>
      </trkpt>
      <trkpt lat="41.660480046" lon="2.558466949">
        <ele>697.09</ele>
        <time>2014-09-21T10:34:16Z</time>
      </trkpt>
      <trkpt lat="41.660686660" lon="2.558398804">
        <ele>693.73</ele>
        <time>2014-09-21T10:34:21Z</time>
      </trkpt>
      <trkpt lat="41.660963681" lon="2.558346165">
        <ele>690.84</ele>
        <time>2014-09-21T10:34:25Z</time>
      </trkpt>
      <trkpt lat="41.661246487" lon="2.558315404">
        <ele>688.92</ele>
        <time>2014-09-21T10:34:32Z</time>
      </trkpt>
      <trkpt lat="41.661301388" lon="2.558219096">
        <ele>687.96</ele>
        <time>2014-09-21T10:34:35Z</time>
      </trkpt>
      <trkpt lat="41.661218408" lon="2.558117004">
        <ele>685.56</ele>
        <time>2014-09-21T10:34:42Z</time>
      </trkpt>
      <trkpt lat="41.661007519" lon="2.558032263">
        <ele>682.19</ele>
        <time>2014-09-21T10:34:49Z</time>
      </trkpt>
      <trkpt lat="41.660970806" lon="2.558023127">
        <ele>682.19</ele>
        <time>2014-09-21T10:34:49Z</time>
      </trkpt>
      <trkpt lat="41.660859243" lon="2.557986330">
        <ele>680.75</ele>
        <time>2014-09-21T10:34:53Z</time>
      </trkpt>
      <trkpt lat="41.660786320" lon="2.557965040">
        <ele>680.27</ele>
        <time>2014-09-21T10:34:54Z</time>
      </trkpt>
      <trkpt lat="41.660700909" lon="2.557919610">
        <ele>679.79</ele>
        <time>2014-09-21T10:34:56Z</time>
      </trkpt>
      <trkpt lat="41.660572750" lon="2.557823302">
        <ele>678.83</ele>
        <time>2014-09-21T10:35:00Z</time>
      </trkpt>
      <trkpt lat="41.660372171" lon="2.557615934">
        <ele>677.39</ele>
        <time>2014-09-21T10:35:05Z</time>
      </trkpt>
      <trkpt lat="41.660369907" lon="2.557511160">
        <ele>675.94</ele>
        <time>2014-09-21T10:35:10Z</time>
      </trkpt>
      <trkpt lat="41.660422797" lon="2.557468999">
        <ele>675.46</ele>
        <time>2014-09-21T10:35:15Z</time>
      </trkpt>
      <trkpt lat="41.660453726" lon="2.557430526">
        <ele>675.46</ele>
        <time>2014-09-21T10:35:31Z</time>
      </trkpt>
      <trkpt lat="41.660474011" lon="2.557376379">
        <ele>674.98</ele>
        <time>2014-09-21T10:35:40Z</time>
      </trkpt>
      <trkpt lat="41.660558668" lon="2.557221063">
        <ele>671.62</ele>
        <time>2014-09-21T10:35:47Z</time>
      </trkpt>
      <trkpt lat="41.660767629" lon="2.557130873">
        <ele>670.66</ele>
        <time>2014-09-21T10:35:54Z</time>
      </trkpt>
      <trkpt lat="41.660819932" lon="2.557072871">
        <ele>670.66</ele>
        <time>2014-09-21T10:35:57Z</time>
      </trkpt>
      <trkpt lat="41.660862680" lon="2.557015622">
        <ele>672.10</ele>
        <time>2014-09-21T10:36:01Z</time>
      </trkpt>
      <trkpt lat="41.660908361" lon="2.556857288">
        <ele>673.06</ele>
        <time>2014-09-21T10:36:08Z</time>
      </trkpt>
      <trkpt lat="41.660965358" lon="2.556639107">
        <ele>673.54</ele>
        <time>2014-09-21T10:36:16Z</time>
      </trkpt>
      <trkpt lat="41.661027384" lon="2.556382034">
        <ele>673.54</ele>
        <time>2014-09-21T10:36:23Z</time>
      </trkpt>
      <trkpt lat="41.661038364" lon="2.556344316">
        <ele>673.54</ele>
        <time>2014-09-21T10:36:25Z</time>
      </trkpt>
      <trkpt lat="41.661064516" lon="2.556022618">
        <ele>674.02</ele>
        <time>2014-09-21T10:36:34Z</time>
      </trkpt>
      <trkpt lat="41.661071389" lon="2.555772502">
        <ele>674.50</ele>
        <time>2014-09-21T10:36:39Z</time>
      </trkpt>
      <trkpt lat="41.661129392" lon="2.555573264">
        <ele>673.06</ele>
        <time>2014-09-21T10:36:44Z</time>
      </trkpt>
      <trkpt lat="41.661239362" lon="2.555352150">
        <ele>671.62</ele>
        <time>2014-09-21T10:36:51Z</time>
      </trkpt>
      <trkpt lat="41.661281607" lon="2.555116283">
        <ele>669.22</ele>
        <time>2014-09-21T10:36:55Z</time>
      </trkpt>
      <trkpt lat="41.661272052" lon="2.554780336">
        <ele>665.37</ele>
        <time>2014-09-21T10:37:02Z</time>
      </trkpt>
      <trkpt lat="41.661263586" lon="2.554487808">
        <ele>662.01</ele>
        <time>2014-09-21T10:37:09Z</time>
      </trkpt>
      <trkpt lat="41.661295018" lon="2.554281026">
        <ele>659.60</ele>
        <time>2014-09-21T10:37:14Z</time>
      </trkpt>
      <trkpt lat="41.661317733" lon="2.554205589">
        <ele>659.12</ele>
        <time>2014-09-21T10:37:17Z</time>
      </trkpt>
      <trkpt lat="41.661415718" lon="2.554046082">
        <ele>656.72</ele>
        <time>2014-09-21T10:37:21Z</time>
      </trkpt>
      <trkpt lat="41.661498531" lon="2.553910378">
        <ele>653.83</ele>
        <time>2014-09-21T10:37:26Z</time>
      </trkpt>
      <trkpt lat="41.661603640" lon="2.553724803">
        <ele>650.95</ele>
        <time>2014-09-21T10:37:31Z</time>
      </trkpt>
      <trkpt lat="41.661649321" lon="2.553608546">
        <ele>649.51</ele>
        <time>2014-09-21T10:37:35Z</time>
      </trkpt>
      <trkpt lat="41.661731799" lon="2.553353569">
        <ele>646.14</ele>
        <time>2014-09-21T10:37:42Z</time>
      </trkpt>
      <trkpt lat="41.661718556" lon="2.553166652">
        <ele>642.78</ele>
        <time>2014-09-21T10:37:47Z</time>
      </trkpt>
      <trkpt lat="41.661658709" lon="2.553086940">
        <ele>639.89</ele>
        <time>2014-09-21T10:37:52Z</time>
      </trkpt>
      <trkpt lat="41.661561311" lon="2.553054586">
        <ele>636.53</ele>
        <time>2014-09-21T10:37:57Z</time>
      </trkpt>
      <trkpt lat="41.661471206" lon="2.553010916">
        <ele>634.61</ele>
        <time>2014-09-21T10:38:04Z</time>
      </trkpt>
      <trkpt lat="41.661427704" lon="2.552995158">
        <ele>633.17</ele>
        <time>2014-09-21T10:38:06Z</time>
      </trkpt>
      <trkpt lat="41.661319074" lon="2.552945705">
        <ele>631.24</ele>
        <time>2014-09-21T10:38:13Z</time>
      </trkpt>
      <trkpt lat="41.661230645" lon="2.552848978">
        <ele>628.84</ele>
        <time>2014-09-21T10:38:18Z</time>
      </trkpt>
      <trkpt lat="41.661159902" lon="2.552729117">
        <ele>627.88</ele>
        <time>2014-09-21T10:38:22Z</time>
      </trkpt>
      <trkpt lat="41.661206338" lon="2.552475732">
        <ele>626.92</ele>
        <time>2014-09-21T10:38:27Z</time>
      </trkpt>
      <trkpt lat="41.661223688" lon="2.552351177">
        <ele>625.96</ele>
        <time>2014-09-21T10:38:29Z</time>
      </trkpt>
      <trkpt lat="41.661320164" lon="2.551914815">
        <ele>624.51</ele>
        <time>2014-09-21T10:38:36Z</time>
      </trkpt>
      <trkpt lat="41.661338520" lon="2.551771736">
        <ele>624.03</ele>
        <time>2014-09-21T10:38:37Z</time>
      </trkpt>
      <trkpt lat="41.661433739" lon="2.551336547">
        <ele>622.59</ele>
        <time>2014-09-21T10:38:44Z</time>
      </trkpt>
      <trkpt lat="41.661502303" lon="2.551087354">
        <ele>621.63</ele>
        <time>2014-09-21T10:38:51Z</time>
      </trkpt>
      <trkpt lat="41.661697433" lon="2.550828437">
        <ele>621.63</ele>
        <time>2014-09-21T10:38:57Z</time>
      </trkpt>
      <trkpt lat="41.661705312" lon="2.550701367">
        <ele>621.15</ele>
        <time>2014-09-21T10:39:00Z</time>
      </trkpt>
      <trkpt lat="41.661760968" lon="2.550423339">
        <ele>620.67</ele>
        <time>2014-09-21T10:39:05Z</time>
      </trkpt>
      <trkpt lat="41.661859288" lon="2.550188311">
        <ele>620.67</ele>
        <time>2014-09-21T10:39:12Z</time>
      </trkpt>
      <trkpt lat="41.662078139" lon="2.549943894">
        <ele>617.30</ele>
        <time>2014-09-21T10:39:18Z</time>
      </trkpt>
      <trkpt lat="41.662148463" lon="2.549878180">
        <ele>616.34</ele>
        <time>2014-09-21T10:39:19Z</time>
      </trkpt>
      <trkpt lat="41.662208143" lon="2.549813053">
        <ele>615.38</ele>
        <time>2014-09-21T10:39:21Z</time>
      </trkpt>
      <trkpt lat="41.662398328" lon="2.549624292">
        <ele>612.98</ele>
        <time>2014-09-21T10:39:28Z</time>
      </trkpt>
      <trkpt lat="41.662480890" lon="2.549428575">
        <ele>609.61</ele>
        <time>2014-09-21T10:39:33Z</time>
      </trkpt>
      <trkpt lat="41.662492122" lon="2.549146524">
        <ele>606.73</ele>
        <time>2014-09-21T10:39:40Z</time>
      </trkpt>
      <trkpt lat="41.662510310" lon="2.548940161">
        <ele>603.36</ele>
        <time>2014-09-21T10:39:45Z</time>
      </trkpt>
      <trkpt lat="41.662520369" lon="2.548785683">
        <ele>600.00</ele>
        <time>2014-09-21T10:39:51Z</time>
      </trkpt>
      <trkpt lat="41.662537635" lon="2.548539339">
        <ele>598.08</ele>
        <time>2014-09-21T10:39:56Z</time>
      </trkpt>
      <trkpt lat="41.662582395" lon="2.548200375">
        <ele>596.15</ele>
        <time>2014-09-21T10:40:03Z</time>
      </trkpt>
      <trkpt lat="41.662715248" lon="2.547911869">
        <ele>594.23</ele>
        <time>2014-09-21T10:40:08Z</time>
      </trkpt>
      <trkpt lat="41.662791272" lon="2.547844982">
        <ele>593.75</ele>
        <time>2014-09-21T10:40:13Z</time>
      </trkpt>
      <trkpt lat="41.662837707" lon="2.547759067">
        <ele>593.27</ele>
        <time>2014-09-21T10:40:29Z</time>
      </trkpt>
      <trkpt lat="41.662720361" lon="2.547782788">
        <ele>591.35</ele>
        <time>2014-09-21T10:40:36Z</time>
      </trkpt>
      <trkpt lat="41.662587172" lon="2.547820591">
        <ele>588.95</ele>
        <time>2014-09-21T10:40:43Z</time>
      </trkpt>
      <trkpt lat="41.662421546" lon="2.547760241">
        <ele>587.02</ele>
        <time>2014-09-21T10:40:48Z</time>
      </trkpt>
      <trkpt lat="41.662209232" lon="2.547667788">
        <ele>586.54</ele>
        <time>2014-09-21T10:40:55Z</time>
      </trkpt>
      <trkpt lat="41.661996332" lon="2.547551531">
        <ele>586.06</ele>
        <time>2014-09-21T10:41:04Z</time>
      </trkpt>
      <trkpt lat="41.661833974" lon="2.547562512">
        <ele>586.06</ele>
        <time>2014-09-21T10:41:09Z</time>
      </trkpt>
      <trkpt lat="41.661664744" lon="2.547548933">
        <ele>586.06</ele>
        <time>2014-09-21T10:41:16Z</time>
      </trkpt>
      <trkpt lat="41.661428793" lon="2.547596375">
        <ele>584.14</ele>
        <time>2014-09-21T10:41:23Z</time>
      </trkpt>
      <trkpt lat="41.661307088" lon="2.547607858">
        <ele>582.22</ele>
        <time>2014-09-21T10:41:28Z</time>
      </trkpt>
      <trkpt lat="41.661105252" lon="2.547637949">
        <ele>580.29</ele>
        <time>2014-09-21T10:41:33Z</time>
      </trkpt>
      <trkpt lat="41.660920599" lon="2.547662759">
        <ele>578.85</ele>
        <time>2014-09-21T10:41:40Z</time>
      </trkpt>
      <trkpt lat="41.660817333" lon="2.547667286">
        <ele>577.41</ele>
        <time>2014-09-21T10:41:44Z</time>
      </trkpt>
      <trkpt lat="41.660599069" lon="2.547661921">
        <ele>575.49</ele>
        <time>2014-09-21T10:41:53Z</time>
      </trkpt>
      <trkpt lat="41.660438723" lon="2.547635015">
        <ele>575.01</ele>
        <time>2014-09-21T10:42:01Z</time>
      </trkpt>
      <trkpt lat="41.660419109" lon="2.547636105">
        <ele>575.01</ele>
        <time>2014-09-21T10:42:08Z</time>
      </trkpt>
      <trkpt lat="41.660409554" lon="2.547581958">
        <ele>574.04</ele>
        <time>2014-09-21T10:42:17Z</time>
      </trkpt>
      <trkpt lat="41.660364375" lon="2.547532253">
        <ele>573.08</ele>
        <time>2014-09-21T10:42:27Z</time>
      </trkpt>
      <trkpt lat="41.660323220" lon="2.547505263">
        <ele>572.12</ele>
        <time>2014-09-21T10:42:34Z</time>
      </trkpt>
      <trkpt lat="41.660271336" lon="2.547490176">
        <ele>570.68</ele>
        <time>2014-09-21T10:42:43Z</time>
      </trkpt>
      <trkpt lat="41.660202521" lon="2.547454050">
        <ele>568.28</ele>
        <time>2014-09-21T10:42:55Z</time>
      </trkpt>
      <trkpt lat="41.660156756" lon="2.547432928">
        <ele>567.80</ele>
        <time>2014-09-21T10:43:02Z</time>
      </trkpt>
      <trkpt lat="41.660109733" lon="2.547410632">
        <ele>566.83</ele>
        <time>2014-09-21T10:43:11Z</time>
      </trkpt>
      <trkpt lat="41.660069835" lon="2.547414823">
        <ele>565.87</ele>
        <time>2014-09-21T10:43:18Z</time>
      </trkpt>
      <trkpt lat="41.660038990" lon="2.547441729">
        <ele>564.91</ele>
        <time>2014-09-21T10:43:25Z</time>
      </trkpt>
      <trkpt lat="41.660027842" lon="2.547472993">
        <ele>563.95</ele>
        <time>2014-09-21T10:43:32Z</time>
      </trkpt>
      <trkpt lat="41.660026920" lon="2.547474837">
        <ele>563.95</ele>
        <time>2014-09-21T10:43:35Z</time>
      </trkpt>
      <trkpt lat="41.659991129" lon="2.547527056">
        <ele>562.51</ele>
        <time>2014-09-21T10:43:42Z</time>
      </trkpt>
      <trkpt lat="41.659965984" lon="2.547561925">
        <ele>561.55</ele>
        <time>2014-09-21T10:43:49Z</time>
      </trkpt>
      <trkpt lat="41.659946705" lon="2.547613893">
        <ele>560.11</ele>
        <time>2014-09-21T10:43:58Z</time>
      </trkpt>
      <trkpt lat="41.659923823" lon="2.547665693">
        <ele>559.14</ele>
        <time>2014-09-21T10:44:05Z</time>
      </trkpt>
      <trkpt lat="41.659907226" lon="2.547703076">
        <ele>557.70</ele>
        <time>2014-09-21T10:44:12Z</time>
      </trkpt>
      <trkpt lat="41.659879650" lon="2.547736688">
        <ele>556.74</ele>
        <time>2014-09-21T10:44:19Z</time>
      </trkpt>
      <trkpt lat="41.659843775" lon="2.547783794">
        <ele>555.78</ele>
        <time>2014-09-21T10:44:29Z</time>
      </trkpt>
      <trkpt lat="41.659826257" lon="2.547824698">
        <ele>554.82</ele>
        <time>2014-09-21T10:44:36Z</time>
      </trkpt>
      <trkpt lat="41.659786443" lon="2.547860824">
        <ele>553.38</ele>
        <time>2014-09-21T10:44:45Z</time>
      </trkpt>
      <trkpt lat="41.659757274" lon="2.547889574">
        <ele>552.90</ele>
        <time>2014-09-21T10:44:52Z</time>
      </trkpt>
      <trkpt lat="41.659722154" lon="2.547913881">
        <ele>551.45</ele>
        <time>2014-09-21T10:44:59Z</time>
      </trkpt>
      <trkpt lat="41.659682843" lon="2.547960820">
        <ele>550.49</ele>
        <time>2014-09-21T10:45:06Z</time>
      </trkpt>
      <trkpt lat="41.659648393" lon="2.547986217">
        <ele>550.01</ele>
        <time>2014-09-21T10:45:11Z</time>
      </trkpt>
      <trkpt lat="41.659610004" lon="2.548021253">
        <ele>549.53</ele>
        <time>2014-09-21T10:45:20Z</time>
      </trkpt>
      <trkpt lat="41.659578823" lon="2.548024858">
        <ele>549.53</ele>
        <time>2014-09-21T10:45:30Z</time>
      </trkpt>
      <trkpt lat="41.659483270" lon="2.548053775">
        <ele>548.09</ele>
        <time>2014-09-21T10:45:37Z</time>
      </trkpt>
      <trkpt lat="41.659463824" lon="2.548055787">
        <ele>547.61</ele>
        <time>2014-09-21T10:45:39Z</time>
      </trkpt>
      <trkpt lat="41.659357206" lon="2.547987558">
        <ele>544.72</ele>
        <time>2014-09-21T10:45:46Z</time>
      </trkpt>
      <trkpt lat="41.659248996" lon="2.547885383">
        <ele>542.32</ele>
        <time>2014-09-21T10:45:53Z</time>
      </trkpt>
      <trkpt lat="41.659231561" lon="2.547850430">
        <ele>541.84</ele>
        <time>2014-09-21T10:45:55Z</time>
      </trkpt>
      <trkpt lat="41.659132487" lon="2.547805419">
        <ele>540.88</ele>
        <time>2014-09-21T10:46:00Z</time>
      </trkpt>
      <trkpt lat="41.658960407" lon="2.547773317">
        <ele>539.92</ele>
        <time>2014-09-21T10:46:07Z</time>
      </trkpt>
      <trkpt lat="41.658896788" lon="2.547772898">
        <ele>539.44</ele>
        <time>2014-09-21T10:46:10Z</time>
      </trkpt>
      <trkpt lat="41.658764857" lon="2.547682038">
        <ele>534.63</ele>
        <time>2014-09-21T10:46:17Z</time>
      </trkpt>
      <trkpt lat="41.658702831" lon="2.547575252">
        <ele>531.75</ele>
        <time>2014-09-21T10:46:21Z</time>
      </trkpt>
      <trkpt lat="41.658694449" lon="2.547539545">
        <ele>531.75</ele>
        <time>2014-09-21T10:46:21Z</time>
      </trkpt>
      <trkpt lat="41.658685480" lon="2.547383558">
        <ele>529.34</ele>
        <time>2014-09-21T10:46:26Z</time>
      </trkpt>
      <trkpt lat="41.658665196" lon="2.547343409">
        <ele>527.90</ele>
        <time>2014-09-21T10:46:28Z</time>
      </trkpt>
      <trkpt lat="41.658535696" lon="2.547211981">
        <ele>524.06</ele>
        <time>2014-09-21T10:46:33Z</time>
      </trkpt>
      <trkpt lat="41.658505856" lon="2.547170742">
        <ele>523.09</ele>
        <time>2014-09-21T10:46:35Z</time>
      </trkpt>
      <trkpt lat="41.658356323" lon="2.546977958">
        <ele>519.73</ele>
        <time>2014-09-21T10:46:40Z</time>
      </trkpt>
      <trkpt lat="41.658294045" lon="2.546808727">
        <ele>516.37</ele>
        <time>2014-09-21T10:46:43Z</time>
      </trkpt>
      <trkpt lat="41.658264206" lon="2.546729518">
        <ele>515.40</ele>
        <time>2014-09-21T10:46:45Z</time>
      </trkpt>
      <trkpt lat="41.658183991" lon="2.546471942">
        <ele>513.96</ele>
        <time>2014-09-21T10:46:52Z</time>
      </trkpt>
      <trkpt lat="41.658149457" lon="2.546392314">
        <ele>513.96</ele>
        <time>2014-09-21T10:46:59Z</time>
      </trkpt>
      <trkpt lat="41.658221709" lon="2.546447635">
        <ele>512.04</ele>
        <time>2014-09-21T10:47:06Z</time>
      </trkpt>
      <trkpt lat="41.658392868" lon="2.546592055">
        <ele>510.12</ele>
        <time>2014-09-21T10:47:13Z</time>
      </trkpt>
      <trkpt lat="41.658522620" lon="2.546656512">
        <ele>507.23</ele>
        <time>2014-09-21T10:47:18Z</time>
      </trkpt>
      <trkpt lat="41.658568804" lon="2.546629774">
        <ele>504.83</ele>
        <time>2014-09-21T10:47:22Z</time>
      </trkpt>
      <trkpt lat="41.658718840" lon="2.546588954">
        <ele>503.39</ele>
        <time>2014-09-21T10:47:25Z</time>
      </trkpt>
      <trkpt lat="41.658896704" lon="2.546641927">
        <ele>503.39</ele>
        <time>2014-09-21T10:47:29Z</time>
      </trkpt>
      <trkpt lat="41.658971638" lon="2.546548385">
        <ele>501.95</ele>
        <time>2014-09-21T10:47:34Z</time>
      </trkpt>
      <trkpt lat="41.658986474" lon="2.546434727">
        <ele>499.54</ele>
        <time>2014-09-21T10:47:37Z</time>
      </trkpt>
      <trkpt lat="41.658952611" lon="2.546299610">
        <ele>496.66</ele>
        <time>2014-09-21T10:47:41Z</time>
      </trkpt>
      <trkpt lat="41.658948504" lon="2.546161141">
        <ele>494.26</ele>
        <time>2014-09-21T10:47:44Z</time>
      </trkpt>
      <trkpt lat="41.659006256" lon="2.545842881">
        <ele>492.33</ele>
        <time>2014-09-21T10:47:51Z</time>
      </trkpt>
      <trkpt lat="41.659024361" lon="2.545723355">
        <ele>490.89</ele>
        <time>2014-09-21T10:47:55Z</time>
      </trkpt>
      <trkpt lat="41.659040538" lon="2.545551945">
        <ele>488.01</ele>
        <time>2014-09-21T10:48:00Z</time>
      </trkpt>
      <trkpt lat="41.659044142" lon="2.545429401">
        <ele>486.08</ele>
        <time>2014-09-21T10:48:07Z</time>
      </trkpt>
      <trkpt lat="41.659041795" lon="2.545419091">
        <ele>486.08</ele>
        <time>2014-09-21T10:48:18Z</time>
      </trkpt>
      <trkpt lat="41.659042885" lon="2.545417164">
        <ele>486.08</ele>
        <time>2014-09-21T10:48:31Z</time>
      </trkpt>
      <trkpt lat="41.659043639" lon="2.545403836">
        <ele>486.08</ele>
        <time>2014-09-21T10:48:44Z</time>
      </trkpt>
      <trkpt lat="41.659049422" lon="2.545410961">
        <ele>486.08</ele>
        <time>2014-09-21T10:48:54Z</time>
      </trkpt>
      <trkpt lat="41.659045818" lon="2.545418169">
        <ele>486.08</ele>
        <time>2014-09-21T10:48:58Z</time>
      </trkpt>
      <trkpt lat="41.658987732" lon="2.545549095">
        <ele>486.08</ele>
        <time>2014-09-21T10:49:06Z</time>
      </trkpt>
      <trkpt lat="41.658859321" lon="2.545761744">
        <ele>485.60</ele>
        <time>2014-09-21T10:49:15Z</time>
      </trkpt>
      <trkpt lat="41.658839372" lon="2.545782447">
        <ele>485.60</ele>
        <time>2014-09-21T10:49:15Z</time>
      </trkpt>
      <trkpt lat="41.658673075" lon="2.545752943">
        <ele>485.60</ele>
        <time>2014-09-21T10:49:24Z</time>
      </trkpt>
      <trkpt lat="41.658487248" lon="2.545663508">
        <ele>488.97</ele>
        <time>2014-09-21T10:49:32Z</time>
      </trkpt>
      <trkpt lat="41.658362777" lon="2.545591423">
        <ele>489.93</ele>
        <time>2014-09-21T10:49:39Z</time>
      </trkpt>
      <trkpt lat="41.658209137" lon="2.545477597">
        <ele>490.41</ele>
        <time>2014-09-21T10:49:45Z</time>
      </trkpt>
      <trkpt lat="41.658073853" lon="2.545354132">
        <ele>490.41</ele>
        <time>2014-09-21T10:49:48Z</time>
      </trkpt>
      <trkpt lat="41.657851229" lon="2.545334015">
        <ele>488.01</ele>
        <time>2014-09-21T10:49:53Z</time>
      </trkpt>
      <trkpt lat="41.657769254" lon="2.545398640">
        <ele>487.53</ele>
        <time>2014-09-21T10:49:55Z</time>
      </trkpt>
      <trkpt lat="41.657543697" lon="2.545587568">
        <ele>487.53</ele>
        <time>2014-09-21T10:50:02Z</time>
      </trkpt>
      <trkpt lat="41.657492232" lon="2.545615899">
        <ele>488.97</ele>
        <time>2014-09-21T10:50:04Z</time>
      </trkpt>
      <trkpt lat="41.657294503" lon="2.545652444">
        <ele>489.45</ele>
        <time>2014-09-21T10:50:11Z</time>
      </trkpt>
      <trkpt lat="41.657061486" lon="2.545711536">
        <ele>490.41</ele>
        <time>2014-09-21T10:50:18Z</time>
      </trkpt>
      <trkpt lat="41.656822351" lon="2.545676248">
        <ele>490.41</ele>
        <time>2014-09-21T10:50:25Z</time>
      </trkpt>
      <trkpt lat="41.656690839" lon="2.545636434">
        <ele>488.97</ele>
        <time>2014-09-21T10:50:28Z</time>
      </trkpt>
      <trkpt lat="41.656563769" lon="2.545597123">
        <ele>488.97</ele>
        <time>2014-09-21T10:50:30Z</time>
      </trkpt>
      <trkpt lat="41.656478441" lon="2.545586646">
        <ele>488.97</ele>
        <time>2014-09-21T10:50:33Z</time>
      </trkpt>
      <trkpt lat="41.656047863" lon="2.545611875">
        <ele>488.01</ele>
        <time>2014-09-21T10:50:44Z</time>
      </trkpt>
      <trkpt lat="41.656009977" lon="2.545599973">
        <ele>488.01</ele>
        <time>2014-09-21T10:50:44Z</time>
      </trkpt>
      <trkpt lat="41.655741085" lon="2.545386402">
        <ele>484.64</ele>
        <time>2014-09-21T10:50:49Z</time>
      </trkpt>
      <trkpt lat="41.655566155" lon="2.545074260">
        <ele>479.35</ele>
        <time>2014-09-21T10:50:54Z</time>
      </trkpt>
      <trkpt lat="41.655396924" lon="2.545002008">
        <ele>478.39</ele>
        <time>2014-09-21T10:50:56Z</time>
      </trkpt>
      <trkpt lat="41.655262562" lon="2.545045007">
        <ele>477.43</ele>
        <time>2014-09-21T10:50:58Z</time>
      </trkpt>
      <trkpt lat="41.654967016" lon="2.545116672">
        <ele>473.59</ele>
        <time>2014-09-21T10:51:03Z</time>
      </trkpt>
      <trkpt lat="41.654838187" lon="2.545107536">
        <ele>471.18</ele>
        <time>2014-09-21T10:51:05Z</time>
      </trkpt>
      <trkpt lat="41.654593184" lon="2.545021454">
        <ele>466.86</ele>
        <time>2014-09-21T10:51:08Z</time>
      </trkpt>
      <trkpt lat="41.654443064" lon="2.544953309">
        <ele>462.53</ele>
        <time>2014-09-21T10:51:10Z</time>
      </trkpt>
      <trkpt lat="41.654241982" lon="2.544816936">
        <ele>458.21</ele>
        <time>2014-09-21T10:51:13Z</time>
      </trkpt>
      <trkpt lat="41.654123797" lon="2.544755496">
        <ele>455.80</ele>
        <time>2014-09-21T10:51:15Z</time>
      </trkpt>
      <trkpt lat="41.653963451" lon="2.544672348">
        <ele>451.00</ele>
        <time>2014-09-21T10:51:19Z</time>
      </trkpt>
      <trkpt lat="41.653848703" lon="2.544625828">
        <ele>447.63</ele>
        <time>2014-09-21T10:51:22Z</time>
      </trkpt>
      <trkpt lat="41.653832023" lon="2.544443354">
        <ele>447.63</ele>
        <time>2014-09-21T10:51:29Z</time>
      </trkpt>
      <trkpt lat="41.653847027" lon="2.544380322">
        <ele>448.59</ele>
        <time>2014-09-21T10:51:31Z</time>
      </trkpt>
      <trkpt lat="41.653933528" lon="2.544180749">
        <ele>449.07</ele>
        <time>2014-09-21T10:51:38Z</time>
      </trkpt>
      <trkpt lat="41.654036039" lon="2.543941027">
        <ele>449.07</ele>
        <time>2014-09-21T10:51:45Z</time>
      </trkpt>
      <trkpt lat="41.654117427" lon="2.543818819">
        <ele>449.07</ele>
        <time>2014-09-21T10:51:52Z</time>
      </trkpt>
      <trkpt lat="41.654134610" lon="2.543763749">
        <ele>449.07</ele>
        <time>2014-09-21T10:51:57Z</time>
      </trkpt>
      <trkpt lat="41.654111308" lon="2.543777412">
        <ele>448.59</ele>
        <time>2014-09-21T10:52:13Z</time>
      </trkpt>
      <trkpt lat="41.654108374" lon="2.543758050">
        <ele>448.59</ele>
        <time>2014-09-21T10:52:25Z</time>
      </trkpt>
      <trkpt lat="41.654097562" lon="2.543742376">
        <ele>448.59</ele>
        <time>2014-09-21T10:52:30Z</time>
      </trkpt>
      <trkpt lat="41.653980215" lon="2.543564093">
        <ele>446.19</ele>
        <time>2014-09-21T10:52:37Z</time>
      </trkpt>
      <trkpt lat="41.653857504" lon="2.543404836">
        <ele>444.27</ele>
        <time>2014-09-21T10:52:42Z</time>
      </trkpt>
      <trkpt lat="41.653740493" lon="2.543221440">
        <ele>440.90</ele>
        <time>2014-09-21T10:52:48Z</time>
      </trkpt>
      <trkpt lat="41.653717945" lon="2.543192020">
        <ele>440.90</ele>
        <time>2014-09-21T10:52:49Z</time>
      </trkpt>
      <trkpt lat="41.653619793" lon="2.543041648">
        <ele>437.54</ele>
        <time>2014-09-21T10:52:53Z</time>
      </trkpt>
      <trkpt lat="41.653547709" lon="2.542872753">
        <ele>435.61</ele>
        <time>2014-09-21T10:52:58Z</time>
      </trkpt>
      <trkpt lat="41.653458693" lon="2.542742750">
        <ele>432.73</ele>
        <time>2014-09-21T10:53:03Z</time>
      </trkpt>
      <trkpt lat="41.653333886" lon="2.542695895">
        <ele>430.33</ele>
        <time>2014-09-21T10:53:07Z</time>
      </trkpt>
      <trkpt lat="41.653201788" lon="2.542599084">
        <ele>427.92</ele>
        <time>2014-09-21T10:53:12Z</time>
      </trkpt>
      <trkpt lat="41.653072958" lon="2.542441588">
        <ele>424.08</ele>
        <time>2014-09-21T10:53:17Z</time>
      </trkpt>
      <trkpt lat="41.653027025" lon="2.542296665">
        <ele>421.19</ele>
        <time>2014-09-21T10:53:21Z</time>
      </trkpt>
      <trkpt lat="41.653034317" lon="2.542178396">
        <ele>419.27</ele>
        <time>2014-09-21T10:53:26Z</time>
      </trkpt>
      <trkpt lat="41.652931723" lon="2.541941859">
        <ele>416.87</ele>
        <time>2014-09-21T10:53:31Z</time>
      </trkpt>
      <trkpt lat="41.652915713" lon="2.541898776">
        <ele>416.87</ele>
        <time>2014-09-21T10:53:33Z</time>
      </trkpt>
      <trkpt lat="41.652880677" lon="2.541670872">
        <ele>413.02</ele>
        <time>2014-09-21T10:53:38Z</time>
      </trkpt>
      <trkpt lat="41.652872630" lon="2.541606834">
        <ele>411.58</ele>
        <time>2014-09-21T10:53:40Z</time>
      </trkpt>
      <trkpt lat="41.652905739" lon="2.541574648">
        <ele>410.62</ele>
        <time>2014-09-21T10:53:43Z</time>
      </trkpt>
      <trkpt lat="41.653011770" lon="2.541625442">
        <ele>409.18</ele>
        <time>2014-09-21T10:53:50Z</time>
      </trkpt>
      <trkpt lat="41.653165913" lon="2.541740107">
        <ele>406.77</ele>
        <time>2014-09-21T10:53:57Z</time>
      </trkpt>
      <trkpt lat="41.653213355" lon="2.541792829">
        <ele>406.77</ele>
        <time>2014-09-21T10:53:59Z</time>
      </trkpt>
      <trkpt lat="41.653366324" lon="2.541733904">
        <ele>404.85</ele>
        <time>2014-09-21T10:54:04Z</time>
      </trkpt>
      <trkpt lat="41.653382669" lon="2.541701047">
        <ele>404.85</ele>
        <time>2014-09-21T10:54:06Z</time>
      </trkpt>
      <trkpt lat="41.653486018" lon="2.541468533">
        <ele>406.29</ele>
        <time>2014-09-21T10:54:13Z</time>
      </trkpt>
      <trkpt lat="41.653496244" lon="2.541439364">
        <ele>406.29</ele>
        <time>2014-09-21T10:54:15Z</time>
      </trkpt>
      <trkpt lat="41.653552067" lon="2.541255716">
        <ele>406.29</ele>
        <time>2014-09-21T10:54:20Z</time>
      </trkpt>
      <trkpt lat="41.653663211" lon="2.541273486">
        <ele>404.37</ele>
        <time>2014-09-21T10:54:23Z</time>
      </trkpt>
      <trkpt lat="41.653749042" lon="2.541360239">
        <ele>402.45</ele>
        <time>2014-09-21T10:54:27Z</time>
      </trkpt>
      <trkpt lat="41.653795394" lon="2.541416146">
        <ele>401.97</ele>
        <time>2014-09-21T10:54:29Z</time>
      </trkpt>
      <trkpt lat="41.653877453" lon="2.541486973">
        <ele>400.05</ele>
        <time>2014-09-21T10:54:32Z</time>
      </trkpt>
      <trkpt lat="41.653904778" lon="2.541505665">
        <ele>399.08</ele>
        <time>2014-09-21T10:54:32Z</time>
      </trkpt>
      <trkpt lat="41.654024388" lon="2.541389072">
        <ele>397.16</ele>
        <time>2014-09-21T10:54:37Z</time>
      </trkpt>
      <trkpt lat="41.654046851" lon="2.541359736">
        <ele>396.68</ele>
        <time>2014-09-21T10:54:39Z</time>
      </trkpt>
      <trkpt lat="41.654206946" lon="2.541196037">
        <ele>398.12</ele>
        <time>2014-09-21T10:54:46Z</time>
      </trkpt>
      <trkpt lat="41.654245167" lon="2.541174077">
        <ele>399.57</ele>
        <time>2014-09-21T10:54:49Z</time>
      </trkpt>
      <trkpt lat="41.654341559" lon="2.541134682">
        <ele>402.45</ele>
        <time>2014-09-21T10:54:58Z</time>
      </trkpt>
      <trkpt lat="41.654425881" lon="2.541171478">
        <ele>404.85</ele>
        <time>2014-09-21T10:55:05Z</time>
      </trkpt>
      <trkpt lat="41.654435436" lon="2.541176675">
        <ele>404.85</ele>
        <time>2014-09-21T10:55:05Z</time>
      </trkpt>
      <trkpt lat="41.654512634" lon="2.541213639">
        <ele>405.81</ele>
        <time>2014-09-21T10:55:14Z</time>
      </trkpt>
      <trkpt lat="41.654612713" lon="2.541293686">
        <ele>405.81</ele>
        <time>2014-09-21T10:55:21Z</time>
      </trkpt>
      <trkpt lat="41.654659149" lon="2.541326124">
        <ele>404.85</ele>
        <time>2014-09-21T10:55:23Z</time>
      </trkpt>
      <trkpt lat="41.654791751" lon="2.541330148">
        <ele>404.37</ele>
        <time>2014-09-21T10:55:28Z</time>
      </trkpt>
      <trkpt lat="41.654870289" lon="2.541230571">
        <ele>405.33</ele>
        <time>2014-09-21T10:55:33Z</time>
      </trkpt>
      <trkpt lat="41.654914043" lon="2.541170556">
        <ele>406.77</ele>
        <time>2014-09-21T10:55:38Z</time>
      </trkpt>
      <trkpt lat="41.654990067" lon="2.541083217">
        <ele>408.22</ele>
        <time>2014-09-21T10:55:45Z</time>
      </trkpt>
      <trkpt lat="41.655103642" lon="2.541055305">
        <ele>409.66</ele>
        <time>2014-09-21T10:55:54Z</time>
      </trkpt>
      <trkpt lat="41.655253175" lon="2.541017754">
        <ele>408.70</ele>
        <time>2014-09-21T10:56:03Z</time>
      </trkpt>
      <trkpt lat="41.655460124" lon="2.540963188">
        <ele>406.77</ele>
        <time>2014-09-21T10:56:08Z</time>
      </trkpt>
      <trkpt lat="41.655574537" lon="2.540937791">
        <ele>405.33</ele>
        <time>2014-09-21T10:56:11Z</time>
      </trkpt>
      <trkpt lat="41.655704289" lon="2.540903509">
        <ele>402.45</ele>
        <time>2014-09-21T10:56:15Z</time>
      </trkpt>
      <trkpt lat="41.655743432" lon="2.540900072">
        <ele>401.01</ele>
        <time>2014-09-21T10:56:22Z</time>
      </trkpt>
      <trkpt lat="41.655801351" lon="2.540896719">
        <ele>400.05</ele>
        <time>2014-09-21T10:56:32Z</time>
      </trkpt>
      <trkpt lat="41.655855917" lon="2.540892026">
        <ele>398.60</ele>
        <time>2014-09-21T10:56:39Z</time>
      </trkpt>
      <trkpt lat="41.655883494" lon="2.540890014">
        <ele>398.60</ele>
        <time>2014-09-21T10:56:46Z</time>
      </trkpt>
      <trkpt lat="41.655890870" lon="2.540894289">
        <ele>398.60</ele>
        <time>2014-09-21T10:56:53Z</time>
      </trkpt>
      <trkpt lat="41.655896234" lon="2.540852798">
        <ele>397.64</ele>
        <time>2014-09-21T10:57:05Z</time>
      </trkpt>
      <trkpt lat="41.655912830" lon="2.540812817">
        <ele>397.16</ele>
        <time>2014-09-21T10:57:09Z</time>
      </trkpt>
      <trkpt lat="41.655966978" lon="2.540698655">
        <ele>395.24</ele>
        <time>2014-09-21T10:57:14Z</time>
      </trkpt>
      <trkpt lat="41.656104273" lon="2.540545015">
        <ele>393.32</ele>
        <time>2014-09-21T10:57:21Z</time>
      </trkpt>
      <trkpt lat="41.656143333" lon="2.540514756">
        <ele>393.32</ele>
        <time>2014-09-21T10:57:23Z</time>
      </trkpt>
      <trkpt lat="41.656278281" lon="2.540503357">
        <ele>389.95</ele>
        <time>2014-09-21T10:57:31Z</time>
      </trkpt>
      <trkpt lat="41.656306948" lon="2.540507380">
        <ele>389.47</ele>
        <time>2014-09-21T10:57:33Z</time>
      </trkpt>
      <trkpt lat="41.656335446" lon="2.540388608">
        <ele>388.03</ele>
        <time>2014-09-21T10:57:40Z</time>
      </trkpt>
      <trkpt lat="41.656316168" lon="2.540375449">
        <ele>387.55</ele>
        <time>2014-09-21T10:57:42Z</time>
      </trkpt>
      <trkpt lat="41.656191026" lon="2.540312585">
        <ele>387.55</ele>
        <time>2014-09-21T10:57:52Z</time>
      </trkpt>
      <trkpt lat="41.656136292" lon="2.540307639">
        <ele>387.55</ele>
        <time>2014-09-21T10:57:58Z</time>
      </trkpt>
      <trkpt lat="41.656005702" lon="2.540376455">
        <ele>387.07</ele>
        <time>2014-09-21T10:58:06Z</time>
      </trkpt>
      <trkpt lat="41.655995057" lon="2.540377963">
        <ele>387.07</ele>
        <time>2014-09-21T10:58:08Z</time>
      </trkpt>
      <trkpt lat="41.655949208" lon="2.540372934">
        <ele>387.07</ele>
        <time>2014-09-21T10:58:10Z</time>
      </trkpt>
      <trkpt lat="41.655790203" lon="2.540336222">
        <ele>388.51</ele>
        <time>2014-09-21T10:58:18Z</time>
      </trkpt>
      <trkpt lat="41.655674365" lon="2.540302275">
        <ele>388.51</ele>
        <time>2014-09-21T10:58:27Z</time>
      </trkpt>
      <trkpt lat="41.655507565" lon="2.540346364">
        <ele>388.51</ele>
        <time>2014-09-21T10:58:32Z</time>
      </trkpt>
      <trkpt lat="41.655315871" lon="2.540341251">
        <ele>388.03</ele>
        <time>2014-09-21T10:58:39Z</time>
      </trkpt>
      <trkpt lat="41.655188969" lon="2.540369833">
        <ele>387.07</ele>
        <time>2014-09-21T10:58:43Z</time>
      </trkpt>
      <trkpt lat="41.654976237" lon="2.540419286">
        <ele>384.18</ele>
        <time>2014-09-21T10:58:50Z</time>
      </trkpt>
      <trkpt lat="41.654908595" lon="2.540424399">
        <ele>383.22</ele>
        <time>2014-09-21T10:58:53Z</time>
      </trkpt>
      <trkpt lat="41.654771634" lon="2.540474355">
        <ele>381.30</ele>
        <time>2014-09-21T10:58:57Z</time>
      </trkpt>
      <trkpt lat="41.654601230" lon="2.540523725">
        <ele>378.42</ele>
        <time>2014-09-21T10:59:02Z</time>
      </trkpt>
      <trkpt lat="41.654495115" lon="2.540527329">
        <ele>376.49</ele>
        <time>2014-09-21T10:59:06Z</time>
      </trkpt>
      <trkpt lat="41.654414649" lon="2.540505201">
        <ele>374.57</ele>
        <time>2014-09-21T10:59:09Z</time>
      </trkpt>
      <trkpt lat="41.654290848" lon="2.540466393">
        <ele>371.21</ele>
        <time>2014-09-21T10:59:18Z</time>
      </trkpt>
      <trkpt lat="41.654258410" lon="2.540426495">
        <ele>370.73</ele>
        <time>2014-09-21T10:59:23Z</time>
      </trkpt>
      <trkpt lat="41.654228738" lon="2.540354243">
        <ele>370.24</ele>
        <time>2014-09-21T10:59:35Z</time>
      </trkpt>
      <trkpt lat="41.654178615" lon="2.540345358">
        <ele>370.24</ele>
        <time>2014-09-21T10:59:44Z</time>
      </trkpt>
      <trkpt lat="41.654122372" lon="2.540299006">
        <ele>368.80</ele>
        <time>2014-09-21T10:59:51Z</time>
      </trkpt>
      <trkpt lat="41.654097813" lon="2.540258102">
        <ele>367.84</ele>
        <time>2014-09-21T10:59:58Z</time>
      </trkpt>
      <trkpt lat="41.654057664" lon="2.540187946">
        <ele>366.40</ele>
        <time>2014-09-21T11:00:05Z</time>
      </trkpt>
      <trkpt lat="41.654006786" lon="2.540031623">
        <ele>364.48</ele>
        <time>2014-09-21T11:00:10Z</time>
      </trkpt>
      <trkpt lat="41.653985244" lon="2.539969849">
        <ele>364.00</ele>
        <time>2014-09-21T11:00:13Z</time>
      </trkpt>
      <trkpt lat="41.653918692" lon="2.539931795">
        <ele>363.04</ele>
        <time>2014-09-21T11:00:17Z</time>
      </trkpt>
      <trkpt lat="41.653682909" lon="2.539931459">
        <ele>361.11</ele>
        <time>2014-09-21T11:00:27Z</time>
      </trkpt>
      <trkpt lat="41.653521641" lon="2.539851161">
        <ele>360.15</ele>
        <time>2014-09-21T11:00:33Z</time>
      </trkpt>
      <trkpt lat="41.653374790" lon="2.539765749">
        <ele>358.71</ele>
        <time>2014-09-21T11:00:40Z</time>
      </trkpt>
      <trkpt lat="41.653240177" lon="2.539672375">
        <ele>358.71</ele>
        <time>2014-09-21T11:00:48Z</time>
      </trkpt>
      <trkpt lat="41.653107324" lon="2.539617054">
        <ele>358.23</ele>
        <time>2014-09-21T11:00:55Z</time>
      </trkpt>
      <trkpt lat="41.653081256" lon="2.539614624">
        <ele>359.67</ele>
        <time>2014-09-21T11:00:57Z</time>
      </trkpt>
      <trkpt lat="41.652961562" lon="2.539593753">
        <ele>361.59</ele>
        <time>2014-09-21T11:01:06Z</time>
      </trkpt>
      <trkpt lat="41.652809515" lon="2.539508509">
        <ele>363.04</ele>
        <time>2014-09-21T11:01:14Z</time>
      </trkpt>
      <trkpt lat="41.652786213" lon="2.539493254">
        <ele>362.55</ele>
        <time>2014-09-21T11:01:23Z</time>
      </trkpt>
      <trkpt lat="41.652753524" lon="2.539425947">
        <ele>360.63</ele>
        <time>2014-09-21T11:01:28Z</time>
      </trkpt>
      <trkpt lat="41.652684373" lon="2.539287478">
        <ele>359.19</ele>
        <time>2014-09-21T11:01:35Z</time>
      </trkpt>
      <trkpt lat="41.652532828" lon="2.539106345">
        <ele>357.27</ele>
        <time>2014-09-21T11:01:42Z</time>
      </trkpt>
      <trkpt lat="41.652399388" lon="2.539009953">
        <ele>355.83</ele>
        <time>2014-09-21T11:01:46Z</time>
      </trkpt>
      <trkpt lat="41.652182548" lon="2.538784815">
        <ele>353.42</ele>
        <time>2014-09-21T11:01:53Z</time>
      </trkpt>
      <trkpt lat="41.652108285" lon="2.538609717">
        <ele>350.54</ele>
        <time>2014-09-21T11:01:56Z</time>
      </trkpt>
      <trkpt lat="41.652063777" lon="2.538452473">
        <ele>349.58</ele>
        <time>2014-09-21T11:02:00Z</time>
      </trkpt>
      <trkpt lat="41.651950789" lon="2.538368151">
        <ele>347.17</ele>
        <time>2014-09-21T11:02:03Z</time>
      </trkpt>
      <trkpt lat="41.651729842" lon="2.538361361">
        <ele>345.25</ele>
        <time>2014-09-21T11:02:12Z</time>
      </trkpt>
      <trkpt lat="41.651604616" lon="2.538386759">
        <ele>344.29</ele>
        <time>2014-09-21T11:02:17Z</time>
      </trkpt>
      <trkpt lat="41.651376544" lon="2.538624050">
        <ele>342.37</ele>
        <time>2014-09-21T11:02:22Z</time>
      </trkpt>
      <trkpt lat="41.651279650" lon="2.538649615">
        <ele>341.89</ele>
        <time>2014-09-21T11:02:26Z</time>
      </trkpt>
      <trkpt lat="41.651077227" lon="2.538632348">
        <ele>341.89</ele>
        <time>2014-09-21T11:02:33Z</time>
      </trkpt>
      <trkpt lat="41.650933477" lon="2.538669313">
        <ele>341.89</ele>
        <time>2014-09-21T11:02:40Z</time>
      </trkpt>
      <trkpt lat="41.650851251" lon="2.538723543">
        <ele>343.33</ele>
        <time>2014-09-21T11:02:43Z</time>
      </trkpt>
      <trkpt lat="41.650714709" lon="2.538876765">
        <ele>344.77</ele>
        <time>2014-09-21T11:02:52Z</time>
      </trkpt>
      <trkpt lat="41.650652097" lon="2.538954716">
        <ele>345.25</ele>
        <time>2014-09-21T11:02:55Z</time>
      </trkpt>
      <trkpt lat="41.650605409" lon="2.539145405">
        <ele>347.17</ele>
        <time>2014-09-21T11:03:04Z</time>
      </trkpt>
      <trkpt lat="41.650583952" lon="2.539340871">
        <ele>348.62</ele>
        <time>2014-09-21T11:03:13Z</time>
      </trkpt>
      <trkpt lat="41.650572301" lon="2.539423432">
        <ele>348.62</ele>
        <time>2014-09-21T11:03:16Z</time>
      </trkpt>
      <trkpt lat="41.650489739" lon="2.539484620">
        <ele>348.62</ele>
        <time>2014-09-21T11:03:23Z</time>
      </trkpt>
      <trkpt lat="41.650380271" lon="2.539403651">
        <ele>350.06</ele>
        <time>2014-09-21T11:03:32Z</time>
      </trkpt>
      <trkpt lat="41.650246664" lon="2.539245568">
        <ele>352.94</ele>
        <time>2014-09-21T11:03:41Z</time>
      </trkpt>
      <trkpt lat="41.650189499" lon="2.539212208">
        <ele>353.42</ele>
        <time>2014-09-21T11:03:46Z</time>
      </trkpt>
      <trkpt lat="41.650042732" lon="2.539275073">
        <ele>354.86</ele>
        <time>2014-09-21T11:03:55Z</time>
      </trkpt>
      <trkpt lat="41.649925972" lon="2.539443130">
        <ele>355.34</ele>
        <time>2014-09-21T11:04:05Z</time>
      </trkpt>
      <trkpt lat="41.649828994" lon="2.539584449">
        <ele>355.83</ele>
        <time>2014-09-21T11:04:14Z</time>
      </trkpt>
      <trkpt lat="41.649691782" lon="2.539667513">
        <ele>355.83</ele>
        <time>2014-09-21T11:04:21Z</time>
      </trkpt>
      <trkpt lat="41.649644424" lon="2.539683020">
        <ele>354.86</ele>
        <time>2014-09-21T11:04:26Z</time>
      </trkpt>
      <trkpt lat="41.649631097" lon="2.539669190">
        <ele>354.86</ele>
        <time>2014-09-21T11:04:36Z</time>
      </trkpt>
      <trkpt lat="41.649621709" lon="2.539628705">
        <ele>354.86</ele>
        <time>2014-09-21T11:04:49Z</time>
      </trkpt>
      <trkpt lat="41.649611232" lon="2.539629124">
        <ele>354.86</ele>
        <time>2014-09-21T11:04:57Z</time>
      </trkpt>
      <trkpt lat="41.649588265" lon="2.539652929">
        <ele>354.38</ele>
        <time>2014-09-21T11:05:08Z</time>
      </trkpt>
      <trkpt lat="41.649571753" lon="2.539672291">
        <ele>354.38</ele>
        <time>2014-09-21T11:05:22Z</time>
      </trkpt>
      <trkpt lat="41.649535795" lon="2.539688468">
        <ele>354.38</ele>
        <time>2014-09-21T11:05:41Z</time>
      </trkpt>
      <trkpt lat="41.649548619" lon="2.539670782">
        <ele>353.90</ele>
        <time>2014-09-21T11:05:57Z</time>
      </trkpt>
      <trkpt lat="41.649544931" lon="2.539653935">
        <ele>353.90</ele>
        <time>2014-09-21T11:05:58Z</time>
      </trkpt>
      <trkpt lat="41.649550882" lon="2.539484788">
        <ele>355.34</ele>
        <time>2014-09-21T11:06:09Z</time>
      </trkpt>
      <trkpt lat="41.649523222" lon="2.539379930">
        <ele>355.83</ele>
        <time>2014-09-21T11:06:19Z</time>
      </trkpt>
      <trkpt lat="41.649497741" lon="2.539281191">
        <ele>354.38</ele>
        <time>2014-09-21T11:06:24Z</time>
      </trkpt>
      <trkpt lat="41.649431356" lon="2.539155295">
        <ele>352.46</ele>
        <time>2014-09-21T11:06:33Z</time>
      </trkpt>
      <trkpt lat="41.649409563" lon="2.539107518">
        <ele>351.98</ele>
        <time>2014-09-21T11:06:37Z</time>
      </trkpt>
      <trkpt lat="41.649394895" lon="2.539096287">
        <ele>351.98</ele>
        <time>2014-09-21T11:06:49Z</time>
      </trkpt>
      <trkpt lat="41.649382993" lon="2.539071392">
        <ele>351.50</ele>
        <time>2014-09-21T11:06:58Z</time>
      </trkpt>
      <trkpt lat="41.649382993" lon="2.539078685">
        <ele>351.50</ele>
        <time>2014-09-21T11:07:17Z</time>
      </trkpt>
      <trkpt lat="41.649363882" lon="2.539098885">
        <ele>351.50</ele>
        <time>2014-09-21T11:07:36Z</time>
      </trkpt>
      <trkpt lat="41.649373437" lon="2.539108357">
        <ele>351.50</ele>
        <time>2014-09-21T11:08:00Z</time>
      </trkpt>
      <trkpt lat="41.649380981" lon="2.539105758">
        <ele>351.50</ele>
        <time>2014-09-21T11:08:25Z</time>
      </trkpt>
      <trkpt lat="41.649436218" lon="2.539073404">
        <ele>351.50</ele>
        <time>2014-09-21T11:08:47Z</time>
      </trkpt>
      <trkpt lat="41.649479301" lon="2.539101567">
        <ele>351.50</ele>
        <time>2014-09-21T11:09:10Z</time>
      </trkpt>
      <trkpt lat="41.649457256" lon="2.539077260">
        <ele>351.50</ele>
        <time>2014-09-21T11:09:31Z</time>
      </trkpt>
      <trkpt lat="41.649434457" lon="2.539119672">
        <ele>351.50</ele>
        <time>2014-09-21T11:09:54Z</time>
      </trkpt>
      <trkpt lat="41.649413503" lon="2.539112548">
        <ele>351.50</ele>
        <time>2014-09-21T11:10:18Z</time>
      </trkpt>
      <trkpt lat="41.649391961" lon="2.539098969">
        <ele>351.50</ele>
        <time>2014-09-21T11:10:34Z</time>
      </trkpt>
      <trkpt lat="41.649381232" lon="2.539081954">
        <ele>351.50</ele>
        <time>2014-09-21T11:10:58Z</time>
      </trkpt>
      <trkpt lat="41.649382154" lon="2.539082121">
        <ele>351.50</ele>
        <time>2014-09-21T11:11:22Z</time>
      </trkpt>
      <trkpt lat="41.649395565" lon="2.539132664">
        <ele>351.50</ele>
        <time>2014-09-21T11:11:45Z</time>
      </trkpt>
      <trkpt lat="41.649389950" lon="2.539161246">
        <ele>351.50</ele>
        <time>2014-09-21T11:12:08Z</time>
      </trkpt>
      <trkpt lat="41.649393135" lon="2.539157642">
        <ele>351.50</ele>
        <time>2014-09-21T11:12:25Z</time>
      </trkpt>
      <trkpt lat="41.649426495" lon="2.539119672">
        <ele>351.02</ele>
        <time>2014-09-21T11:12:51Z</time>
      </trkpt>
      <trkpt lat="41.649439235" lon="2.539077763">
        <ele>351.02</ele>
        <time>2014-09-21T11:13:14Z</time>
      </trkpt>
      <trkpt lat="41.649439990" lon="2.539098634">
        <ele>351.02</ele>
        <time>2014-09-21T11:13:31Z</time>
      </trkpt>
      <trkpt lat="41.649420292" lon="2.539092431">
        <ele>351.02</ele>
        <time>2014-09-21T11:13:49Z</time>
      </trkpt>
      <trkpt lat="41.649391291" lon="2.539154792">
        <ele>351.02</ele>
        <time>2014-09-21T11:14:13Z</time>
      </trkpt>
      <trkpt lat="41.649396823" lon="2.539144483">
        <ele>351.02</ele>
        <time>2014-09-21T11:14:32Z</time>
      </trkpt>
      <trkpt lat="41.649425405" lon="2.539133418">
        <ele>350.54</ele>
        <time>2014-09-21T11:14:51Z</time>
      </trkpt>
      <trkpt lat="41.649396487" lon="2.539087486">
        <ele>350.54</ele>
        <time>2014-09-21T11:15:02Z</time>
      </trkpt>
      <trkpt lat="41.649385675" lon="2.539041553">
        <ele>350.06</ele>
        <time>2014-09-21T11:15:11Z</time>
      </trkpt>
      <trkpt lat="41.649349968" lon="2.538971983">
        <ele>350.06</ele>
        <time>2014-09-21T11:15:16Z</time>
      </trkpt>
      <trkpt lat="41.649258438" lon="2.538813649">
        <ele>348.13</ele>
        <time>2014-09-21T11:15:23Z</time>
      </trkpt>
      <trkpt lat="41.649211834" lon="2.538748354">
        <ele>347.17</ele>
        <time>2014-09-21T11:15:26Z</time>
      </trkpt>
      <trkpt lat="41.649134302" lon="2.538604520">
        <ele>346.21</ele>
        <time>2014-09-21T11:15:28Z</time>
      </trkpt>
      <trkpt lat="41.649056685" lon="2.538483318">
        <ele>345.25</ele>
        <time>2014-09-21T11:15:30Z</time>
      </trkpt>
      <trkpt lat="41.649013937" lon="2.538419532">
        <ele>344.77</ele>
        <time>2014-09-21T11:15:31Z</time>
      </trkpt>
      <trkpt lat="41.648808246" lon="2.538301934">
        <ele>344.29</ele>
        <time>2014-09-21T11:15:37Z</time>
      </trkpt>
      <trkpt lat="41.648773796" lon="2.538308136">
        <ele>343.81</ele>
        <time>2014-09-21T11:15:37Z</time>
      </trkpt>
      <trkpt lat="41.648704561" lon="2.538333617">
        <ele>342.85</ele>
        <time>2014-09-21T11:15:40Z</time>
      </trkpt>
      <trkpt lat="41.648552430" lon="2.538428249">
        <ele>339.96</ele>
        <time>2014-09-21T11:15:45Z</time>
      </trkpt>
      <trkpt lat="41.648476071" lon="2.538492371">
        <ele>339.00</ele>
        <time>2014-09-21T11:15:47Z</time>
      </trkpt>
      <trkpt lat="41.648337853" lon="2.538523467">
        <ele>338.52</ele>
        <time>2014-09-21T11:15:51Z</time>
      </trkpt>
      <trkpt lat="41.648238779" lon="2.538327247">
        <ele>337.56</ele>
        <time>2014-09-21T11:15:56Z</time>
      </trkpt>
      <trkpt lat="41.648165521" lon="2.538020218">
        <ele>337.56</ele>
        <time>2014-09-21T11:16:05Z</time>
      </trkpt>
      <trkpt lat="41.648163090" lon="2.537925251">
        <ele>337.56</ele>
        <time>2014-09-21T11:16:06Z</time>
      </trkpt>
      <trkpt lat="41.648202988" lon="2.537666250">
        <ele>336.12</ele>
        <time>2014-09-21T11:16:10Z</time>
      </trkpt>
      <trkpt lat="41.648294435" lon="2.537286969">
        <ele>332.27</ele>
        <time>2014-09-21T11:16:15Z</time>
      </trkpt>
      <trkpt lat="41.648324610" lon="2.537174819">
        <ele>331.31</ele>
        <time>2014-09-21T11:16:17Z</time>
      </trkpt>
      <trkpt lat="41.648300889" lon="2.537063927">
        <ele>331.31</ele>
        <time>2014-09-21T11:16:22Z</time>
      </trkpt>
      <trkpt lat="41.648245736" lon="2.537004583">
        <ele>332.75</ele>
        <time>2014-09-21T11:16:27Z</time>
      </trkpt>
      <trkpt lat="41.648164264" lon="2.537021933">
        <ele>333.71</ele>
        <time>2014-09-21T11:16:34Z</time>
      </trkpt>
      <trkpt lat="41.648077763" lon="2.537107010">
        <ele>335.16</ele>
        <time>2014-09-21T11:16:43Z</time>
      </trkpt>
      <trkpt lat="41.648020263" lon="2.537227877">
        <ele>337.56</ele>
        <time>2014-09-21T11:16:52Z</time>
      </trkpt>
      <trkpt lat="41.647977347" lon="2.537357209">
        <ele>339.48</ele>
        <time>2014-09-21T11:17:00Z</time>
      </trkpt>
      <trkpt lat="41.647914902" lon="2.537432060">
        <ele>340.92</ele>
        <time>2014-09-21T11:17:07Z</time>
      </trkpt>
      <trkpt lat="41.647819851" lon="2.537508419">
        <ele>343.33</ele>
        <time>2014-09-21T11:17:16Z</time>
      </trkpt>
      <trkpt lat="41.647743744" lon="2.537660131">
        <ele>345.25</ele>
        <time>2014-09-21T11:17:26Z</time>
      </trkpt>
      <trkpt lat="41.647698649" lon="2.537784603">
        <ele>347.65</ele>
        <time>2014-09-21T11:17:35Z</time>
      </trkpt>
      <trkpt lat="41.647601671" lon="2.537897255">
        <ele>349.58</ele>
        <time>2014-09-21T11:17:47Z</time>
      </trkpt>
      <trkpt lat="41.647582476" lon="2.537912930">
        <ele>349.58</ele>
        <time>2014-09-21T11:17:49Z</time>
      </trkpt>
      <trkpt lat="41.647459513" lon="2.538019296">
        <ele>350.06</ele>
        <time>2014-09-21T11:17:58Z</time>
      </trkpt>
      <trkpt lat="41.647409390" lon="2.538220629">
        <ele>348.62</ele>
        <time>2014-09-21T11:18:05Z</time>
      </trkpt>
      <trkpt lat="41.647400002" lon="2.538265556">
        <ele>348.62</ele>
        <time>2014-09-21T11:18:06Z</time>
      </trkpt>
      <trkpt lat="41.647336802" lon="2.538575100">
        <ele>346.21</ele>
        <time>2014-09-21T11:18:12Z</time>
      </trkpt>
      <trkpt lat="41.647287265" lon="2.538733769">
        <ele>346.69</ele>
        <time>2014-09-21T11:18:19Z</time>
      </trkpt>
      <trkpt lat="41.647216271" lon="2.538870897">
        <ele>347.65</ele>
        <time>2014-09-21T11:18:27Z</time>
      </trkpt>
      <trkpt lat="41.647092218" lon="2.539014815">
        <ele>347.65</ele>
        <time>2014-09-21T11:18:34Z</time>
      </trkpt>
      <trkpt lat="41.646949978" lon="2.538998721">
        <ele>347.65</ele>
        <time>2014-09-21T11:18:41Z</time>
      </trkpt>
      <trkpt lat="41.646863141" lon="2.538970893">
        <ele>346.21</ele>
        <time>2014-09-21T11:18:45Z</time>
      </trkpt>
      <trkpt lat="41.646813101" lon="2.538974414">
        <ele>345.73</ele>
        <time>2014-09-21T11:18:48Z</time>
      </trkpt>
      <trkpt lat="41.646706316" lon="2.539022694">
        <ele>344.77</ele>
        <time>2014-09-21T11:18:52Z</time>
      </trkpt>
      <trkpt lat="41.646633896" lon="2.539203994">
        <ele>344.77</ele>
        <time>2014-09-21T11:18:59Z</time>
      </trkpt>
      <trkpt lat="41.646543371" lon="2.539281108">
        <ele>345.73</ele>
        <time>2014-09-21T11:19:04Z</time>
      </trkpt>
      <trkpt lat="41.646515795" lon="2.539310528">
        <ele>346.69</ele>
        <time>2014-09-21T11:19:06Z</time>
      </trkpt>
      <trkpt lat="41.646467599" lon="2.539392922">
        <ele>347.17</ele>
        <time>2014-09-21T11:19:11Z</time>
      </trkpt>
      <trkpt lat="41.646435999" lon="2.539471125">
        <ele>348.62</ele>
        <time>2014-09-21T11:19:16Z</time>
      </trkpt>
      <trkpt lat="41.646340026" lon="2.539626358">
        <ele>350.06</ele>
        <time>2014-09-21T11:19:25Z</time>
      </trkpt>
      <trkpt lat="41.646198037" lon="2.539827859">
        <ele>351.50</ele>
        <time>2014-09-21T11:19:35Z</time>
      </trkpt>
      <trkpt lat="41.646148249" lon="2.539958198">
        <ele>352.46</ele>
        <time>2014-09-21T11:19:42Z</time>
      </trkpt>
      <trkpt lat="41.646108854" lon="2.540058697">
        <ele>352.46</ele>
        <time>2014-09-21T11:19:49Z</time>
      </trkpt>
      <trkpt lat="41.646098795" lon="2.540067833">
        <ele>352.46</ele>
        <time>2014-09-21T11:19:51Z</time>
      </trkpt>
      <trkpt lat="41.645994608" lon="2.540179396">
        <ele>351.02</ele>
        <time>2014-09-21T11:19:58Z</time>
      </trkpt>
      <trkpt lat="41.645896121" lon="2.540255169">
        <ele>348.62</ele>
        <time>2014-09-21T11:20:03Z</time>
      </trkpt>
      <trkpt lat="41.645655896" lon="2.540158525">
        <ele>346.69</ele>
        <time>2014-09-21T11:20:10Z</time>
      </trkpt>
      <trkpt lat="41.645595797" lon="2.540132122">
        <ele>346.69</ele>
        <time>2014-09-21T11:20:10Z</time>
      </trkpt>
      <trkpt lat="41.645402008" lon="2.540121896">
        <ele>346.21</ele>
        <time>2014-09-21T11:20:15Z</time>
      </trkpt>
      <trkpt lat="41.645323805" lon="2.540099181">
        <ele>347.65</ele>
        <time>2014-09-21T11:20:19Z</time>
      </trkpt>
      <trkpt lat="41.645192879" lon="2.540051153">
        <ele>349.10</ele>
        <time>2014-09-21T11:20:26Z</time>
      </trkpt>
      <trkpt lat="41.645096571" lon="2.540000694">
        <ele>350.54</ele>
        <time>2014-09-21T11:20:31Z</time>
      </trkpt>
      <trkpt lat="41.645062541" lon="2.539987870">
        <ele>350.06</ele>
        <time>2014-09-21T11:20:33Z</time>
      </trkpt>
      <trkpt lat="41.644991378" lon="2.539942691">
        <ele>350.54</ele>
        <time>2014-09-21T11:20:38Z</time>
      </trkpt>
      <trkpt lat="41.644804378" lon="2.539853173">
        <ele>352.46</ele>
        <time>2014-09-21T11:20:47Z</time>
      </trkpt>
      <trkpt lat="41.644712093" lon="2.539830960">
        <ele>353.90</ele>
        <time>2014-09-21T11:20:52Z</time>
      </trkpt>
      <trkpt lat="41.644632130" lon="2.539956689">
        <ele>354.86</ele>
        <time>2014-09-21T11:20:59Z</time>
      </trkpt>
      <trkpt lat="41.644570691" lon="2.540209403">
        <ele>357.27</ele>
        <time>2014-09-21T11:21:11Z</time>
      </trkpt>
      <trkpt lat="41.644519477" lon="2.540368157">
        <ele>359.19</ele>
        <time>2014-09-21T11:21:18Z</time>
      </trkpt>
      <trkpt lat="41.644392910" lon="2.540439068">
        <ele>360.63</ele>
        <time>2014-09-21T11:21:27Z</time>
      </trkpt>
      <trkpt lat="41.644363490" lon="2.540435882">
        <ele>361.11</ele>
        <time>2014-09-21T11:21:29Z</time>
      </trkpt>
      <trkpt lat="41.644314875" lon="2.540318033">
        <ele>363.04</ele>
        <time>2014-09-21T11:21:36Z</time>
      </trkpt>
      <trkpt lat="41.644310265" lon="2.540261706">
        <ele>363.52</ele>
        <time>2014-09-21T11:21:39Z</time>
      </trkpt>
      <trkpt lat="41.644214711" lon="2.540062385">
        <ele>365.44</ele>
        <time>2014-09-21T11:21:49Z</time>
      </trkpt>
      <trkpt lat="41.644101807" lon="2.539921820">
        <ele>367.36</ele>
        <time>2014-09-21T11:21:58Z</time>
      </trkpt>
      <trkpt lat="41.643990328" lon="2.539783938">
        <ele>370.24</ele>
        <time>2014-09-21T11:22:07Z</time>
      </trkpt>
      <trkpt lat="41.643869963" lon="2.539668435">
        <ele>371.69</ele>
        <time>2014-09-21T11:22:17Z</time>
      </trkpt>
      <trkpt lat="41.643740212" lon="2.539591992">
        <ele>372.65</ele>
        <time>2014-09-21T11:22:26Z</time>
      </trkpt>
      <trkpt lat="41.643609454" lon="2.539505994">
        <ele>374.57</ele>
        <time>2014-09-21T11:22:33Z</time>
      </trkpt>
      <trkpt lat="41.643575591" lon="2.539495181">
        <ele>375.05</ele>
        <time>2014-09-21T11:22:35Z</time>
      </trkpt>
      <trkpt lat="41.643442905" lon="2.539390911">
        <ele>376.97</ele>
        <time>2014-09-21T11:22:45Z</time>
      </trkpt>
      <trkpt lat="41.643431506" lon="2.539371381">
        <ele>376.97</ele>
        <time>2014-09-21T11:22:45Z</time>
      </trkpt>
      <trkpt lat="41.643338132" lon="2.539194523">
        <ele>378.90</ele>
        <time>2014-09-21T11:22:56Z</time>
      </trkpt>
      <trkpt lat="41.643217768" lon="2.539078266">
        <ele>380.82</ele>
        <time>2014-09-21T11:23:04Z</time>
      </trkpt>
      <trkpt lat="41.643102852" lon="2.539021772">
        <ele>381.78</ele>
        <time>2014-09-21T11:23:11Z</time>
      </trkpt>
      <trkpt lat="41.642999251" lon="2.538963350">
        <ele>382.74</ele>
        <time>2014-09-21T11:23:18Z</time>
      </trkpt>
      <trkpt lat="41.642926329" lon="2.538912723">
        <ele>383.22</ele>
        <time>2014-09-21T11:23:22Z</time>
      </trkpt>
      <trkpt lat="41.642795990" lon="2.538814487">
        <ele>384.18</ele>
        <time>2014-09-21T11:23:30Z</time>
      </trkpt>
      <trkpt lat="41.642659952" lon="2.538702756">
        <ele>385.15</ele>
        <time>2014-09-21T11:23:39Z</time>
      </trkpt>
      <trkpt lat="41.642518549" lon="2.538574262">
        <ele>385.63</ele>
        <time>2014-09-21T11:23:48Z</time>
      </trkpt>
      <trkpt lat="41.642330627" lon="2.538548529">
        <ele>385.63</ele>
        <time>2014-09-21T11:23:53Z</time>
      </trkpt>
      <trkpt lat="41.642229038" lon="2.538546769">
        <ele>384.18</ele>
        <time>2014-09-21T11:23:55Z</time>
      </trkpt>
      <trkpt lat="41.641978336" lon="2.538470410">
        <ele>383.70</ele>
        <time>2014-09-21T11:24:00Z</time>
      </trkpt>
      <trkpt lat="41.641778259" lon="2.538256420">
        <ele>383.70</ele>
        <time>2014-09-21T11:24:07Z</time>
      </trkpt>
      <trkpt lat="41.641654626" lon="2.538021224">
        <ele>383.70</ele>
        <time>2014-09-21T11:24:14Z</time>
      </trkpt>
      <trkpt lat="41.641621015" lon="2.537714698">
        <ele>383.70</ele>
        <time>2014-09-21T11:24:19Z</time>
      </trkpt>
      <trkpt lat="41.641594193" lon="2.537472628">
        <ele>383.70</ele>
        <time>2014-09-21T11:24:23Z</time>
      </trkpt>
      <trkpt lat="41.641624954" lon="2.537236259">
        <ele>382.74</ele>
        <time>2014-09-21T11:24:28Z</time>
      </trkpt>
      <trkpt lat="41.641634677" lon="2.536980443">
        <ele>382.74</ele>
        <time>2014-09-21T11:24:33Z</time>
      </trkpt>
      <trkpt lat="41.641516493" lon="2.536752539">
        <ele>382.26</ele>
        <time>2014-09-21T11:24:40Z</time>
      </trkpt>
      <trkpt lat="41.641480115" lon="2.536702918">
        <ele>382.26</ele>
        <time>2014-09-21T11:24:40Z</time>
      </trkpt>
      <trkpt lat="41.641376934" lon="2.536355991">
        <ele>380.34</ele>
        <time>2014-09-21T11:24:45Z</time>
      </trkpt>
      <trkpt lat="41.641280877" lon="2.535980314">
        <ele>377.94</ele>
        <time>2014-09-21T11:24:49Z</time>
      </trkpt>
      <trkpt lat="41.641212062" lon="2.535776634">
        <ele>376.97</ele>
        <time>2014-09-21T11:24:52Z</time>
      </trkpt>
      <trkpt lat="41.641179121" lon="2.535679236">
        <ele>376.01</ele>
        <time>2014-09-21T11:24:52Z</time>
      </trkpt>
      <trkpt lat="41.641107037" lon="2.535513945">
        <ele>375.53</ele>
        <time>2014-09-21T11:24:54Z</time>
      </trkpt>
      <trkpt lat="41.641077281" lon="2.535440603">
        <ele>375.05</ele>
        <time>2014-09-21T11:24:56Z</time>
      </trkpt>
      <trkpt lat="41.640927329" lon="2.535315294">
        <ele>374.09</ele>
        <time>2014-09-21T11:25:01Z</time>
      </trkpt>
      <trkpt lat="41.640767234" lon="2.535195265">
        <ele>374.57</ele>
        <time>2014-09-21T11:25:08Z</time>
      </trkpt>
      <trkpt lat="41.640520303" lon="2.535207922">
        <ele>374.09</ele>
        <time>2014-09-21T11:25:15Z</time>
      </trkpt>
      <trkpt lat="41.640304805" lon="2.535233235">
        <ele>373.61</ele>
        <time>2014-09-21T11:25:20Z</time>
      </trkpt>
      <trkpt lat="41.640149404" lon="2.535161654">
        <ele>372.65</ele>
        <time>2014-09-21T11:25:25Z</time>
      </trkpt>
      <trkpt lat="41.639893086" lon="2.535026705">
        <ele>370.73</ele>
        <time>2014-09-21T11:25:32Z</time>
      </trkpt>
      <trkpt lat="41.639850338" lon="2.535016311">
        <ele>370.73</ele>
        <time>2014-09-21T11:25:34Z</time>
      </trkpt>
      <trkpt lat="41.639724106" lon="2.534996279">
        <ele>369.28</ele>
        <time>2014-09-21T11:25:36Z</time>
      </trkpt>
      <trkpt lat="41.639415401" lon="2.534947245">
        <ele>366.40</ele>
        <time>2014-09-21T11:25:43Z</time>
      </trkpt>
      <trkpt lat="41.639339629" lon="2.534928134">
        <ele>365.44</ele>
        <time>2014-09-21T11:25:46Z</time>
      </trkpt>
      <trkpt lat="41.639248014" lon="2.534918998">
        <ele>364.96</ele>
        <time>2014-09-21T11:25:48Z</time>
      </trkpt>
      <trkpt lat="41.639008543" lon="2.534864348">
        <ele>364.48</ele>
        <time>2014-09-21T11:25:53Z</time>
      </trkpt>
      <trkpt lat="41.638624485" lon="2.534622278">
        <ele>364.48</ele>
        <time>2014-09-21T11:26:02Z</time>
      </trkpt>
      <trkpt lat="41.638414350" lon="2.534589756">
        <ele>364.48</ele>
        <time>2014-09-21T11:26:07Z</time>
      </trkpt>
      <trkpt lat="41.638217124" lon="2.534695871">
        <ele>364.48</ele>
        <time>2014-09-21T11:26:14Z</time>
      </trkpt>
      <trkpt lat="41.638024927" lon="2.534875663">
        <ele>365.92</ele>
        <time>2014-09-21T11:26:21Z</time>
      </trkpt>
      <trkpt lat="41.637898277" lon="2.534924278">
        <ele>367.36</ele>
        <time>2014-09-21T11:26:26Z</time>
      </trkpt>
      <trkpt lat="41.637819570" lon="2.534825036">
        <ele>367.36</ele>
        <time>2014-09-21T11:26:33Z</time>
      </trkpt>
      <trkpt lat="41.637705493" lon="2.534676258">
        <ele>368.32</ele>
        <time>2014-09-21T11:26:40Z</time>
      </trkpt>
      <trkpt lat="41.637545901" lon="2.534562264">
        <ele>369.28</ele>
        <time>2014-09-21T11:26:47Z</time>
      </trkpt>
      <trkpt lat="41.637328475" lon="2.534469225">
        <ele>370.24</ele>
        <time>2014-09-21T11:26:56Z</time>
      </trkpt>
      <trkpt lat="41.637173242" lon="2.534347855">
        <ele>370.73</ele>
        <time>2014-09-21T11:27:03Z</time>
      </trkpt>
      <trkpt lat="41.637019015" lon="2.534230424">
        <ele>371.21</ele>
        <time>2014-09-21T11:27:10Z</time>
      </trkpt>
      <trkpt lat="41.636814916" lon="2.534129590">
        <ele>373.13</ele>
        <time>2014-09-21T11:27:19Z</time>
      </trkpt>
      <trkpt lat="41.636658174" lon="2.534013333">
        <ele>373.61</ele>
        <time>2014-09-21T11:27:27Z</time>
      </trkpt>
      <trkpt lat="41.636683571" lon="2.533865644">
        <ele>373.61</ele>
        <time>2014-09-21T11:27:31Z</time>
      </trkpt>
      <trkpt lat="41.636759260" lon="2.533615444">
        <ele>373.61</ele>
        <time>2014-09-21T11:27:38Z</time>
      </trkpt>
      <trkpt lat="41.636787088" lon="2.533417799">
        <ele>373.61</ele>
        <time>2014-09-21T11:27:45Z</time>
      </trkpt>
      <trkpt lat="41.636716177" lon="2.533122923">
        <ele>373.61</ele>
        <time>2014-09-21T11:27:52Z</time>
      </trkpt>
      <trkpt lat="41.636585251" lon="2.532981353">
        <ele>374.09</ele>
        <time>2014-09-21T11:27:57Z</time>
      </trkpt>
      <trkpt lat="41.636486848" lon="2.532823019">
        <ele>374.09</ele>
        <time>2014-09-21T11:28:02Z</time>
      </trkpt>
      <trkpt lat="41.636528254" lon="2.532590002">
        <ele>374.09</ele>
        <time>2014-09-21T11:28:07Z</time>
      </trkpt>
      <trkpt lat="41.636577791" lon="2.532258079">
        <ele>374.57</ele>
        <time>2014-09-21T11:28:18Z</time>
      </trkpt>
      <trkpt lat="41.636476957" lon="2.532001257">
        <ele>374.57</ele>
        <time>2014-09-21T11:28:25Z</time>
      </trkpt>
      <trkpt lat="41.636407806" lon="2.531721218">
        <ele>374.57</ele>
        <time>2014-09-21T11:28:32Z</time>
      </trkpt>
      <trkpt lat="41.636390707" lon="2.531452745">
        <ele>374.57</ele>
        <time>2014-09-21T11:28:39Z</time>
      </trkpt>
      <trkpt lat="41.636367573" lon="2.531142363">
        <ele>374.57</ele>
        <time>2014-09-21T11:28:46Z</time>
      </trkpt>
      <trkpt lat="41.636287526" lon="2.530906581">
        <ele>374.57</ele>
        <time>2014-09-21T11:28:53Z</time>
      </trkpt>
      <trkpt lat="41.636168671" lon="2.530909682">
        <ele>375.53</ele>
        <time>2014-09-21T11:28:58Z</time>
      </trkpt>
      <trkpt lat="41.636142771" lon="2.530890823">
        <ele>375.53</ele>
        <time>2014-09-21T11:29:01Z</time>
      </trkpt>
      <trkpt lat="41.636130868" lon="2.530839944">
        <ele>373.61</ele>
        <time>2014-09-21T11:29:05Z</time>
      </trkpt>
      <trkpt lat="41.636124666" lon="2.530827288">
        <ele>373.61</ele>
        <time>2014-09-21T11:29:15Z</time>
      </trkpt>
      <trkpt lat="41.636126091" lon="2.530845476">
        <ele>373.61</ele>
        <time>2014-09-21T11:29:29Z</time>
      </trkpt>
      <trkpt lat="41.636118212" lon="2.530848997">
        <ele>373.61</ele>
        <time>2014-09-21T11:29:38Z</time>
      </trkpt>
      <trkpt lat="41.636116032" lon="2.530856624">
        <ele>373.61</ele>
        <time>2014-09-21T11:29:48Z</time>
      </trkpt>
      <trkpt lat="41.636108321" lon="2.530874226">
        <ele>373.61</ele>
        <time>2014-09-21T11:29:57Z</time>
      </trkpt>
      <trkpt lat="41.636101951" lon="2.530881267">
        <ele>373.61</ele>
        <time>2014-09-21T11:30:06Z</time>
      </trkpt>
      <trkpt lat="41.636096084" lon="2.530881183">
        <ele>373.61</ele>
        <time>2014-09-21T11:30:13Z</time>
      </trkpt>
      <trkpt lat="41.636075883" lon="2.530871125">
        <ele>373.61</ele>
        <time>2014-09-21T11:30:20Z</time>
      </trkpt>
      <trkpt lat="41.635915621" lon="2.530894762">
        <ele>373.61</ele>
        <time>2014-09-21T11:30:27Z</time>
      </trkpt>
      <trkpt lat="41.635798023" lon="2.530985370">
        <ele>371.69</ele>
        <time>2014-09-21T11:30:32Z</time>
      </trkpt>
      <trkpt lat="41.635701464" lon="2.531241186">
        <ele>369.76</ele>
        <time>2014-09-21T11:30:37Z</time>
      </trkpt>
      <trkpt lat="41.635685286" lon="2.531271780">
        <ele>368.80</ele>
        <time>2014-09-21T11:30:42Z</time>
      </trkpt>
      <trkpt lat="41.635682101" lon="2.531280330">
        <ele>368.80</ele>
        <time>2014-09-21T11:30:53Z</time>
      </trkpt>
      <trkpt lat="41.635679000" lon="2.531298602">
        <ele>368.80</ele>
        <time>2014-09-21T11:31:03Z</time>
      </trkpt>
      <trkpt lat="41.635694590" lon="2.531309750">
        <ele>368.80</ele>
        <time>2014-09-21T11:31:14Z</time>
      </trkpt>
      <trkpt lat="41.635705571" lon="2.531296507">
        <ele>368.80</ele>
        <time>2014-09-21T11:31:26Z</time>
      </trkpt>
      <trkpt lat="41.635698781" lon="2.531313606">
        <ele>368.80</ele>
        <time>2014-09-21T11:31:40Z</time>
      </trkpt>
      <trkpt lat="41.635697189" lon="2.531325257">
        <ele>368.80</ele>
        <time>2014-09-21T11:31:42Z</time>
      </trkpt>
      <trkpt lat="41.635681934" lon="2.531417122">
        <ele>367.84</ele>
        <time>2014-09-21T11:31:45Z</time>
      </trkpt>
      <trkpt lat="41.635636001" lon="2.531701939">
        <ele>365.92</ele>
        <time>2014-09-21T11:31:52Z</time>
      </trkpt>
      <trkpt lat="41.635605323" lon="2.531809982">
        <ele>365.44</ele>
        <time>2014-09-21T11:31:56Z</time>
      </trkpt>
      <trkpt lat="41.635607838" lon="2.531954486">
        <ele>365.44</ele>
        <time>2014-09-21T11:32:01Z</time>
      </trkpt>
      <trkpt lat="41.635582692" lon="2.532076527">
        <ele>365.44</ele>
        <time>2014-09-21T11:32:06Z</time>
      </trkpt>
      <trkpt lat="41.635438775" lon="2.532131093">
        <ele>365.44</ele>
        <time>2014-09-21T11:32:13Z</time>
      </trkpt>
      <trkpt lat="41.635418155" lon="2.532114077">
        <ele>365.44</ele>
        <time>2014-09-21T11:32:15Z</time>
      </trkpt>
      <trkpt lat="41.635282452" lon="2.531963036">
        <ele>365.44</ele>
        <time>2014-09-21T11:32:22Z</time>
      </trkpt>
      <trkpt lat="41.635235178" lon="2.531893885">
        <ele>365.44</ele>
        <time>2014-09-21T11:32:24Z</time>
      </trkpt>
      <trkpt lat="41.635125711" lon="2.531775952">
        <ele>364.96</ele>
        <time>2014-09-21T11:32:27Z</time>
      </trkpt>
      <trkpt lat="41.634943237" lon="2.531764804">
        <ele>362.07</ele>
        <time>2014-09-21T11:32:30Z</time>
      </trkpt>
      <trkpt lat="41.634855729" lon="2.531889023">
        <ele>361.59</ele>
        <time>2014-09-21T11:32:32Z</time>
      </trkpt>
      <trkpt lat="41.634735533" lon="2.532138720">
        <ele>359.19</ele>
        <time>2014-09-21T11:32:36Z</time>
      </trkpt>
      <trkpt lat="41.634680799" lon="2.532482211">
        <ele>358.23</ele>
        <time>2014-09-21T11:32:41Z</time>
      </trkpt>
      <trkpt lat="41.634692534" lon="2.532692680">
        <ele>360.15</ele>
        <time>2014-09-21T11:32:48Z</time>
      </trkpt>
      <trkpt lat="41.634706280" lon="2.532907844">
        <ele>362.07</ele>
        <time>2014-09-21T11:32:55Z</time>
      </trkpt>
      <trkpt lat="41.634750118" lon="2.533083948">
        <ele>363.52</ele>
        <time>2014-09-21T11:33:02Z</time>
      </trkpt>
      <trkpt lat="41.634752297" lon="2.533245299">
        <ele>364.96</ele>
        <time>2014-09-21T11:33:07Z</time>
      </trkpt>
      <trkpt lat="41.634682308" lon="2.533401119">
        <ele>364.96</ele>
        <time>2014-09-21T11:33:14Z</time>
      </trkpt>
      <trkpt lat="41.634566973" lon="2.533410004">
        <ele>366.40</ele>
        <time>2014-09-21T11:33:19Z</time>
      </trkpt>
      <trkpt lat="41.634453063" lon="2.533402795">
        <ele>367.36</ele>
        <time>2014-09-21T11:33:26Z</time>
      </trkpt>
      <trkpt lat="41.634325574" lon="2.533448476">
        <ele>368.80</ele>
        <time>2014-09-21T11:33:33Z</time>
      </trkpt>
      <trkpt lat="41.634212251" lon="2.533488542">
        <ele>369.76</ele>
        <time>2014-09-21T11:33:40Z</time>
      </trkpt>
      <trkpt lat="41.634043691" lon="2.533505306">
        <ele>370.24</ele>
        <time>2014-09-21T11:33:47Z</time>
      </trkpt>
      <trkpt lat="41.634003793" lon="2.533495918">
        <ele>370.24</ele>
        <time>2014-09-21T11:33:47Z</time>
      </trkpt>
      <trkpt lat="41.633797179" lon="2.533286622">
        <ele>368.32</ele>
        <time>2014-09-21T11:33:54Z</time>
      </trkpt>
      <trkpt lat="41.633745043" lon="2.533219902">
        <ele>369.76</ele>
        <time>2014-09-21T11:33:56Z</time>
      </trkpt>
      <trkpt lat="41.633642784" lon="2.533045223">
        <ele>372.65</ele>
        <time>2014-09-21T11:34:05Z</time>
      </trkpt>
      <trkpt lat="41.633526024" lon="2.532901557">
        <ele>375.05</ele>
        <time>2014-09-21T11:34:13Z</time>
      </trkpt>
      <trkpt lat="41.633416054" lon="2.532777589">
        <ele>376.97</ele>
        <time>2014-09-21T11:34:20Z</time>
      </trkpt>
      <trkpt lat="41.633293259" lon="2.532668037">
        <ele>377.45</ele>
        <time>2014-09-21T11:34:29Z</time>
      </trkpt>
      <trkpt lat="41.633274903" lon="2.532477936">
        <ele>375.53</ele>
        <time>2014-09-21T11:34:34Z</time>
      </trkpt>
      <trkpt lat="41.633280770" lon="2.532403253">
        <ele>375.05</ele>
        <time>2014-09-21T11:34:36Z</time>
      </trkpt>
      <trkpt lat="41.633288146" lon="2.532234777">
        <ele>373.61</ele>
        <time>2014-09-21T11:34:38Z</time>
      </trkpt>
      <trkpt lat="41.633281524" lon="2.532036796">
        <ele>372.65</ele>
        <time>2014-09-21T11:34:39Z</time>
      </trkpt>
      <trkpt lat="41.633126040" lon="2.531617617">
        <ele>369.76</ele>
        <time>2014-09-21T11:34:43Z</time>
      </trkpt>
      <trkpt lat="41.632861088" lon="2.531219226">
        <ele>368.80</ele>
        <time>2014-09-21T11:34:48Z</time>
      </trkpt>
      <trkpt lat="41.632528075" lon="2.530852685">
        <ele>368.80</ele>
        <time>2014-09-21T11:34:53Z</time>
      </trkpt>
      <trkpt lat="41.632445429" lon="2.530767609">
        <ele>368.80</ele>
        <time>2014-09-21T11:34:55Z</time>
      </trkpt>
      <trkpt lat="41.632166396" lon="2.530509949">
        <ele>371.21</ele>
        <time>2014-09-21T11:35:04Z</time>
      </trkpt>
      <trkpt lat="41.632119290" lon="2.530478349">
        <ele>371.21</ele>
        <time>2014-09-21T11:35:06Z</time>
      </trkpt>
      <trkpt lat="41.632000853" lon="2.530567449">
        <ele>372.17</ele>
        <time>2014-09-21T11:35:11Z</time>
      </trkpt>
      <trkpt lat="41.631965901" lon="2.530618075">
        <ele>372.65</ele>
        <time>2014-09-21T11:35:14Z</time>
      </trkpt>
      <trkpt lat="41.631767920" lon="2.530926949">
        <ele>373.61</ele>
        <time>2014-09-21T11:35:23Z</time>
      </trkpt>
      <trkpt lat="41.631591733" lon="2.531182177">
        <ele>374.57</ele>
        <time>2014-09-21T11:35:33Z</time>
      </trkpt>
      <trkpt lat="41.631429543" lon="2.531398012">
        <ele>375.53</ele>
        <time>2014-09-21T11:35:40Z</time>
      </trkpt>
      <trkpt lat="41.631257295" lon="2.531419804">
        <ele>376.01</ele>
        <time>2014-09-21T11:35:47Z</time>
      </trkpt>
      <trkpt lat="41.630989660" lon="2.531358533">
        <ele>376.01</ele>
        <time>2014-09-21T11:35:54Z</time>
      </trkpt>
      <trkpt lat="41.630763601" lon="2.531451572">
        <ele>376.49</ele>
        <time>2014-09-21T11:36:01Z</time>
      </trkpt>
      <trkpt lat="41.630494039" lon="2.531579480">
        <ele>376.97</ele>
        <time>2014-09-21T11:36:10Z</time>
      </trkpt>
      <trkpt lat="41.630257250" lon="2.531535223">
        <ele>377.94</ele>
        <time>2014-09-21T11:36:19Z</time>
      </trkpt>
      <trkpt lat="41.630008475" lon="2.531461546">
        <ele>379.38</ele>
        <time>2014-09-21T11:36:27Z</time>
      </trkpt>
      <trkpt lat="41.629868832" lon="2.531387534">
        <ele>380.34</ele>
        <time>2014-09-21T11:36:34Z</time>
      </trkpt>
      <trkpt lat="41.629695914" lon="2.531267338">
        <ele>382.26</ele>
        <time>2014-09-21T11:36:41Z</time>
      </trkpt>
      <trkpt lat="41.629537663" lon="2.531131299">
        <ele>383.22</ele>
        <time>2014-09-21T11:36:48Z</time>
      </trkpt>
      <trkpt lat="41.629475470" lon="2.530852266">
        <ele>383.22</ele>
        <time>2014-09-21T11:36:55Z</time>
      </trkpt>
      <trkpt lat="41.629469351" lon="2.530729722">
        <ele>383.22</ele>
        <time>2014-09-21T11:36:57Z</time>
      </trkpt>
      <trkpt lat="41.629473207" lon="2.530591505">
        <ele>381.78</ele>
        <time>2014-09-21T11:36:59Z</time>
      </trkpt>
      <trkpt lat="41.629473458" lon="2.530444235">
        <ele>381.30</ele>
        <time>2014-09-21T11:37:02Z</time>
      </trkpt>
      <trkpt lat="41.629430794" lon="2.530200489">
        <ele>380.34</ele>
        <time>2014-09-21T11:37:04Z</time>
      </trkpt>
      <trkpt lat="41.629336498" lon="2.529926401">
        <ele>378.42</ele>
        <time>2014-09-21T11:37:07Z</time>
      </trkpt>
      <trkpt lat="41.629257792" lon="2.529718110">
        <ele>376.97</ele>
        <time>2014-09-21T11:37:09Z</time>
      </trkpt>
      <trkpt lat="41.628922264" lon="2.529079074">
        <ele>376.49</ele>
        <time>2014-09-21T11:37:16Z</time>
      </trkpt>
      <trkpt lat="41.628687906" lon="2.528597031">
        <ele>376.01</ele>
        <time>2014-09-21T11:37:23Z</time>
      </trkpt>
      <trkpt lat="41.628366879" lon="2.528156730">
        <ele>374.57</ele>
        <time>2014-09-21T11:37:32Z</time>
      </trkpt>
      <trkpt lat="41.627979970" lon="2.527824303">
        <ele>371.21</ele>
        <time>2014-09-21T11:37:37Z</time>
      </trkpt>
      <trkpt lat="41.627900762" lon="2.527773928">
        <ele>371.21</ele>
        <time>2014-09-21T11:37:39Z</time>
      </trkpt>
      <trkpt lat="41.627471105" lon="2.527514676">
        <ele>367.84</ele>
        <time>2014-09-21T11:37:44Z</time>
      </trkpt>
      <trkpt lat="41.627054525" lon="2.527323820">
        <ele>364.00</ele>
        <time>2014-09-21T11:37:49Z</time>
      </trkpt>
      <trkpt lat="41.626913373" lon="2.527281575">
        <ele>360.63</ele>
        <time>2014-09-21T11:37:51Z</time>
      </trkpt>
      <trkpt lat="41.626738611" lon="2.527269673">
        <ele>356.79</ele>
        <time>2014-09-21T11:37:53Z</time>
      </trkpt>
      <trkpt lat="41.626645991" lon="2.527203204">
        <ele>353.90</ele>
        <time>2014-09-21T11:37:58Z</time>
      </trkpt>
      <trkpt lat="41.626556807" lon="2.527122654">
        <ele>354.38</ele>
        <time>2014-09-21T11:38:03Z</time>
      </trkpt>
      <trkpt lat="41.626486818" lon="2.527023999">
        <ele>352.94</ele>
        <time>2014-09-21T11:38:07Z</time>
      </trkpt>
      <trkpt lat="41.626416829" lon="2.526963147">
        <ele>351.98</ele>
        <time>2014-09-21T11:38:12Z</time>
      </trkpt>
      <trkpt lat="41.626382631" lon="2.526825264">
        <ele>351.98</ele>
        <time>2014-09-21T11:38:19Z</time>
      </trkpt>
      <trkpt lat="41.626333932" lon="2.526727699">
        <ele>351.98</ele>
        <time>2014-09-21T11:38:22Z</time>
      </trkpt>
      <trkpt lat="41.626127318" lon="2.526405415">
        <ele>351.50</ele>
        <time>2014-09-21T11:38:29Z</time>
      </trkpt>
      <trkpt lat="41.625895140" lon="2.526191760">
        <ele>351.02</ele>
        <time>2014-09-21T11:38:38Z</time>
      </trkpt>
      <trkpt lat="41.625668242" lon="2.526003167">
        <ele>351.02</ele>
        <time>2014-09-21T11:38:47Z</time>
      </trkpt>
      <trkpt lat="41.625505633" lon="2.525755650">
        <ele>351.02</ele>
        <time>2014-09-21T11:38:54Z</time>
      </trkpt>
      <trkpt lat="41.625280495" lon="2.525414338">
        <ele>351.02</ele>
        <time>2014-09-21T11:39:04Z</time>
      </trkpt>
      <trkpt lat="41.625064996" lon="2.525180819">
        <ele>350.54</ele>
        <time>2014-09-21T11:39:11Z</time>
      </trkpt>
      <trkpt lat="41.624923929" lon="2.524968170">
        <ele>350.06</ele>
        <time>2014-09-21T11:39:16Z</time>
      </trkpt>
      <trkpt lat="41.624878499" lon="2.524821738">
        <ele>349.10</ele>
        <time>2014-09-21T11:39:20Z</time>
      </trkpt>
      <trkpt lat="41.624690576" lon="2.524314381">
        <ele>347.65</ele>
        <time>2014-09-21T11:39:30Z</time>
      </trkpt>
      <trkpt lat="41.624672472" lon="2.524253445">
        <ele>347.17</ele>
        <time>2014-09-21T11:39:30Z</time>
      </trkpt>
      <trkpt lat="41.624571218" lon="2.523972064">
        <ele>345.25</ele>
        <time>2014-09-21T11:39:34Z</time>
      </trkpt>
      <trkpt lat="41.624420763" lon="2.523640476">
        <ele>343.81</ele>
        <time>2014-09-21T11:39:39Z</time>
      </trkpt>
      <trkpt lat="41.624232338" lon="2.523013594">
        <ele>341.41</ele>
        <time>2014-09-21T11:39:48Z</time>
      </trkpt>
      <trkpt lat="41.624018264" lon="2.522549069">
        <ele>339.96</ele>
        <time>2014-09-21T11:39:55Z</time>
      </trkpt>
      <trkpt lat="41.623751719" lon="2.522294343">
        <ele>338.04</ele>
        <time>2014-09-21T11:40:00Z</time>
      </trkpt>
      <trkpt lat="41.623522307" lon="2.522098374">
        <ele>337.08</ele>
        <time>2014-09-21T11:40:07Z</time>
      </trkpt>
      <trkpt lat="41.623387861" lon="2.521937106">
        <ele>336.12</ele>
        <time>2014-09-21T11:40:12Z</time>
      </trkpt>
      <trkpt lat="41.623367912" lon="2.521904249">
        <ele>335.64</ele>
        <time>2014-09-21T11:40:12Z</time>
      </trkpt>
      <trkpt lat="41.623122909" lon="2.521781705">
        <ele>333.71</ele>
        <time>2014-09-21T11:40:19Z</time>
      </trkpt>
      <trkpt lat="41.623065577" lon="2.521802073">
        <ele>333.23</ele>
        <time>2014-09-21T11:40:19Z</time>
      </trkpt>
      <trkpt lat="41.622841529" lon="2.521832667">
        <ele>331.31</ele>
        <time>2014-09-21T11:40:24Z</time>
      </trkpt>
      <trkpt lat="41.622583031" lon="2.521753542">
        <ele>329.39</ele>
        <time>2014-09-21T11:40:28Z</time>
      </trkpt>
      <trkpt lat="41.622447244" lon="2.521647260">
        <ele>328.43</ele>
        <time>2014-09-21T11:40:29Z</time>
      </trkpt>
      <trkpt lat="41.622319420" lon="2.521527231">
        <ele>326.99</ele>
        <time>2014-09-21T11:40:31Z</time>
      </trkpt>
      <trkpt lat="41.622084978" lon="2.521544078">
        <ele>323.14</ele>
        <time>2014-09-21T11:40:35Z</time>
      </trkpt>
      <trkpt lat="41.622041979" lon="2.521613900">
        <ele>323.14</ele>
        <time>2014-09-21T11:40:36Z</time>
      </trkpt>
      <trkpt lat="41.621994873" lon="2.521792434">
        <ele>321.22</ele>
        <time>2014-09-21T11:40:38Z</time>
      </trkpt>
      <trkpt lat="41.621995040" lon="2.522188228">
        <ele>317.37</ele>
        <time>2014-09-21T11:40:43Z</time>
      </trkpt>
      <trkpt lat="41.621909964" lon="2.522182109">
        <ele>315.93</ele>
        <time>2014-09-21T11:40:47Z</time>
      </trkpt>
      <trkpt lat="41.621893619" lon="2.522143887">
        <ele>314.97</ele>
        <time>2014-09-21T11:40:49Z</time>
      </trkpt>
      <trkpt lat="41.621844417" lon="2.521980440">
        <ele>313.53</ele>
        <time>2014-09-21T11:40:52Z</time>
      </trkpt>
      <trkpt lat="41.621727071" lon="2.521733258">
        <ele>311.60</ele>
        <time>2014-09-21T11:40:56Z</time>
      </trkpt>
      <trkpt lat="41.621656495" lon="2.521593448">
        <ele>310.64</ele>
        <time>2014-09-21T11:40:57Z</time>
      </trkpt>
      <trkpt lat="41.621594134" lon="2.521450034">
        <ele>308.24</ele>
        <time>2014-09-21T11:40:59Z</time>
      </trkpt>
      <trkpt lat="41.621405960" lon="2.521182818">
        <ele>305.36</ele>
        <time>2014-09-21T11:41:04Z</time>
      </trkpt>
      <trkpt lat="41.621227677" lon="2.521112830">
        <ele>301.03</ele>
        <time>2014-09-21T11:41:08Z</time>
      </trkpt>
      <trkpt lat="41.621158778" lon="2.521115093">
        <ele>300.55</ele>
        <time>2014-09-21T11:41:10Z</time>
      </trkpt>
      <trkpt lat="41.621162633" lon="2.521007050">
        <ele>299.11</ele>
        <time>2014-09-21T11:41:13Z</time>
      </trkpt>
      <trkpt lat="41.621236310" lon="2.520983497">
        <ele>298.63</ele>
        <time>2014-09-21T11:41:15Z</time>
      </trkpt>
      <trkpt lat="41.621385341" lon="2.520950053">
        <ele>298.15</ele>
        <time>2014-09-21T11:41:18Z</time>
      </trkpt>
      <trkpt lat="41.621648616" lon="2.521022389">
        <ele>296.70</ele>
        <time>2014-09-21T11:41:22Z</time>
      </trkpt>
      <trkpt lat="41.621861097" lon="2.520943180">
        <ele>295.74</ele>
        <time>2014-09-21T11:41:27Z</time>
      </trkpt>
      <trkpt lat="41.622126468" lon="2.520715863">
        <ele>291.90</ele>
        <time>2014-09-21T11:41:32Z</time>
      </trkpt>
      <trkpt lat="41.622348170" lon="2.520558618">
        <ele>288.53</ele>
        <time>2014-09-21T11:41:36Z</time>
      </trkpt>
      <trkpt lat="41.622513629" lon="2.520459544">
        <ele>286.13</ele>
        <time>2014-09-21T11:41:39Z</time>
      </trkpt>
      <trkpt lat="41.622466438" lon="2.520342114">
        <ele>285.65</ele>
        <time>2014-09-21T11:41:43Z</time>
      </trkpt>
      <trkpt lat="41.622394857" lon="2.520344125">
        <ele>284.21</ele>
        <time>2014-09-21T11:41:44Z</time>
      </trkpt>
      <trkpt lat="41.622091348" lon="2.520432638">
        <ele>279.88</ele>
        <time>2014-09-21T11:41:51Z</time>
      </trkpt>
      <trkpt lat="41.622009792" lon="2.520422747">
        <ele>278.92</ele>
        <time>2014-09-21T11:41:53Z</time>
      </trkpt>
      <trkpt lat="41.621766969" lon="2.520373630">
        <ele>274.11</ele>
        <time>2014-09-21T11:41:58Z</time>
      </trkpt>
      <trkpt lat="41.621575861" lon="2.520309927">
        <ele>271.71</ele>
        <time>2014-09-21T11:42:02Z</time>
      </trkpt>
      <trkpt lat="41.621128100" lon="2.520242537">
        <ele>267.38</ele>
        <time>2014-09-21T11:42:07Z</time>
      </trkpt>
      <trkpt lat="41.620964820" lon="2.520207668">
        <ele>265.46</ele>
        <time>2014-09-21T11:42:09Z</time>
      </trkpt>
      <trkpt lat="41.620607835" lon="2.520165004">
        <ele>261.14</ele>
        <time>2014-09-21T11:42:12Z</time>
      </trkpt>
      <trkpt lat="41.620362497" lon="2.520113204">
        <ele>257.29</ele>
        <time>2014-09-21T11:42:16Z</time>
      </trkpt>
      <trkpt lat="41.620287311" lon="2.520101050">
        <ele>257.29</ele>
        <time>2014-09-21T11:42:16Z</time>
      </trkpt>
      <trkpt lat="41.620200559" lon="2.520094177">
        <ele>256.33</ele>
        <time>2014-09-21T11:42:17Z</time>
      </trkpt>
      <trkpt lat="41.619919513" lon="2.520231808">
        <ele>251.04</ele>
        <time>2014-09-21T11:42:21Z</time>
      </trkpt>
      <trkpt lat="41.619704769" lon="2.520312442">
        <ele>247.68</ele>
        <time>2014-09-21T11:42:24Z</time>
      </trkpt>
      <trkpt lat="41.619389609" lon="2.520273885">
        <ele>243.35</ele>
        <time>2014-09-21T11:42:30Z</time>
      </trkpt>
      <trkpt lat="41.619254493" lon="2.520307161">
        <ele>241.91</ele>
        <time>2014-09-21T11:42:31Z</time>
      </trkpt>
      <trkpt lat="41.618921145" lon="2.520472871">
        <ele>237.10</ele>
        <time>2014-09-21T11:42:35Z</time>
      </trkpt>
      <trkpt lat="41.618843193" lon="2.520501454">
        <ele>236.14</ele>
        <time>2014-09-21T11:42:37Z</time>
      </trkpt>
      <trkpt lat="41.618602716" lon="2.520547554">
        <ele>232.78</ele>
        <time>2014-09-21T11:42:40Z</time>
      </trkpt>
      <trkpt lat="41.618468354" lon="2.520608071">
        <ele>231.81</ele>
        <time>2014-09-21T11:42:42Z</time>
      </trkpt>
      <trkpt lat="41.618383446" lon="2.520733213">
        <ele>230.37</ele>
        <time>2014-09-21T11:42:44Z</time>
      </trkpt>
      <trkpt lat="41.618360982" lon="2.520820385">
        <ele>229.41</ele>
        <time>2014-09-21T11:42:45Z</time>
      </trkpt>
      <trkpt lat="41.618177419" lon="2.521283988">
        <ele>224.61</ele>
        <time>2014-09-21T11:42:49Z</time>
      </trkpt>
      <trkpt lat="41.618134503" lon="2.521359844">
        <ele>223.64</ele>
        <time>2014-09-21T11:42:51Z</time>
      </trkpt>
      <trkpt lat="41.618063508" lon="2.521601327">
        <ele>219.80</ele>
        <time>2014-09-21T11:42:54Z</time>
      </trkpt>
      <trkpt lat="41.617976923" lon="2.521619013">
        <ele>218.84</ele>
        <time>2014-09-21T11:42:59Z</time>
      </trkpt>
      <trkpt lat="41.617931074" lon="2.521485740">
        <ele>218.36</ele>
        <time>2014-09-21T11:43:03Z</time>
      </trkpt>
      <trkpt lat="41.617746840" lon="2.520889787">
        <ele>215.95</ele>
        <time>2014-09-21T11:43:10Z</time>
      </trkpt>
      <trkpt lat="41.617722616" lon="2.520808902">
        <ele>215.47</ele>
        <time>2014-09-21T11:43:12Z</time>
      </trkpt>
      <trkpt lat="41.617699231" lon="2.520652831">
        <ele>214.51</ele>
        <time>2014-09-21T11:43:13Z</time>
      </trkpt>
      <trkpt lat="41.617723958" lon="2.520507824">
        <ele>214.03</ele>
        <time>2014-09-21T11:43:15Z</time>
      </trkpt>
      <trkpt lat="41.617751283" lon="2.520155532">
        <ele>211.15</ele>
        <time>2014-09-21T11:43:22Z</time>
      </trkpt>
      <trkpt lat="41.617827642" lon="2.520079592">
        <ele>209.70</ele>
        <time>2014-09-21T11:43:24Z</time>
      </trkpt>
      <trkpt lat="41.617957813" lon="2.519899130">
        <ele>207.30</ele>
        <time>2014-09-21T11:43:27Z</time>
      </trkpt>
      <trkpt lat="41.617904169" lon="2.519731240">
        <ele>205.86</ele>
        <time>2014-09-21T11:43:31Z</time>
      </trkpt>
      <trkpt lat="41.617859409" lon="2.519628981">
        <ele>204.42</ele>
        <time>2014-09-21T11:43:34Z</time>
      </trkpt>
      <trkpt lat="41.617844070" lon="2.519597046">
        <ele>203.46</ele>
        <time>2014-09-21T11:43:38Z</time>
      </trkpt>
      <trkpt lat="41.617690179" lon="2.519593023">
        <ele>203.46</ele>
        <time>2014-09-21T11:43:45Z</time>
      </trkpt>
      <trkpt lat="41.617367559" lon="2.519629149">
        <ele>201.53</ele>
        <time>2014-09-21T11:43:53Z</time>
      </trkpt>
      <trkpt lat="41.617045945" lon="2.519672902">
        <ele>201.05</ele>
        <time>2014-09-21T11:43:59Z</time>
      </trkpt>
      <trkpt lat="41.616993391" lon="2.519680111">
        <ele>200.57</ele>
        <time>2014-09-21T11:44:00Z</time>
      </trkpt>
      <trkpt lat="41.616604722" lon="2.519829728">
        <ele>198.17</ele>
        <time>2014-09-21T11:44:07Z</time>
      </trkpt>
      <trkpt lat="41.616559879" lon="2.519859065">
        <ele>197.69</ele>
        <time>2014-09-21T11:44:07Z</time>
      </trkpt>
      <trkpt lat="41.616387128" lon="2.520007843">
        <ele>197.21</ele>
        <time>2014-09-21T11:44:12Z</time>
      </trkpt>
      <trkpt lat="41.616357037" lon="2.520027038">
        <ele>198.65</ele>
        <time>2014-09-21T11:44:14Z</time>
      </trkpt>
      <trkpt lat="41.616325940" lon="2.520055536">
        <ele>198.65</ele>
        <time>2014-09-21T11:44:19Z</time>
      </trkpt>
      <trkpt lat="41.616327449" lon="2.520059811">
        <ele>198.65</ele>
        <time>2014-09-21T11:44:37Z</time>
      </trkpt>
      <trkpt lat="41.616309428" lon="2.520069534">
        <ele>198.65</ele>
        <time>2014-09-21T11:44:51Z</time>
      </trkpt>
      <trkpt lat="41.616293921" lon="2.520078838">
        <ele>198.65</ele>
        <time>2014-09-21T11:45:12Z</time>
      </trkpt>
      <trkpt lat="41.616302387" lon="2.520075150">
        <ele>198.65</ele>
        <time>2014-09-21T11:45:22Z</time>
      </trkpt>
      <trkpt lat="41.616235164" lon="2.520265335">
        <ele>198.65</ele>
        <time>2014-09-21T11:45:31Z</time>
      </trkpt>
      <trkpt lat="41.616170204" lon="2.520454263">
        <ele>197.21</ele>
        <time>2014-09-21T11:45:36Z</time>
      </trkpt>
      <trkpt lat="41.616075153" lon="2.520712510">
        <ele>196.73</ele>
        <time>2014-09-21T11:45:43Z</time>
      </trkpt>
      <trkpt lat="41.616000722" lon="2.521060359">
        <ele>196.25</ele>
        <time>2014-09-21T11:45:50Z</time>
      </trkpt>
      <trkpt lat="41.615939367" lon="2.521466965">
        <ele>195.77</ele>
        <time>2014-09-21T11:45:59Z</time>
      </trkpt>
      <trkpt lat="41.615917155" lon="2.521738120">
        <ele>195.28</ele>
        <time>2014-09-21T11:46:04Z</time>
      </trkpt>
      <trkpt lat="41.615867617" lon="2.522066439">
        <ele>194.80</ele>
        <time>2014-09-21T11:46:11Z</time>
      </trkpt>
      <trkpt lat="41.615798802" lon="2.522680748">
        <ele>192.40</ele>
        <time>2014-09-21T11:46:18Z</time>
      </trkpt>
      <trkpt lat="41.615723952" lon="2.523144184">
        <ele>190.96</ele>
        <time>2014-09-21T11:46:25Z</time>
      </trkpt>
      <trkpt lat="41.615654801" lon="2.523883132">
        <ele>189.04</ele>
        <time>2014-09-21T11:46:32Z</time>
      </trkpt>
      <trkpt lat="41.615611299" lon="2.524314297">
        <ele>187.59</ele>
        <time>2014-09-21T11:46:37Z</time>
      </trkpt>
      <trkpt lat="41.615553548" lon="2.524903881">
        <ele>185.19</ele>
        <time>2014-09-21T11:46:42Z</time>
      </trkpt>
      <trkpt lat="41.615526390" lon="2.525613995">
        <ele>181.83</ele>
        <time>2014-09-21T11:46:49Z</time>
      </trkpt>
      <trkpt lat="41.615564696" lon="2.526328134">
        <ele>180.38</ele>
        <time>2014-09-21T11:46:56Z</time>
      </trkpt>
      <trkpt lat="41.615587830" lon="2.526720407">
        <ele>179.42</ele>
        <time>2014-09-21T11:47:00Z</time>
      </trkpt>
      <trkpt lat="41.615482553" lon="2.527634705">
        <ele>176.54</ele>
        <time>2014-09-21T11:47:08Z</time>
      </trkpt>
      <trkpt lat="41.615349281" lon="2.528309448">
        <ele>174.14</ele>
        <time>2014-09-21T11:47:15Z</time>
      </trkpt>
      <trkpt lat="41.615211231" lon="2.528995758">
        <ele>172.21</ele>
        <time>2014-09-21T11:47:22Z</time>
      </trkpt>
      <trkpt lat="41.615207878" lon="2.529293483">
        <ele>171.73</ele>
        <time>2014-09-21T11:47:24Z</time>
      </trkpt>
      <trkpt lat="41.615182984" lon="2.529873343">
        <ele>169.33</ele>
        <time>2014-09-21T11:47:31Z</time>
      </trkpt>
      <trkpt lat="41.615188683" lon="2.530554960">
        <ele>167.89</ele>
        <time>2014-09-21T11:47:38Z</time>
      </trkpt>
      <trkpt lat="41.615111151" lon="2.531240516">
        <ele>165.00</ele>
        <time>2014-09-21T11:47:45Z</time>
      </trkpt>
      <trkpt lat="41.615193042" lon="2.531640165">
        <ele>164.04</ele>
        <time>2014-09-21T11:47:50Z</time>
      </trkpt>
      <trkpt lat="41.615226318" lon="2.531843258">
        <ele>162.60</ele>
        <time>2014-09-21T11:47:52Z</time>
      </trkpt>
      <trkpt lat="41.615154653" lon="2.532443905">
        <ele>161.64</ele>
        <time>2014-09-21T11:47:57Z</time>
      </trkpt>
      <trkpt lat="41.614942004" lon="2.533160893">
        <ele>159.24</ele>
        <time>2014-09-21T11:48:06Z</time>
      </trkpt>
      <trkpt lat="41.614680069" lon="2.534033533">
        <ele>156.35</ele>
        <time>2014-09-21T11:48:15Z</time>
      </trkpt>
      <trkpt lat="41.614430456" lon="2.534804920">
        <ele>155.39</ele>
        <time>2014-09-21T11:48:23Z</time>
      </trkpt>
      <trkpt lat="41.614279666" lon="2.535250669">
        <ele>153.47</ele>
        <time>2014-09-21T11:48:27Z</time>
      </trkpt>
      <trkpt lat="41.614055199" lon="2.535932705">
        <ele>151.54</ele>
        <time>2014-09-21T11:48:36Z</time>
      </trkpt>
      <trkpt lat="41.613966099" lon="2.536179133">
        <ele>150.58</ele>
        <time>2014-09-21T11:48:39Z</time>
      </trkpt>
      <trkpt lat="41.613787313" lon="2.536557995">
        <ele>148.66</ele>
        <time>2014-09-21T11:48:44Z</time>
      </trkpt>
      <trkpt lat="41.613617747" lon="2.536852116">
        <ele>147.22</ele>
        <time>2014-09-21T11:48:51Z</time>
      </trkpt>
      <trkpt lat="41.613547423" lon="2.536979605">
        <ele>146.74</ele>
        <time>2014-09-21T11:48:55Z</time>
      </trkpt>
      <trkpt lat="41.613230168" lon="2.537340697">
        <ele>145.30</ele>
        <time>2014-09-21T11:49:05Z</time>
      </trkpt>
      <trkpt lat="41.613107792" lon="2.537497439">
        <ele>144.82</ele>
        <time>2014-09-21T11:49:10Z</time>
      </trkpt>
      <trkpt lat="41.613007209" lon="2.537606655">
        <ele>144.82</ele>
        <time>2014-09-21T11:49:17Z</time>
      </trkpt>
      <trkpt lat="41.612860610" lon="2.537775550">
        <ele>143.85</ele>
        <time>2014-09-21T11:49:24Z</time>
      </trkpt>
      <trkpt lat="41.612733121" lon="2.537918965">
        <ele>143.37</ele>
        <time>2014-09-21T11:49:31Z</time>
      </trkpt>
      <trkpt lat="41.612588449" lon="2.538097080">
        <ele>142.41</ele>
        <time>2014-09-21T11:49:36Z</time>
      </trkpt>
      <trkpt lat="41.612467247" lon="2.538263796">
        <ele>141.45</ele>
        <time>2014-09-21T11:49:42Z</time>
      </trkpt>
      <trkpt lat="41.612343782" lon="2.538528580">
        <ele>140.97</ele>
        <time>2014-09-21T11:49:49Z</time>
      </trkpt>
      <trkpt lat="41.612266752" lon="2.538655818">
        <ele>140.01</ele>
        <time>2014-09-21T11:49:56Z</time>
      </trkpt>
      <trkpt lat="41.612246971" lon="2.538694291">
        <ele>140.01</ele>
        <time>2014-09-21T11:50:01Z</time>
      </trkpt>
      <trkpt lat="41.612244121" lon="2.538713150">
        <ele>140.01</ele>
        <time>2014-09-21T11:50:10Z</time>
      </trkpt>
      <trkpt lat="41.612223669" lon="2.538776852">
        <ele>140.01</ele>
        <time>2014-09-21T11:50:25Z</time>
      </trkpt>
      <trkpt lat="41.612153429" lon="2.538840890">
        <ele>140.49</ele>
        <time>2014-09-21T11:50:41Z</time>
      </trkpt>
      <trkpt lat="41.612113112" lon="2.538890930">
        <ele>140.01</ele>
        <time>2014-09-21T11:50:51Z</time>
      </trkpt>
      <trkpt lat="41.612101628" lon="2.538908448">
        <ele>140.01</ele>
        <time>2014-09-21T11:50:53Z</time>
      </trkpt>
      <trkpt lat="41.611999872" lon="2.539032417">
        <ele>139.05</ele>
        <time>2014-09-21T11:51:00Z</time>
      </trkpt>
      <trkpt lat="41.611964584" lon="2.539120846">
        <ele>139.05</ele>
        <time>2014-09-21T11:51:02Z</time>
      </trkpt>
      <trkpt lat="41.611819745" lon="2.539272810">
        <ele>138.09</ele>
        <time>2014-09-21T11:51:09Z</time>
      </trkpt>
      <trkpt lat="41.611650933" lon="2.539455619">
        <ele>137.61</ele>
        <time>2014-09-21T11:51:16Z</time>
      </trkpt>
      <trkpt lat="41.611702650" lon="2.539748231">
        <ele>137.61</ele>
        <time>2014-09-21T11:51:23Z</time>
      </trkpt>
      <trkpt lat="41.611712121" lon="2.539809335">
        <ele>137.61</ele>
        <time>2014-09-21T11:51:26Z</time>
      </trkpt>
      <trkpt lat="41.611703153" lon="2.539913606">
        <ele>138.57</ele>
        <time>2014-09-21T11:51:30Z</time>
      </trkpt>
      <trkpt lat="41.611685467" lon="2.539946631">
        <ele>138.57</ele>
        <time>2014-09-21T11:51:30Z</time>
      </trkpt>
      <trkpt lat="41.611675744" lon="2.540050818">
        <ele>139.05</ele>
        <time>2014-09-21T11:51:35Z</time>
      </trkpt>
      <trkpt lat="41.611706673" lon="2.540275872">
        <ele>140.49</ele>
        <time>2014-09-21T11:51:42Z</time>
      </trkpt>
      <trkpt lat="41.611736177" lon="2.540484497">
        <ele>141.93</ele>
        <time>2014-09-21T11:51:49Z</time>
      </trkpt>
      <trkpt lat="41.611743889" lon="2.540667139">
        <ele>142.89</ele>
        <time>2014-09-21T11:51:56Z</time>
      </trkpt>
      <trkpt lat="41.611667613" lon="2.540730674">
        <ele>142.89</ele>
        <time>2014-09-21T11:51:59Z</time>
      </trkpt>
      <trkpt lat="41.611372570" lon="2.540866964">
        <ele>142.89</ele>
        <time>2014-09-21T11:52:08Z</time>
      </trkpt>
      <trkpt lat="41.611140895" lon="2.540970732">
        <ele>141.93</ele>
        <time>2014-09-21T11:52:13Z</time>
      </trkpt>
      <trkpt lat="41.610696570" lon="2.541153373">
        <ele>139.05</ele>
        <time>2014-09-21T11:52:20Z</time>
      </trkpt>
      <trkpt lat="41.610347631" lon="2.541301649">
        <ele>137.61</ele>
        <time>2014-09-21T11:52:27Z</time>
      </trkpt>
      <trkpt lat="41.610083266" lon="2.541361999">
        <ele>137.13</ele>
        <time>2014-09-21T11:52:31Z</time>
      </trkpt>
      <trkpt lat="41.609873802" lon="2.541327130">
        <ele>134.72</ele>
        <time>2014-09-21T11:52:34Z</time>
      </trkpt>
      <trkpt lat="41.609778835" lon="2.541305673">
        <ele>133.76</ele>
        <time>2014-09-21T11:52:36Z</time>
      </trkpt>
      <trkpt lat="41.609547914" lon="2.541351270">
        <ele>132.80</ele>
        <time>2014-09-21T11:52:43Z</time>
      </trkpt>
      <trkpt lat="41.609359908" lon="2.541402819">
        <ele>132.32</ele>
        <time>2014-09-21T11:52:50Z</time>
      </trkpt>
      <trkpt lat="41.609330320" lon="2.541419666">
        <ele>131.84</ele>
        <time>2014-09-21T11:52:57Z</time>
      </trkpt>
      <trkpt lat="41.609324452" lon="2.541474400">
        <ele>131.84</ele>
        <time>2014-09-21T11:53:09Z</time>
      </trkpt>
      <trkpt lat="41.609339707" lon="2.541521004">
        <ele>131.84</ele>
        <time>2014-09-21T11:53:23Z</time>
      </trkpt>
      <trkpt lat="41.609309700" lon="2.541517735">
        <ele>131.84</ele>
        <time>2014-09-21T11:53:40Z</time>
      </trkpt>
      <trkpt lat="41.609306264" lon="2.541516980">
        <ele>131.84</ele>
        <time>2014-09-21T11:53:54Z</time>
      </trkpt>
      <trkpt lat="41.609314143" lon="2.541517483">
        <ele>131.36</ele>
        <time>2014-09-21T11:54:10Z</time>
      </trkpt>
      <trkpt lat="41.609330152" lon="2.541525111">
        <ele>131.84</ele>
        <time>2014-09-21T11:54:26Z</time>
      </trkpt>
      <trkpt lat="41.609340462" lon="2.541523183">
        <ele>131.84</ele>
        <time>2014-09-21T11:54:45Z</time>
      </trkpt>
      <trkpt lat="41.609332164" lon="2.541528966">
        <ele>131.84</ele>
        <time>2014-09-21T11:54:59Z</time>
      </trkpt>
      <trkpt lat="41.609332331" lon="2.541536091">
        <ele>131.84</ele>
        <time>2014-09-21T11:55:11Z</time>
      </trkpt>
      <trkpt lat="41.609328476" lon="2.541538019">
        <ele>131.84</ele>
        <time>2014-09-21T11:55:27Z</time>
      </trkpt>
      <trkpt lat="41.609328727" lon="2.541542461">
        <ele>132.32</ele>
        <time>2014-09-21T11:55:39Z</time>
      </trkpt>
      <trkpt lat="41.609310874" lon="2.541567439">
        <ele>132.32</ele>
        <time>2014-09-21T11:55:53Z</time>
      </trkpt>
      <trkpt lat="41.609307856" lon="2.541569786">
        <ele>132.32</ele>
        <time>2014-09-21T11:56:07Z</time>
      </trkpt>
      <trkpt lat="41.609316406" lon="2.541548580">
        <ele>132.32</ele>
        <time>2014-09-21T11:56:19Z</time>
      </trkpt>
      <trkpt lat="41.609313472" lon="2.541561572">
        <ele>132.32</ele>
        <time>2014-09-21T11:56:33Z</time>
      </trkpt>
      <trkpt lat="41.609328392" lon="2.541539528">
        <ele>132.32</ele>
        <time>2014-09-21T11:56:45Z</time>
      </trkpt>
      <trkpt lat="41.609320010" lon="2.541555286">
        <ele>132.32</ele>
        <time>2014-09-21T11:56:59Z</time>
      </trkpt>
      <trkpt lat="41.609318837" lon="2.541556962">
        <ele>132.32</ele>
        <time>2014-09-21T11:57:11Z</time>
      </trkpt>
      <trkpt lat="41.609307940" lon="2.541549754">
        <ele>132.32</ele>
        <time>2014-09-21T11:57:27Z</time>
      </trkpt>
      <trkpt lat="41.609294278" lon="2.541562578">
        <ele>132.32</ele>
        <time>2014-09-21T11:57:39Z</time>
      </trkpt>
      <trkpt lat="41.609282962" lon="2.541561740">
        <ele>132.32</ele>
        <time>2014-09-21T11:57:49Z</time>
      </trkpt>
      <trkpt lat="41.609286147" lon="2.541549502">
        <ele>132.80</ele>
        <time>2014-09-21T11:58:03Z</time>
      </trkpt>
      <trkpt lat="41.609276173" lon="2.541542880">
        <ele>132.80</ele>
        <time>2014-09-21T11:58:17Z</time>
      </trkpt>
      <trkpt lat="41.609278939" lon="2.541543048">
        <ele>132.80</ele>
        <time>2014-09-21T11:58:30Z</time>
      </trkpt>
      <trkpt lat="41.609277765" lon="2.541544808">
        <ele>132.80</ele>
        <time>2014-09-21T11:58:45Z</time>
      </trkpt>
      <trkpt lat="41.609275167" lon="2.541543132">
        <ele>132.80</ele>
        <time>2014-09-21T11:58:47Z</time>
      </trkpt>
      <trkpt lat="41.609103589" lon="2.541493846">
        <ele>132.80</ele>
        <time>2014-09-21T11:58:54Z</time>
      </trkpt>
      <trkpt lat="41.608855569" lon="2.541483453">
        <ele>132.32</ele>
        <time>2014-09-21T11:58:59Z</time>
      </trkpt>
      <trkpt lat="41.608564717" lon="2.541328304">
        <ele>131.36</ele>
        <time>2014-09-21T11:59:06Z</time>
      </trkpt>
      <trkpt lat="41.608424404" lon="2.541188913">
        <ele>130.88</ele>
        <time>2014-09-21T11:59:08Z</time>
      </trkpt>
      <trkpt lat="41.608013858" lon="2.540988334">
        <ele>128.95</ele>
        <time>2014-09-21T11:59:15Z</time>
      </trkpt>
      <trkpt lat="41.607660309" lon="2.540954052">
        <ele>128.95</ele>
        <time>2014-09-21T11:59:22Z</time>
      </trkpt>
      <trkpt lat="41.607172399" lon="2.540910466">
        <ele>127.51</ele>
        <time>2014-09-21T11:59:29Z</time>
      </trkpt>
      <trkpt lat="41.607046419" lon="2.540881045">
        <ele>127.51</ele>
        <time>2014-09-21T11:59:32Z</time>
      </trkpt>
      <trkpt lat="41.606748777" lon="2.540768979">
        <ele>126.55</ele>
        <time>2014-09-21T11:59:36Z</time>
      </trkpt>
      <trkpt lat="41.606606620" lon="2.540817762">
        <ele>124.63</ele>
        <time>2014-09-21T11:59:41Z</time>
      </trkpt>
      <trkpt lat="41.606617265" lon="2.540954219">
        <ele>124.63</ele>
        <time>2014-09-21T11:59:43Z</time>
      </trkpt>
      <trkpt lat="41.606688260" lon="2.541148763">
        <ele>126.07</ele>
        <time>2014-09-21T11:59:50Z</time>
      </trkpt>
      <trkpt lat="41.606746514" lon="2.541399550">
        <ele>127.99</ele>
        <time>2014-09-21T11:59:58Z</time>
      </trkpt>
      <trkpt lat="41.606807954" lon="2.541607505">
        <ele>129.43</ele>
        <time>2014-09-21T12:00:05Z</time>
      </trkpt>
      <trkpt lat="41.606925552" lon="2.541905984">
        <ele>130.88</ele>
        <time>2014-09-21T12:00:14Z</time>
      </trkpt>
      <trkpt lat="41.606943070" lon="2.541960802">
        <ele>131.36</ele>
        <time>2014-09-21T12:00:16Z</time>
      </trkpt>
      <trkpt lat="41.606983890" lon="2.542002628">
        <ele>132.32</ele>
        <time>2014-09-21T12:00:23Z</time>
      </trkpt>
      <trkpt lat="41.606985482" lon="2.542011680">
        <ele>132.32</ele>
        <time>2014-09-21T12:00:33Z</time>
      </trkpt>
      <trkpt lat="41.607004342" lon="2.542106144">
        <ele>132.80</ele>
        <time>2014-09-21T12:00:42Z</time>
      </trkpt>
      <trkpt lat="41.607013813" lon="2.542124668">
        <ele>132.80</ele>
        <time>2014-09-21T12:00:44Z</time>
      </trkpt>
      <trkpt lat="41.607083802" lon="2.542239584">
        <ele>133.76</ele>
        <time>2014-09-21T12:00:49Z</time>
      </trkpt>
      <trkpt lat="41.607109367" lon="2.542279901">
        <ele>134.24</ele>
        <time>2014-09-21T12:00:54Z</time>
      </trkpt>
      <trkpt lat="41.607126382" lon="2.542309825">
        <ele>134.72</ele>
        <time>2014-09-21T12:01:01Z</time>
      </trkpt>
      <trkpt lat="41.607128729" lon="2.542331785">
        <ele>134.72</ele>
        <time>2014-09-21T12:01:17Z</time>
      </trkpt>
    </trkseg>
  </trk>
</gpx>
